[[[{"header":{"parameterUnit":"kt","parameterCategory":2,"dx":1,"dy":1,"la1":29.285339999999998,"la2":30.599998999999997,"lo1":-89.70041500000002,"lo2":-87.6738589999976,"nx":112,"ny":82,"refTime":"2022-10-26T18:00:00:Z","depth":0,"parameterNumber":1,"parameterNumberName":"U-component_of_WINDS"},"data":[1.9551,1.9265,1.9058,1.8854,1.8635,1.8506,1.8271,1.7945,1.7782,1.7609,1.7406,1.6871,1.6219,1.5242,1.4275,1.3212,1.2253,1.1275,0.0,0.935,0.8367,0.7377,0.0,0.0,0.0,0.0,0.4172,0.4385,0.4602,0.4779,0.5008,0.5295,0.5538,0.5727,0.5916,0.6172,0.6432,0.6636,0.6871,0.7027,0.7123,0.7271,0.7465,0.7611,0.7749,0.7835,0.7976,0.811,0.8249,0.8436,0.8516,0.865,0.8783,0.9025,0.9264,0.9515,0.9758,1.0059,1.0306,1.0604,1.0839,1.1071,1.1311,1.1593,1.182,1.2106,1.2329,1.2518,1.2695,1.2821,1.2996,1.3181,1.3303,1.3476,1.3596,1.3727,1.3896,1.4003,1.4169,1.4373,1.4526,1.4604,1.4681,1.4769,1.4865,1.4972,1.5136,1.5224,1.5323,1.5419,1.5499,1.559,1.5692,1.5823,1.5951,1.6118,1.6225,1.6373,1.6548,1.6735,1.6789,1.6986,1.7149,1.7324,1.7439,1.7567,1.7692,1.7816,1.7969,1.8169,1.8324,1.8455,1.7503,1.7269,1.6959,1.6738,1.6592,1.6355,1.6115,1.5863,1.5689,1.551,1.5324,1.48,1.4218,1.3304,1.2416,1.1554,1.0665,0.9738,0.0,0.7994,0.7059,0.6216,0.5307,0.4442,0.3566,0.3069,0.3307,0.3554,0.3748,0.3903,0.4163,0.4432,0.4598,0.4818,0.4987,0.5273,0.5509,0.5692,0.591,0.6056,0.6212,0.6296,0.6488,0.6631,0.6772,0.6855,0.6943,0.708,0.7265,0.7393,0.747,0.7607,0.7736,0.7972,0.8211,0.8461,0.8703,0.8996,0.9241,0.953,0.9765,0.9997,1.0279,1.0499,1.0777,1.1009,1.1291,1.152,1.1697,1.1882,1.2006,1.2189,1.2352,1.2513,1.2692,1.2871,1.3039,1.3205,1.3321,1.3524,1.3675,1.3863,1.3928,1.4028,1.4114,1.422,1.4323,1.4471,1.4582,1.4678,1.4759,1.485,1.4964,1.514,1.528,1.5432,1.5537,1.5655,1.5858,1.6028,1.6139,1.6288,1.6422,1.6595,1.6765,1.6916,1.7023,1.716,1.7255,1.7467,1.7659,1.777,1.5449,1.5191,1.4949,1.4699,1.4527,1.4276,1.4025,1.3766,1.3587,1.3405,1.3151,1.2754,1.2162,1.1387,1.0634,0.9832,0.8994,0.0,0.0,0.6607,0.5832,0.5086,0.4261,0.3419,0.2665,0.2224,0.2454,0.2686,0.2871,0.3058,0.3251,0.3502,0.3651,0.3855,0.4111,0.4378,0.465,0.4815,0.5022,0.5152,0.5245,0.5333,0.5469,0.5614,0.5758,0.5892,0.6029,0.6113,0.6246,0.6322,0.6452,0.6526,0.6658,0.6901,0.72,0.7443,0.7726,0.7959,0.8249,0.8491,0.8724,0.9001,0.9274,0.9552,0.9777,1.0008,1.0288,1.0457,1.0641,1.0866,1.1031,1.1203,1.1424,1.1594,1.1802,1.2027,1.2203,1.2368,1.2531,1.2694,1.2844,1.3019,1.3075,1.3234,1.339,1.3449,1.3565,1.3758,1.3857,1.3953,1.4034,1.4137,1.4308,1.4438,1.4565,1.4758,1.4906,1.5009,1.5166,1.532,1.5499,1.5633,1.575,1.5905,1.6072,1.6251,1.6397,1.65,1.6632,1.6784,1.6934,1.7059,1.3323,1.3121,1.2848,1.2654,1.2467,1.2192,1.1993,1.1722,1.1531,1.1339,1.1086,0.0,0.0,0.0,0.8793,0.8116,0.0,0.6638,0.5909,0.5262,0.458,0.3919,0.3176,0.2462,0.1779,0.1395,0.1616,0.1788,0.1964,0.2193,0.2427,0.2613,0.2799,0.2988,0.3233,0.3484,0.3685,0.3945,0.408,0.4258,0.4294,0.438,0.4523,0.4612,0.4756,0.4894,0.4975,0.5114,0.5192,0.5269,0.5402,0.5476,0.561,0.5902,0.6147,0.6391,0.6674,0.6954,0.7191,0.7477,0.7716,0.7986,0.8252,0.8536,0.881,0.904,0.926,0.9479,0.9604,0.9869,1.0091,1.0262,1.048,1.0698,1.0904,1.1127,1.134,1.1503,1.1723,1.1893,1.208,1.2197,1.2301,1.2423,1.2589,1.2707,1.2811,1.3003,1.3102,1.321,1.3304,1.3452,1.3621,1.3738,1.3864,1.4043,1.4202,1.4346,1.4489,1.4641,1.4776,1.495,1.5106,1.5219,1.5383,1.5623,1.5712,1.5828,1.598,1.6092,1.6238,1.6398,1.1287,1.1057,1.0758,1.0539,1.0327,1.0107,0.9955,0.9738,0.9457,0.925,0.0,0.0,0.0,0.0,0.0,0.0,0.5732,0.5141,0.4448,0.3894,0.33,0.2665,0.2113,0.1527,0.0909,0.0582,0.0798,0.091,0.1078,0.1301,0.1527,0.1758,0.199,0.2168,0.2405,0.259,0.2775,0.2962,0.3144,0.3372,0.3409,0.3443,0.3538,0.3628,0.3715,0.3861,0.3944,0.4029,0.4163,0.4241,0.4318,0.4454,0.4591,0.4827,0.5116,0.5359,0.5647,0.5928,0.6165,0.6445,0.6723,0.6997,0.7219,0.7545,0.7825,0.8096,0.8309,0.8477,0.863,0.8907,0.9134,0.9305,0.957,0.9825,0.9991,1.0251,1.05,1.067,1.0887,1.115,1.1279,1.1359,1.1556,1.1678,1.1717,1.1881,1.2086,1.2277,1.2376,1.2429,1.259,1.2737,1.2881,1.3053,1.3179,1.3314,1.35,1.3697,1.3838,1.3948,1.4069,1.428,1.4448,1.4546,1.4732,1.4953,1.5055,1.5207,1.5318,1.5449,1.5593,1.5713,0.92,0.9011,0.8758,0.8505,0.8259,0.8012,0.7769,0.0,0.7368,0.7138,0.0,0.6552,0.6194,0.0,0.0,0.4572,0.4064,0.3567,0.2963,0.25,0.1991,0.1494,0.1017,0.0555,0.0055,-0.027,-0.0109,0.0054,0.0274,0.0494,0.0661,0.0887,0.1057,0.1285,0.1514,0.1689,0.181,0.2045,0.2275,0.2446,0.2488,0.2526,0.2621,0.2714,0.2751,0.2896,0.2982,0.3069,0.3155,0.3239,0.3321,0.3402,0.3485,0.3781,0.4072,0.4311,0.4596,0.4827,0.5109,0.5339,0.5622,0.5892,0.6164,0.6434,0.6749,0.7013,0.7232,0.7449,0.767,0.7931,0.8149,0.8366,0.8636,0.8897,0.9102,0.9359,0.9568,0.9813,1.0027,1.0332,1.0461,1.0588,1.0749,1.0871,1.0991,1.1163,1.1333,1.1513,1.1623,1.1721,1.188,1.2038,1.2212,1.2394,1.2561,1.2654,1.2798,1.2968,1.3121,1.3271,1.339,1.3585,1.3776,1.3887,1.407,1.425,1.4388,1.4523,1.4669,1.4813,1.4954,1.5092,0.714,0.6917,0.6701,0.6415,0.6137,0.5928,0.0,0.0,0.0,0.5007,0.4823,0.4499,0.4113,0.373,0.3291,0.2863,0.2384,0.1978,0.1524,0.1081,0.0651,0.035,-0.0057,-0.0452,-0.0891,-0.1105,-0.0996,-0.0776,-0.0555,-0.0389,-0.0167,0.0,0.0168,0.0393,0.0618,0.0788,0.0904,0.119,0.1361,0.1471,0.1573,0.1619,0.1661,0.1758,0.1801,0.1894,0.1985,0.208,0.2116,0.2205,0.2241,0.2329,0.2413,0.2709,0.3003,0.3289,0.3525,0.3757,0.4037,0.4268,0.4545,0.4821,0.5089,0.5407,0.5668,0.5975,0.6193,0.6456,0.673,0.6989,0.72,0.7415,0.7675,0.7941,0.819,0.8445,0.8652,0.8942,0.9191,0.9492,0.9675,0.9847,0.9927,1.0085,1.0249,1.042,1.0589,1.0745,1.0889,1.0987,1.1187,1.1344,1.1528,1.1697,1.1875,1.198,1.2111,1.2267,1.242,1.2608,1.2765,1.2906,1.3095,1.3228,1.3371,1.3511,1.3698,1.3882,1.4033,1.4138,1.4292,1.4412,0.5112,0.4929,0.4672,0.435,0.4102,0.0,0.0,0.345,0.3152,0.2923,0.2629,0.2336,0.2047,0.1763,0.1484,0.1147,0.0819,0.0498,0.0184,-0.0182,-0.0599,-0.0886,-0.1166,-0.1498,-0.1762,-0.1916,-0.1803,-0.1578,-0.1409,-0.124,-0.1072,-0.0902,-0.0677,-0.0451,-0.0282,-0.0113,0.0056,0.0226,0.0395,0.0506,0.0614,0.0665,0.0714,0.0764,0.0865,0.0858,0.0958,0.1057,0.1099,0.1091,0.1236,0.1329,0.142,0.1615,0.1857,0.2145,0.2432,0.2718,0.2996,0.3277,0.3555,0.3823,0.414,0.4405,0.4671,0.4981,0.5195,0.5504,0.5764,0.6028,0.6238,0.6492,0.6749,0.7006,0.7299,0.7551,0.7801,0.8102,0.8349,0.8638,0.8865,0.9001,0.9162,0.9363,0.9535,0.9662,0.9821,1.0019,1.0172,1.0322,1.0521,1.0707,1.0889,1.0998,1.1135,1.1309,1.1467,1.1583,1.1786,1.1972,1.2077,1.2217,1.2353,1.2573,1.2701,1.2826,1.3046,1.3227,1.3375,1.3513,1.3613,1.3681,0.3049,0.2822,0.2594,0.2301,0.201,0.0,0.1575,0.1294,0.1083,0.0808,0.0536,0.0332,0.0066,-0.013,-0.0388,-0.0575,-0.0823,-0.1064,-0.1237,-0.1531,-0.1819,-0.2037,-0.2251,-0.2522,-0.2726,-0.2817,-0.2639,-0.2464,-0.2289,-0.2112,-0.1938,-0.1765,-0.1591,-0.1362,-0.1188,-0.1017,-0.0847,-0.0676,-0.0505,-0.0447,-0.0333,-0.0275,-0.0218,-0.0162,-0.0107,-0.0106,-0.0053,0.0052,0.0052,0.0103,0.0204,0.0253,0.03,0.0548,0.0792,0.1083,0.137,0.1656,0.1938,0.2265,0.2543,0.2813,0.308,0.3346,0.3659,0.3922,0.4225,0.4483,0.4792,0.5049,0.5309,0.5556,0.5812,0.6106,0.6402,0.669,0.6982,0.7235,0.7523,0.7802,0.8027,0.8214,0.8367,0.8541,0.8705,0.8866,0.9032,0.9239,0.9433,0.9624,0.9821,1.0015,1.0167,1.0305,1.0442,1.0603,1.0762,1.0954,1.1105,1.1251,1.1431,1.1545,1.168,1.192,1.2047,1.217,1.2408,1.2585,1.271,1.2832,1.2931,1.3017,0.1101,0.0823,0.0478,0.0204,0.0,0.0,-0.054,-0.0807,-0.1004,-0.1268,-0.1531,-0.1722,-0.1841,-0.2087,-0.22,-0.231,-0.248,-0.2646,-0.2745,-0.2907,-0.3126,-0.316,-0.3312,-0.3521,-0.3666,-0.3699,-0.3567,-0.3377,-0.3134,-0.3009,-0.2827,-0.2643,-0.2462,-0.2284,-0.2102,-0.1924,-0.175,-0.1573,-0.1453,-0.1389,-0.1324,-0.1258,-0.1193,-0.1129,-0.1065,-0.1057,-0.1047,-0.0985,-0.0924,-0.0864,-0.0857,-0.0848,-0.079,-0.0491,-0.0244,0.0049,0.0338,0.0624,0.0906,0.1234,0.1559,0.1784,0.2006,0.227,0.2584,0.2848,0.3192,0.3497,0.3807,0.4105,0.4359,0.4659,0.4953,0.5239,0.5532,0.5824,0.6145,0.6438,0.6722,0.6998,0.7222,0.74,0.7534,0.7693,0.7857,0.8059,0.8225,0.852,0.8722,0.8912,0.9059,0.9261,0.9452,0.964,0.9804,0.9878,1.0074,1.0276,1.0377,1.0523,1.0776,1.0877,1.1011,1.1236,1.1383,1.1517,1.1751,1.1945,1.2075,1.2147,1.2202,1.2349,-0.0936,-0.1268,-0.1534,-0.1799,0.0,0.0,-0.2592,-0.2854,-0.3115,-0.3309,-0.364,-0.376,-0.3941,-0.3981,-0.4018,-0.4051,-0.4086,-0.4187,-0.4219,-0.4254,-0.4344,-0.4374,-0.4403,-0.4491,-0.4577,-0.4549,-0.4346,-0.4206,-0.4065,-0.3867,-0.3673,-0.3479,-0.3346,-0.3155,-0.3023,-0.2835,-0.2654,-0.2468,-0.234,-0.2269,-0.2249,-0.2176,-0.2156,-0.2135,-0.2113,-0.2093,-0.2075,-0.2002,-0.193,-0.191,-0.1893,-0.1874,-0.1856,-0.1553,-0.1301,-0.0959,-0.0667,-0.0379,-0.0141,0.014,0.0465,0.0739,0.101,0.1278,0.1587,0.185,0.2197,0.2454,0.2756,0.3102,0.3399,0.3689,0.3984,0.4278,0.4608,0.4935,0.5216,0.5543,0.5862,0.6177,0.64,0.6577,0.6753,0.696,0.7131,0.7292,0.7498,0.7782,0.7974,0.8172,0.8327,0.8558,0.8795,0.8972,0.9145,0.922,0.9415,0.9642,0.9717,0.9888,1.0126,1.0226,1.0359,1.0593,1.0751,1.0871,1.1021,1.1214,1.1335,1.1453,1.1567,1.1697,-0.2984,0.0,0.0,0.0,0.0,0.0,-0.4647,-0.4918,-0.5183,-0.5451,-0.5727,-0.5855,-0.5909,-0.5945,-0.5842,-0.5745,-0.5711,-0.5682,-0.566,-0.5627,-0.5531,-0.5561,-0.5527,-0.5494,-0.5465,-0.5371,-0.5157,-0.5061,-0.4964,-0.4748,-0.4539,-0.439,-0.4243,-0.4095,-0.3891,-0.3752,-0.3556,-0.3418,-0.3279,-0.3197,-0.3166,-0.3137,-0.3106,-0.3073,-0.3094,-0.3114,-0.3084,-0.3001,-0.2967,-0.2935,-0.2952,-0.2925,-0.2898,-0.2638,-0.2335,-0.1986,-0.1739,-0.1448,-0.1205,-0.0921,-0.0596,-0.0319,0.0,0.027,0.058,0.0886,0.1146,0.1447,0.1745,0.2132,0.247,0.276,0.3052,0.3343,0.3709,0.3991,0.4317,0.4677,0.5035,0.5342,0.5568,0.5746,0.5997,0.621,0.638,0.6587,0.6785,0.7059,0.7258,0.7422,0.7616,0.7845,0.8079,0.8302,0.8466,0.8579,0.8726,0.8952,0.9064,0.9234,0.9423,0.9559,0.969,0.9932,1.009,1.0209,1.0312,1.0456,1.0596,1.0745,1.0889,1.103,0.0,0.0,0.0,-0.5862,-0.6076,-0.6423,-0.6709,-0.6928,-0.7218,-0.751,-0.7734,-0.7869,-0.7869,-0.778,-0.768,-0.7577,-0.7424,-0.7268,-0.7122,-0.6962,-0.6804,-0.6778,-0.6626,-0.6541,-0.6387,-0.6225,-0.6048,-0.5938,-0.5765,-0.559,-0.5481,-0.5318,-0.5153,-0.4932,-0.4771,-0.467,-0.4513,-0.4303,-0.4206,-0.4111,-0.4071,-0.4084,-0.4043,-0.4055,-0.4062,-0.4072,-0.4029,-0.404,-0.3991,-0.399,-0.3995,-0.3999,-0.3958,-0.3647,-0.334,-0.3034,-0.2781,-0.2534,-0.2239,-0.1907,-0.1626,-0.13,-0.1025,-0.0797,-0.0483,-0.0174,0.0173,0.0474,0.0816,0.1154,0.1531,0.1821,0.2151,0.2434,0.2797,0.3163,0.3488,0.3841,0.4194,0.4508,0.4769,0.5022,0.5192,0.5438,0.5652,0.5852,0.6049,0.6295,0.6531,0.6695,0.6925,0.7115,0.7309,0.7531,0.7741,0.7884,0.8067,0.821,0.8368,0.8538,0.8717,0.8852,0.9028,0.9179,0.9335,0.9541,0.9655,0.9786,0.9936,1.007,1.0243,1.0381,-0.6753,-0.704,-0.7334,-0.7565,-0.7855,-0.8163,-0.84,-0.864,-0.8952,-0.9202,-0.9442,-0.9466,-0.9472,-0.9384,-0.9225,-0.9003,-0.8788,-0.8632,-0.8424,-0.8206,-0.8052,-0.79,-0.7753,-0.7549,-0.7398,-0.7172,-0.7035,-0.6847,-0.6661,-0.6533,-0.6406,-0.6222,-0.6099,-0.5923,-0.5741,-0.5627,-0.5457,-0.5286,-0.5118,-0.5064,-0.5067,-0.5013,-0.5011,-0.5008,-0.5008,-0.5054,-0.5,-0.4997,-0.4988,-0.5023,-0.5011,-0.4999,-0.4946,-0.4675,-0.441,-0.41,-0.3797,-0.3543,-0.3247,-0.2955,-0.2625,-0.2341,-0.206,-0.1829,-0.1513,-0.1159,-0.0852,-0.0508,-0.0211,0.0168,0.0543,0.0874,0.1201,0.1524,0.1885,0.2204,0.256,0.2913,0.3303,0.361,0.3905,0.4161,0.4331,0.4576,0.4828,0.5028,0.523,0.5468,0.5708,0.594,0.6131,0.6356,0.6549,0.6776,0.6984,0.7157,0.734,0.744,0.7622,0.78,0.7946,0.8114,0.8312,0.8428,0.8605,0.884,0.8941,0.9081,0.9198,0.936,0.953,0.9665,-0.8367,-0.8604,-0.885,-0.916,-0.9412,-0.9679,-0.9936,-1.0126,-1.0388,-1.0652,-1.0912,-1.0954,-1.0911,-1.0748,-1.0543,-1.0209,-1.0056,-0.9839,-0.9623,-0.9414,-0.9212,-0.8935,-0.8728,-0.8579,-0.8442,-0.8215,-0.7994,-0.7859,-0.7719,-0.7571,-0.7424,-0.716,-0.7027,-0.689,-0.675,-0.6615,-0.6436,-0.6246,-0.6121,-0.6052,-0.6045,-0.6032,-0.6009,-0.6045,-0.6028,-0.6015,-0.5996,-0.5981,-0.596,-0.5937,-0.5955,-0.593,-0.5955,-0.5678,-0.5405,-0.5139,-0.4832,-0.4525,-0.4266,-0.3971,-0.3639,-0.3348,-0.3107,-0.2824,-0.2553,-0.2198,-0.1845,-0.1499,-0.1242,-0.0825,-0.0452,-0.0123,0.0244,0.0606,0.0926,0.1281,0.1593,0.1981,0.2325,0.2662,0.292,0.3178,0.3426,0.3671,0.3958,0.4125,0.4323,0.4596,0.4872,0.5138,0.5322,0.5546,0.5808,0.5996,0.6203,0.6412,0.6553,0.6662,0.687,0.703,0.716,0.7342,0.7559,0.7675,0.7859,0.808,0.8211,0.8337,0.8493,0.8622,0.8746,0.8907,-0.9513,-0.9698,-0.995,-1.0205,-1.0395,-1.054,-1.0794,-1.0997,-1.1193,-1.1399,-1.1599,-1.1699,-1.1722,-1.1573,-1.1362,-1.1158,-1.0948,-1.0808,-1.0592,-1.0453,-1.0252,-1.0037,-0.9893,-0.9749,-0.955,-0.9388,-0.9154,-0.8996,-0.8851,-0.8695,-0.8476,-0.8312,-0.8109,-0.796,-0.7806,-0.7659,-0.747,-0.7321,-0.7185,-0.7097,-0.702,-0.7001,-0.702,-0.6992,-0.6969,-0.6994,-0.6962,-0.6929,-0.6943,-0.6913,-0.687,-0.6884,-0.6844,-0.6608,-0.6336,-0.6067,-0.5795,-0.5483,-0.5263,-0.4963,-0.4625,-0.4376,-0.4084,-0.3842,-0.3561,-0.3243,-0.289,-0.2543,-0.2242,-0.1866,-0.1452,-0.1122,-0.0837,-0.0475,-0.0118,0.0235,0.0546,0.097,0.1311,0.1648,0.1942,0.2196,0.2445,0.2727,0.2971,0.3213,0.3414,0.3645,0.3909,0.4178,0.4398,0.4661,0.4914,0.5124,0.5323,0.5546,0.5688,0.5819,0.6017,0.6185,0.638,0.6529,0.6704,0.6903,0.7065,0.7241,0.7419,0.7602,0.7731,0.7828,0.792,0.8093,-1.0577,-1.0768,-1.0968,-1.1162,-1.1298,-1.1427,-1.1633,-1.184,-1.198,-1.2121,-1.2325,-1.2357,-1.2443,-1.2303,-1.2163,-1.2015,-1.1876,-1.1674,-1.1535,-1.1458,-1.1313,-1.1174,-1.1029,-1.0823,-1.0754,-1.0589,-1.0342,-1.0177,-1.0007,-0.9787,-0.9613,-0.9499,-0.9227,-0.9065,-0.8897,-0.8677,-0.8471,-0.8316,-0.822,-0.8119,-0.8082,-0.7992,-0.801,-0.797,-0.7934,-0.794,-0.7896,-0.7897,-0.7904,-0.7855,-0.7811,-0.7767,-0.7766,-0.7518,-0.7242,-0.7012,-0.6736,-0.6463,-0.6236,-0.5933,-0.5591,-0.5374,-0.5123,-0.483,-0.4581,-0.43,-0.3946,-0.3595,-0.3293,-0.2911,-0.2534,-0.2163,-0.1876,-0.1552,-0.1156,-0.0767,-0.0458,-0.0076,0.0302,0.0637,0.0931,0.1183,0.1469,0.1751,0.1994,0.2268,0.2505,0.2736,0.2967,0.3229,0.3484,0.3739,0.403,0.4229,0.4456,0.4684,0.4823,0.4989,0.5149,0.5341,0.5566,0.5715,0.5881,0.6099,0.628,0.6423,0.6626,0.6842,0.6948,0.7042,0.7122,0.7289,-1.1685,-1.1825,-1.1966,-1.2108,-1.2242,-1.2377,-1.2512,-1.2725,-1.2802,-1.2888,-1.3079,-1.3122,-1.3157,-1.307,-1.293,-1.2799,-1.2652,-1.2574,-1.2444,-1.2367,-1.2221,-1.216,-1.2083,-1.1954,-1.1877,-1.1761,-1.1516,-1.1331,-1.1156,-1.0967,-1.0722,-1.0544,-1.0318,-1.0143,-0.9969,-0.979,-0.9504,-0.9336,-0.9228,-0.912,-0.9121,-0.9076,-0.8974,-0.892,-0.8914,-0.8914,-0.8856,-0.8804,-0.8791,-0.8782,-0.8719,-0.8707,-0.8708,-0.8445,-0.8158,-0.7896,-0.7657,-0.7421,-0.7189,-0.6916,-0.6571,-0.6348,-0.6092,-0.5828,-0.5579,-0.5288,-0.4966,-0.4654,-0.4345,-0.3996,-0.3618,-0.3206,-0.2876,-0.255,-0.2118,-0.1767,-0.1456,-0.1112,-0.0737,-0.0366,-0.0036,0.0252,0.0502,0.0747,0.1024,0.1298,0.1569,0.1836,0.2066,0.2327,0.2615,0.2902,0.3152,0.3418,0.3678,0.3826,0.4,0.4199,0.433,0.4516,0.4726,0.4868,0.5034,0.5279,0.545,0.5593,0.5818,0.5992,0.6151,0.6286,0.6415,0.6488,-1.2773,-1.2855,-1.2937,-1.3077,-1.3217,-1.3299,-1.3441,-1.3514,-1.3607,-1.369,-1.3814,-1.387,-1.3837,-1.3819,-1.3689,-1.3629,-1.3542,-1.3404,-1.3404,-1.3326,-1.3239,-1.3239,-1.3179,-1.3051,-1.3033,-1.2912,-1.2663,-1.2466,-1.227,-1.2068,-1.1875,-1.1627,-1.1437,-1.1257,-1.107,-1.0822,-1.0585,-1.0387,-1.0214,-1.0102,-1.0097,-1.0033,-0.9918,-0.9909,-0.9889,-0.9867,-0.9852,-0.9741,-0.9722,-0.9701,-0.966,-0.9634,-0.9615,-0.9354,-0.9104,-0.8831,-0.8587,-0.8345,-0.8148,-0.7878,-0.7604,-0.734,-0.7072,-0.6815,-0.6554,-0.6296,-0.6003,-0.5681,-0.5369,-0.5055,-0.4675,-0.4219,-0.3886,-0.3558,-0.3157,-0.2801,-0.2451,-0.2105,-0.1731,-0.1324,-0.103,-0.074,-0.049,-0.0208,0.0069,0.0342,0.0611,0.0912,0.1207,0.1465,0.1751,0.2032,0.2279,0.2578,0.2837,0.295,0.3157,0.3363,0.3488,0.3676,0.3881,0.4083,0.4249,0.4463,0.4642,0.4806,0.5002,0.5191,0.5321,0.5479,0.5639,0.5712,-1.3845,-1.3879,-1.3948,-1.4084,-1.423,-1.4263,-1.4285,-1.4354,-1.4443,-1.4474,-1.4543,-1.4582,-1.4612,-1.4553,-1.4543,-1.4553,-1.4415,-1.4336,-1.4336,-1.4317,-1.4248,-1.4248,-1.4248,-1.4179,-1.417,-1.4112,-1.3842,-1.3631,-1.3356,-1.3149,-1.2953,-1.2693,-1.2545,-1.2343,-1.2142,-1.189,-1.1693,-1.1478,-1.1242,-1.1117,-1.1041,-1.0973,-1.0904,-1.0873,-1.0886,-1.0859,-1.083,-1.0763,-1.0675,-1.064,-1.056,-1.0512,-1.0504,-1.0246,-1.0033,-0.9831,-0.958,-0.9323,-0.9078,-0.8844,-0.8653,-0.8312,-0.8046,-0.7807,-0.7578,-0.736,-0.7022,-0.6688,-0.6372,-0.6054,-0.5702,-0.5244,-0.4908,-0.4572,-0.4235,-0.3873,-0.3484,-0.3098,-0.272,-0.2316,-0.2016,-0.1724,-0.1438,-0.1154,-0.0909,-0.0634,-0.0331,0.0033,0.0326,0.0582,0.0868,0.1148,0.1453,0.1719,0.1976,0.2098,0.2276,0.251,0.267,0.2856,0.3067,0.3293,0.3514,0.3648,0.3853,0.4051,0.4225,0.4397,0.4526,0.4689,0.4838,0.4966,-1.4957,-1.4977,-1.4942,-1.5028,-1.5169,-1.5132,-1.516,-1.5178,-1.5194,-1.5221,-1.5316,-1.5289,-1.5262,-1.5273,-1.532,-1.532,-1.5252,-1.5252,-1.532,-1.5299,-1.5289,-1.5299,-1.5299,-1.5358,-1.5347,-1.5284,-1.5012,-1.4788,-1.4556,-1.4335,-1.406,-1.3842,-1.3626,-1.3464,-1.3197,-1.2984,-1.2772,-1.2502,-1.2293,-1.2155,-1.2066,-1.1975,-1.1903,-1.1858,-1.182,-1.178,-1.1738,-1.1659,-1.1603,-1.1555,-1.1516,-1.1453,-1.1346,-1.1113,-1.0904,-1.0687,-1.0481,-1.0308,-1.0046,-0.9807,-0.9609,-0.9335,-0.9093,-0.8845,-0.8618,-0.8346,-0.8049,-0.7746,-0.7411,-0.7088,-0.6696,-0.6272,-0.5927,-0.5586,-0.5238,-0.4832,-0.4442,-0.4088,-0.3705,-0.3366,-0.3032,-0.2703,-0.241,-0.2124,-0.1875,-0.1533,-0.1229,-0.0899,-0.0604,-0.0347,-0.0031,0.0279,0.0554,0.0851,0.1111,0.1297,0.1509,0.1682,0.188,0.2066,0.2245,0.2472,0.2721,0.2827,0.3028,0.3274,0.3492,0.3663,0.3798,0.3904,0.4051,0.4184,-1.6042,-1.6004,-1.5976,-1.6013,-1.6027,-1.604,-1.6008,-1.6032,-1.5987,-1.5963,-1.6052,-1.5982,-1.5947,-1.6016,-1.6073,-1.6119,-1.613,-1.621,-1.6279,-1.6325,-1.6313,-1.6325,-1.6393,-1.6462,-1.6508,-1.644,-1.6156,-1.5919,-1.5684,-1.545,-1.5217,-1.4932,-1.4755,-1.4514,-1.4287,-1.4009,-1.3784,-1.355,-1.3328,-1.3177,-1.3063,-1.2969,-1.2933,-1.2894,-1.2821,-1.2687,-1.2633,-1.262,-1.2505,-1.2444,-1.2446,-1.2338,-1.2206,-1.2031,-1.1805,-1.158,-1.141,-1.1229,-1.0999,-1.0793,-1.055,-1.0337,-1.0088,-0.988,-0.9626,-0.9384,-0.9091,-0.8782,-0.8468,-0.8103,-0.7735,-0.73,-0.695,-0.6598,-0.6208,-0.5833,-0.5435,-0.5071,-0.4714,-0.4373,-0.4037,-0.3673,-0.3371,-0.3083,-0.2795,-0.2453,-0.2115,-0.1815,-0.1517,-0.1227,-0.0913,-0.0604,-0.0299,-0.003,0.0262,0.0514,0.0702,0.0854,0.1083,0.1276,0.1456,0.1685,0.1905,0.2039,0.2245,0.2486,0.2729,0.2946,0.3075,0.3175,0.3277,0.341,-1.7114,-1.7082,-1.6996,-1.6962,-1.6993,-1.6957,-1.6908,-1.6858,-1.6764,-1.6736,-1.6695,-1.6685,-1.672,-1.6789,-1.6913,-1.6993,-1.7061,-1.7073,-1.7142,-1.7267,-1.7311,-1.7392,-1.7404,-1.7529,-1.761,-1.7605,-1.7341,-1.7091,-1.6842,-1.6528,-1.6282,-1.6049,-1.5806,-1.5551,-1.531,-1.5059,-1.4759,-1.4522,-1.4299,-1.4135,-1.4008,-1.3902,-1.39,-1.3837,-1.3772,-1.3673,-1.3592,-1.3565,-1.3504,-1.3399,-1.3309,-1.323,-1.3108,-1.2927,-1.2734,-1.2515,-1.2313,-1.2086,-1.1938,-1.1726,-1.1504,-1.1245,-1.1065,-1.0898,-1.0683,-1.0422,-1.015,-0.9823,-0.9475,-0.9096,-0.8722,-0.8343,-0.7936,-0.7578,-0.7208,-0.6861,-0.6494,-0.6051,-0.5689,-0.5339,-0.5021,-0.4682,-0.4349,-0.399,-0.3641,-0.3356,-0.3044,-0.2678,-0.2382,-0.2088,-0.1746,-0.1407,-0.1132,-0.086,-0.0565,-0.0332,-0.0136,0.0027,0.0262,0.0487,0.0725,0.0907,0.1106,0.1316,0.1518,0.1713,0.1958,0.2175,0.2322,0.2451,0.2549,0.2662,-1.8187,-1.8096,-1.799,-1.7962,-1.788,-1.7851,-1.774,-1.7695,-1.7583,-1.7494,-1.7403,-1.7441,-1.7478,-1.7558,-1.7694,-1.783,-1.791,-1.7991,-1.8047,-1.8171,-1.8294,-1.8431,-1.8513,-1.8595,-1.8732,-1.8735,-1.8513,-1.8249,-1.7986,-1.7646,-1.7386,-1.7101,-1.6883,-1.6627,-1.636,-1.6044,-1.578,-1.553,-1.5306,-1.5117,-1.5035,-1.4916,-1.4901,-1.4824,-1.4701,-1.459,-1.4509,-1.4497,-1.4381,-1.4306,-1.4216,-1.4123,-1.4029,-1.3867,-1.3667,-1.3481,-1.3245,-1.3049,-1.2892,-1.2711,-1.2469,-1.2241,-1.2052,-1.1901,-1.1715,-1.1457,-1.119,-1.0867,-1.05,-1.015,-0.9758,-0.9316,-0.8937,-0.8607,-0.8228,-0.7875,-0.7495,-0.7102,-0.6693,-0.6332,-0.5983,-0.5665,-0.5289,-0.4927,-0.4571,-0.4281,-0.3961,-0.3593,-0.326,-0.2964,-0.2594,-0.2251,-0.1947,-0.1669,-0.1398,-0.1155,-0.0946,-0.072,-0.0504,-0.0296,-0.0048,0.0141,0.0322,0.0561,0.079,0.0986,0.1212,0.1407,0.1558,0.1705,0.1826,0.1922,-1.9266,-1.9167,-1.9053,-1.8913,-1.881,-1.8706,-1.8615,-1.8522,-1.8401,-1.8293,-1.8142,-1.814,-1.8233,-1.8314,-1.8449,-1.8543,-1.8747,-1.887,-1.8993,-1.9115,-1.9252,-1.9471,-1.9677,-1.9759,-1.9897,-1.991,-1.9672,-1.9341,-1.9065,-1.8777,-1.8504,-1.8218,-1.7897,-1.7628,-1.7397,-1.7116,-1.6802,-1.6552,-1.6336,-1.612,-1.6036,-1.5932,-1.5845,-1.5755,-1.562,-1.5541,-1.5446,-1.5377,-1.525,-1.5162,-1.5155,-1.5088,-1.5019,-1.4756,-1.4548,-1.4395,-1.4189,-1.3985,-1.382,-1.3646,-1.3414,-1.3251,-1.309,-1.2893,-1.2698,-1.2517,-1.224,-1.1918,-1.1531,-1.1174,-1.0809,-1.0346,-0.9959,-0.961,-0.9223,-0.8896,-0.8499,-0.814,-0.7745,-0.7305,-0.6952,-0.6626,-0.6276,-0.5901,-0.5563,-0.523,-0.4904,-0.4526,-0.4162,-0.3804,-0.3453,-0.3114,-0.2776,-0.2491,-0.2211,-0.1981,-0.1705,-0.1438,-0.1283,-0.1066,-0.0835,-0.0657,-0.0463,-0.0236,0.0042,0.0327,0.0476,0.0637,0.081,0.0939,0.1065,0.1234,-2.0362,-2.0202,-2.0026,-1.9916,-1.9768,-1.9617,-1.9466,-1.9365,-1.9182,-1.8999,-1.8841,-1.8843,-1.8884,-1.9085,-1.9234,-1.9436,-1.9586,-1.9789,-1.9979,-2.0115,-2.028,-2.05,-2.0706,-2.0843,-2.0996,-2.1005,-2.073,-2.0478,-2.0189,-1.9887,-1.96,-1.93,-1.9016,-1.8733,-1.8437,-1.8142,-1.7816,-1.7524,-1.7308,-1.7078,-1.701,-1.6912,-1.6811,-1.6708,-1.6603,-1.6511,-1.6417,-1.6306,-1.6192,-1.6118,-1.607,-1.599,-1.5882,-1.5705,-1.5474,-1.5275,-1.5115,-1.4941,-1.4767,-1.4572,-1.4342,-1.4222,-1.4052,-1.3897,-1.3692,-1.3489,-1.3232,-1.2915,-1.2572,-1.2195,-1.1795,-1.1381,-1.0973,-1.0571,-1.0207,-0.9861,-0.9488,-0.9109,-0.8737,-0.831,-0.7961,-0.7599,-0.7203,-0.6843,-0.647,-0.6124,-0.5764,-0.5391,-0.5016,-0.4649,-0.4263,-0.3917,-0.3631,-0.3287,-0.2969,-0.2772,-0.2533,-0.2254,-0.2083,-0.1872,-0.1622,-0.1388,-0.118,-0.0965,-0.0718,-0.0465,-0.0226,-0.0055,0.0071,0.0209,0.0357,0.0515,-2.145,-2.123,-2.1043,-2.0887,-2.0729,-2.0504,-2.0292,-2.0182,-1.9952,-1.9707,-1.9594,-1.9518,-1.9575,-1.979,-2.0059,-2.0275,-2.0478,-2.0696,-2.0952,-2.1119,-2.1285,-2.1574,-2.1727,-2.1864,-2.2102,-2.2162,-2.1858,-2.1607,-2.1341,-2.0973,-2.0673,-2.0424,-2.0077,-1.9781,-1.9503,-1.9209,-1.8869,-1.8547,-1.8257,-1.8044,-1.7934,-1.7882,-1.7768,-1.7694,-1.7549,-1.7486,-1.7379,-1.723,-1.7144,-1.7055,-1.6963,-1.6845,-1.6742,-1.6595,-1.641,-1.6205,-1.6058,-1.5928,-1.5745,-1.5527,-1.5327,-1.5198,-1.5018,-1.489,-1.4711,-1.4498,-1.4251,-1.3958,-1.3571,-1.3222,-1.2826,-1.2403,-1.1957,-1.1578,-1.1191,-1.0836,-1.0456,-1.0115,-0.972,-0.9315,-0.8958,-0.8565,-0.8162,-0.7795,-0.7406,-0.7051,-0.6686,-0.6272,-0.5894,-0.5513,-0.5123,-0.4766,-0.4443,-0.4062,-0.3735,-0.3564,-0.3332,-0.3062,-0.2868,-0.2658,-0.2392,-0.2137,-0.1917,-0.1689,-0.1468,-0.1236,-0.0945,-0.0744,-0.0639,-0.0492,-0.0337,-0.0187,-2.2483,-2.2301,-2.2069,-2.1852,-2.1667,-2.1397,-2.1176,-2.0988,-2.0749,-2.0525,-2.0268,-2.0226,-2.0322,-2.0552,-2.082,-2.1104,-2.1321,-2.1607,-2.1826,-2.2098,-2.2319,-2.254,-2.2778,-2.3,-2.3293,-2.3295,-2.2995,-2.2731,-2.2466,-2.2118,-2.1789,-2.1477,-2.1134,-2.0808,-2.0467,-2.0207,-1.9901,-1.9596,-1.9292,-1.9017,-1.8911,-1.8829,-1.8718,-1.8589,-1.8532,-1.8415,-1.8337,-1.8215,-1.8132,-1.8006,-1.7845,-1.7715,-1.7621,-1.7466,-1.729,-1.7152,-1.6977,-1.6822,-1.672,-1.6547,-1.6374,-1.6201,-1.6012,-1.5858,-1.5721,-1.5533,-1.533,-1.5011,-1.4645,-1.4236,-1.3847,-1.3479,-1.3021,-1.2585,-1.2217,-1.1854,-1.1436,-1.1084,-1.0721,-1.032,-0.9912,-0.951,-0.9127,-0.8739,-0.8342,-0.7979,-0.7622,-0.7219,-0.6823,-0.6409,-0.6055,-0.5633,-0.5203,-0.4849,-0.4545,-0.436,-0.4132,-0.3866,-0.3624,-0.3374,-0.3153,-0.292,-0.267,-0.2404,-0.218,-0.1966,-0.169,-0.1454,-0.1322,-0.1163,-0.1012,-0.0911,-2.3599,-2.3354,-2.3059,-2.283,-2.2599,-2.2351,-2.2119,-2.1869,-2.1635,-2.1384,-2.1097,-2.1043,-2.1141,-2.1423,-2.1722,-2.2006,-2.2225,-2.2511,-2.2798,-2.3087,-2.3325,-2.3615,-2.3907,-2.4148,-2.4441,-2.4527,-2.4179,-2.3918,-2.3639,-2.3259,-2.2915,-2.2589,-2.2217,-2.1894,-2.1556,-2.1218,-2.0927,-2.0564,-2.0291,-2.0001,-1.9865,-1.9745,-1.9622,-1.9539,-1.9412,-1.9324,-1.9251,-1.906,-1.8965,-1.8866,-1.8709,-1.8567,-1.8424,-1.8298,-1.8152,-1.8006,-1.7861,-1.7697,-1.7587,-1.7406,-1.7295,-1.7097,-1.6918,-1.6788,-1.6642,-1.6548,-1.6268,-1.5939,-1.5582,-1.5178,-1.4811,-1.4447,-1.4057,-1.3625,-1.3245,-1.2869,-1.2454,-1.2089,-1.17,-1.1305,-1.0929,-1.0503,-1.0125,-0.9699,-0.9281,-0.8896,-0.8492,-0.8108,-0.7706,-0.73,-0.6913,-0.6474,-0.6032,-0.5665,-0.5378,-0.5153,-0.4905,-0.4633,-0.4398,-0.4141,-0.391,-0.3675,-0.3403,-0.3148,-0.2902,-0.2667,-0.238,-0.215,-0.1988,-0.1832,-0.1681,-0.1573,-2.4687,-2.4427,-2.4136,-2.3874,-2.3648,-2.3337,-2.3074,-2.2811,-2.2498,-2.2218,-2.1986,-2.1953,-2.2003,-2.2252,-2.2602,-2.2904,-2.319,-2.3477,-2.3765,-2.4089,-2.4465,-2.4706,-2.5017,-2.5311,-2.5624,-2.5759,-2.5397,-2.5054,-2.4744,-2.4366,-2.399,-2.3652,-2.3333,-2.2997,-2.2644,-2.2274,-2.1905,-2.1556,-2.1226,-2.1,-2.0809,-2.0617,-2.0543,-2.0448,-2.0332,-2.025,-2.0107,-1.9886,-1.974,-1.9649,-1.9555,-1.9383,-1.9192,-1.9057,-1.894,-1.8769,-1.8651,-1.8499,-1.8327,-1.8208,-1.8108,-1.7935,-1.7782,-1.7662,-1.7593,-1.7471,-1.7214,-1.6863,-1.6465,-1.6065,-1.57,-1.5406,-1.5035,-1.4633,-1.4288,-1.3901,-1.3501,-1.3106,-1.2733,-1.2365,-1.1948,-1.1553,-1.1148,-1.0697,-1.0202,-0.9782,-0.9394,-0.8975,-0.859,-0.8224,-0.7732,-0.7276,-0.6864,-0.6542,-0.6238,-0.5942,-0.5673,-0.54,-0.5193,-0.497,-0.4692,-0.4405,-0.4137,-0.3944,-0.3673,-0.3364,-0.3073,-0.2848,-0.2684,-0.2525,-0.2376,-0.2212,-2.5725,-2.5494,-2.5234,-2.5022,-2.4761,-2.453,-2.4269,-2.4008,-2.3777,-2.3466,-2.3221,-2.3207,-2.3308,-2.3561,-2.3882,-2.4236,-2.4493,-2.4782,-2.5023,-2.535,-2.568,-2.5992,-2.6306,-2.657,-2.6886,-2.6949,-2.6574,-2.62,-2.5827,-2.5466,-2.5095,-2.4745,-2.4357,-2.3926,-2.3605,-2.3178,-2.2752,-2.2372,-2.2074,-2.1794,-2.1574,-2.1391,-2.1269,-2.1105,-2.0978,-2.0867,-2.0695,-2.0464,-2.0327,-2.0223,-2.0062,-1.9844,-1.966,-1.9573,-1.943,-1.9307,-1.9182,-1.9091,-1.8899,-1.8773,-1.8647,-1.852,-1.8392,-1.8328,-1.8199,-1.8069,-1.7836,-1.7522,-1.7119,-1.6791,-1.6435,-1.6102,-1.5762,-1.5444,-1.5072,-1.4685,-1.4367,-1.3987,-1.3604,-1.3304,-1.2902,-1.2506,-1.2064,-1.1621,-1.1101,-1.0681,-1.0284,-0.9869,-0.9485,-0.907,-0.864,-0.8187,-0.773,-0.7372,-0.7051,-0.6764,-0.6468,-0.6178,-0.5936,-0.5667,-0.5368,-0.5093,-0.4812,-0.4529,-0.4222,-0.3911,-0.3644,-0.341,-0.323,-0.3073,-0.2922,-0.2746,-2.6783,-2.6533,-2.6398,-2.6186,-2.5955,-2.5705,-2.5475,-2.5215,-2.4966,-2.4736,-2.4524,-2.4512,-2.4616,-2.4891,-2.5216,-2.5542,-2.5802,-2.6063,-2.6356,-2.6619,-2.6952,-2.7256,-2.7573,-2.784,-2.8109,-2.8169,-2.7762,-2.7355,-2.6902,-2.6546,-2.6144,-2.5781,-2.5362,-2.4943,-2.4545,-2.4105,-2.3648,-2.3255,-2.2906,-2.2614,-2.2403,-2.2191,-2.1998,-2.1823,-2.1665,-2.1466,-2.1245,-2.106,-2.0911,-2.0779,-2.0532,-2.034,-2.0126,-2.0032,-1.9937,-1.984,-1.9743,-1.9611,-1.9466,-1.9334,-1.9244,-1.9078,-1.8974,-1.8974,-1.8816,-1.8688,-1.8477,-1.8185,-1.7794,-1.7527,-1.7212,-1.6821,-1.6518,-1.6217,-1.5863,-1.5539,-1.5243,-1.4871,-1.4528,-1.426,-1.3872,-1.3463,-1.3011,-1.2565,-1.2083,-1.1651,-1.1202,-1.0801,-1.0367,-0.9979,-0.9559,-0.9104,-0.8636,-0.8248,-0.7875,-0.7616,-0.7292,-0.6993,-0.6706,-0.6425,-0.6095,-0.5831,-0.5537,-0.5168,-0.4867,-0.4561,-0.428,-0.4056,-0.3872,-0.3731,-0.3602,-0.3414,-2.7845,-2.764,-2.7457,-2.7301,-2.7118,-2.6915,-2.6665,-2.6434,-2.6252,-2.605,-2.5849,-2.584,-2.5898,-2.6177,-2.6506,-2.6788,-2.7119,-2.7384,-2.7678,-2.7945,-2.8233,-2.8542,-2.8812,-2.9082,-2.9375,-2.9453,-2.9011,-2.857,-2.8103,-2.7665,-2.7203,-2.6789,-2.629,-2.5859,-2.5493,-2.502,-2.4592,-2.4144,-2.376,-2.3377,-2.3116,-2.2935,-2.2691,-2.2504,-2.2276,-2.2086,-2.1873,-2.1696,-2.1499,-2.128,-2.1059,-2.0836,-2.0611,-2.0578,-2.0475,-2.036,-2.0201,-2.0128,-2.0021,-1.9944,-1.9813,-1.968,-1.959,-1.952,-1.9436,-1.9246,-1.9078,-1.8807,-1.8465,-1.8196,-1.79,-1.76,-1.7312,-1.6999,-1.6709,-1.6424,-1.6158,-1.585,-1.5519,-1.5257,-1.486,-1.444,-1.4001,-1.3591,-1.3142,-1.2651,-1.2171,-1.1763,-1.1338,-1.0898,-1.0488,-1.0059,-0.9596,-0.9157,-0.8784,-0.8519,-0.8181,-0.783,-0.7538,-0.7231,-0.6861,-0.6612,-0.6331,-0.5964,-0.5666,-0.5401,-0.5072,-0.4819,-0.4663,-0.4555,-0.4431,-0.4207,-2.8908,-2.875,-2.8613,-2.8435,-2.8231,-2.8074,-2.785,-2.7667,-2.7485,-2.7262,-2.7154,-2.7174,-2.7235,-2.7519,-2.7804,-2.809,-2.8377,-2.8693,-2.8962,-2.9253,-2.9545,-2.9789,-3.0083,-3.0329,-3.0674,-3.0702,-3.0224,-2.9748,-2.9316,-2.875,-2.83,-2.7851,-2.7338,-2.6893,-2.647,-2.5964,-2.5481,-2.5,-2.4584,-2.4209,-2.3937,-2.3684,-2.3469,-2.3231,-2.3007,-2.2785,-2.2525,-2.23,-2.2072,-2.1843,-2.1624,-2.1369,-2.1111,-2.109,-2.0981,-2.0838,-2.0758,-2.0655,-2.0549,-2.0494,-2.0399,-2.0257,-2.0166,-2.0119,-2.0025,-1.9878,-1.9729,-1.9477,-1.9175,-1.8923,-1.8694,-1.8412,-1.8112,-1.7835,-1.7585,-1.7335,-1.7084,-1.6762,-1.6487,-1.6238,-1.5872,-1.5441,-1.5036,-1.4613,-1.4194,-1.3694,-1.3201,-1.2757,-1.2319,-1.1888,-1.1442,-1.1023,-1.059,-1.0148,-0.9735,-0.946,-0.9112,-0.8786,-0.8479,-0.814,-0.7791,-0.7491,-0.7227,-0.6872,-0.6588,-0.6305,-0.6037,-0.5813,-0.5659,-0.5581,-0.5503,-0.5314,-2.9993,0.0,-2.977,-2.9589,-2.9388,-2.9162,0.0,-2.8941,-2.8758,-2.8555,-2.8424,-2.8492,-2.8627,-2.889,-2.9132,-2.9397,-2.9624,-2.9895,-3.021,-3.0526,-3.0866,-3.1093,-3.1391,-3.1663,-3.1941,-3.1923,-3.1431,-3.0963,-3.0473,-2.9894,-2.9363,-2.888,-2.8397,-2.7938,-2.746,-2.6898,-2.636,-2.5867,-2.5418,-2.5031,-2.4747,-2.4523,-2.4177,-2.3944,-2.3766,-2.3519,-2.3262,-2.2933,-2.2673,-2.2424,-2.2215,-2.1926,-2.1612,-2.1606,-2.149,-2.1381,-2.1324,-2.1242,-2.1126,-2.1032,-2.1012,-2.0861,-2.0767,-2.0746,-2.0642,-2.0504,-2.0428,-2.0216,-1.9926,-1.9714,-1.9477,-1.9186,-1.8923,-1.8685,-1.8495,-1.828,-1.7992,-1.7704,-1.7464,-1.727,-1.6915,-1.6447,-1.6051,-1.5637,-1.5206,-1.4778,-1.4313,-1.3769,-1.3318,-1.2915,-1.2494,-1.206,-1.1595,-1.1174,-1.0758,-1.0413,-1.0127,-0.988,-0.9501,-0.9166,-0.8852,-0.8521,-0.8211,-0.7925,-0.7632,-0.7346,-0.7207,-0.7058,-0.6877,-0.6818,-0.6805,-0.6687,0.0,-3.0921,-3.0877,-3.0741,-3.0584,-3.0427,-3.0292,-3.0158,0.0,-2.9866,-2.9732,-2.98,-2.9936,-3.0158,-3.0427,-3.0743,-3.0948,-3.1222,-3.1495,-3.1815,-3.209,-3.2368,-3.2645,-3.2993,-3.3249,-3.3228,-3.2699,-3.2125,-3.1622,-3.1075,-3.0531,-2.9989,-2.9471,-2.8911,-2.8399,-2.7844,-2.7273,-2.6765,-2.628,-2.588,-2.5586,-2.529,-2.4971,-2.471,-2.4498,-2.4196,-2.3893,-2.3543,-2.3306,-2.3066,-2.2767,-2.2465,-2.2185,-2.2126,-2.2042,-2.1901,-2.1859,-2.1784,-2.172,-2.1676,-2.1653,-2.1493,-2.1412,-2.1384,-2.1298,-2.1234,-2.1143,-2.0921,-2.0673,-2.0476,-2.0251,-2.0051,-1.9825,-1.9598,-1.9369,-1.9141,-1.8912,-1.8682,-1.8475,-1.8313,-1.7942,-1.7509,-1.7118,-1.6667,-1.6224,-1.5826,-1.5387,-1.4917,-1.4448,-1.3989,-1.3532,-1.3122,-1.2698,-1.2257,-1.1858,-1.1515,-1.1219,-1.0923,-1.0609,-1.0311,-0.999,-0.9661,-0.9361,-0.9101,-0.8859,-0.8637,-0.8494,-0.8391,-0.8291,-0.8251,-0.8224,-0.8261,-3.2146,-3.2054,-3.1986,-3.1826,-3.1712,-3.1598,-3.1485,-3.1394,-3.1257,-3.1166,-3.1075,-3.1121,-3.1234,-3.1508,-3.1782,-3.2058,-3.2288,-3.2588,-3.2866,-3.3075,-3.3331,-3.3635,-3.3964,-3.427,-3.4506,-3.4506,-3.3986,-3.3328,-3.2767,-3.2274,-3.1716,-3.1117,-3.0495,-2.9899,-2.9352,-2.8785,-2.822,-2.7675,-2.7176,-2.6703,-2.6374,-2.6045,-2.5738,-2.5479,-2.5182,-2.4882,-2.4545,-2.4194,0.0,-2.3683,-2.3357,-2.3035,-2.272,-2.2661,-2.2591,-2.2501,-2.2451,-2.2369,-2.2323,-2.2269,-2.224,-2.2124,-2.2033,-2.2046,-2.2003,-2.1904,-2.1828,-2.1647,-2.1388,-2.1228,-2.1043,-2.0883,-2.0693,-2.0501,-2.0281,-2.004,-1.9851,-1.9701,-1.9549,-1.9346,-1.901,-1.858,-1.8153,-1.7735,-1.7301,-1.6909,-1.6481,-1.6056,-1.5573,-1.5094,-1.4682,-1.4257,-1.3835,-1.3412,-1.3027,-1.2689,-1.2381,-1.2071,-1.1784,-1.151,-1.1237,-1.0918,-1.0636,-1.0428,-1.0263,-1.009,-0.9946,-0.9899,-0.9855,-0.9847,-0.9857,-1.0021,-3.3285,-3.3168,-3.3074,-3.2957,-3.284,-3.2769,-3.2721,-3.2559,-3.251,-3.2461,-3.2389,-3.241,-3.2502,-3.2873,-3.3107,-3.3412,-3.3621,-3.388,-3.4186,-3.4446,-3.4661,-3.4946,-3.5254,-3.5494,-3.5735,-3.5758,-3.5201,-3.4622,-3.3999,-3.3422,-3.2828,-3.2236,-3.1623,-3.1013,-3.0387,-2.9783,-2.9181,-2.8582,-2.8032,-2.7547,-2.7161,-2.6835,-2.6507,-2.6199,-2.589,-2.5554,-2.5183,-2.4867,-2.4558,-2.4238,-2.3922,-2.3573,-2.3269,-2.323,-2.3182,-2.3131,-2.3076,-2.3018,-2.2932,-2.2868,-2.2801,-2.2757,-2.2683,-2.2684,-2.2629,-2.257,-2.248,-2.234,-2.2121,-2.2025,-2.1903,-2.171,-2.153,-2.1374,-2.1161,-2.0979,-2.0801,-2.0707,-2.0588,-2.0398,-2.007,-1.9666,-1.9245,-1.8815,-1.8396,-1.7982,-1.7579,-1.7169,-1.6762,-1.6304,-1.5913,-1.5489,-1.5017,-1.4669,-1.4312,-1.3961,-1.3615,-1.3281,-1.3037,-1.2776,-1.251,-1.228,-1.2097,-1.1887,-1.1735,-1.1619,-1.153,-1.1477,-1.1535,-1.1576,-1.1629,-1.1759,-3.4357,-3.426,-3.4186,-3.4112,-3.4062,-3.4032,-3.3957,-3.3836,-3.3829,-3.3753,-3.372,-3.374,-3.3833,-3.4141,-3.445,-3.4646,-3.4927,-3.5214,-3.5481,-3.5699,-3.5963,-3.6228,-3.6543,-3.6835,-3.7056,-3.7031,-3.6415,-3.5797,-3.5206,-3.4547,-3.3958,-3.3287,-3.2702,-3.2078,-3.1375,-3.0758,-3.0118,-2.9506,-2.8945,-2.8399,-2.8039,-2.77,-2.7298,-2.6956,-2.66,-2.6263,-2.5888,-2.5561,-2.5207,-2.4882,-2.4553,-2.4191,-2.3851,-2.3777,-2.3749,-2.3714,-2.3679,-2.3614,-2.3571,-2.3497,-2.3446,-2.3391,-2.3358,-2.3348,-2.3306,-2.3259,-2.3208,-2.3055,-2.2879,-2.2795,-2.2707,-2.2527,-2.2411,-2.2236,-2.2086,-2.1932,-2.1813,-2.1703,-2.157,-2.1464,-2.1142,-2.0725,-2.0319,-1.9896,-1.9487,-1.9105,-1.8706,-1.8303,-1.7903,-1.7522,-1.7131,-1.671,-1.6258,-1.5923,-1.5603,-1.527,-1.4924,-1.4644,-1.4386,-1.4137,-1.3922,-1.3727,-1.3549,-1.3388,-1.3283,-1.3198,-1.3139,-1.316,-1.3257,-1.3297,-1.3414,-1.3518,-3.5434,-3.538,-3.5254,-3.5316,-3.5308,-3.525,-3.5171,-3.5117,-3.5076,-3.5039,-3.4958,-3.5045,-3.5208,-3.5452,-3.5697,-3.5943,-3.6164,-3.6429,-3.6727,-3.6994,-3.7217,-3.7485,-3.7805,-3.8152,-3.8377,-3.8371,-3.7697,-3.702,-3.639,-3.5718,-3.5023,-3.4331,-3.3734,-3.3072,-3.2397,-3.1791,-3.1124,-3.0449,-2.9826,-2.9293,-2.892,-2.858,-2.8141,-2.7786,-2.7395,-2.7069,-2.6689,-2.6267,-2.5906,-2.5567,-2.5221,-2.485,-2.4447,-2.4388,-2.4325,-2.4309,-2.4292,-2.4242,-2.4215,-2.4157,-2.4119,-2.4079,-2.4058,-2.4007,-2.398,-2.3949,-2.3937,-2.3823,-2.3639,-2.3586,-2.3485,-2.3418,-2.3231,-2.3091,-2.3026,-2.2938,-2.2857,-2.2703,-2.2563,-2.2474,-2.2189,-2.1788,-2.1389,-2.0973,-2.0619,-2.0207,-1.9843,-1.9433,-1.9055,-1.8675,-1.8317,-1.7943,-1.76,-1.7232,-1.6907,-1.6594,-1.6319,-1.6064,-1.581,-1.5572,-1.5385,-1.5203,-1.5047,-1.4953,-1.4856,-1.4791,-1.4773,-1.4828,-1.4935,-1.5022,-1.5108,-1.5231,-3.6494,-3.6481,-3.6422,-3.6432,-3.6441,-3.6398,-3.636,-3.6365,-3.6325,-3.6327,-3.6285,-3.6372,-3.6509,-3.6759,-3.7009,-3.7259,-3.7484,-3.7762,-3.8084,-3.8336,-3.8589,-3.8816,-3.907,-3.9422,-3.9677,-3.9624,-3.8932,-3.8242,-3.7572,-3.6844,-3.6178,-3.5447,-3.4796,-3.4095,-3.3398,-3.2728,-3.2049,-3.136,-3.0751,-3.0242,-2.9805,-2.9356,-2.894,-2.8573,-2.8212,-2.784,-2.7382,-2.6954,-2.6612,-2.626,-2.585,-2.544,-2.5053,-2.4983,-2.4937,-2.494,-2.4912,-2.4932,-2.4919,-2.4848,-2.48,-2.4772,-2.4762,-2.4699,-2.4706,-2.4708,-2.463,-2.4526,-2.4427,-2.4338,-2.4254,-2.4156,-2.4106,-2.4051,-2.3954,-2.3903,-2.3818,-2.368,-2.3587,-2.3509,-2.3228,-2.2834,-2.2455,-2.206,-2.1714,-2.1307,-2.0947,-2.0588,-2.0246,-1.9889,-1.9532,-1.9192,-1.8838,-1.8512,-1.8228,-1.7977,-1.7676,-1.7412,-1.7211,-1.7055,-1.689,-1.6725,-1.658,-1.652,-1.6456,-1.6436,-1.638,-1.6434,-1.6542,-1.6644,-1.6721,-1.6735,-3.7578,-3.7587,-3.7569,-3.7621,-3.76,-3.7552,-3.7572,-3.7572,-3.7571,-3.7612,-3.7608,-3.7693,-3.7831,-3.8085,-3.834,-3.8595,-3.8835,-3.9091,-3.9417,-3.9631,-3.9915,-4.0173,-4.0431,-4.069,-4.0931,-4.0877,-4.0146,-3.9461,-3.8735,-3.8011,-3.729,-3.6571,-3.5882,-3.5168,-3.4418,-3.371,-3.3019,-3.2279,-3.1669,-3.1148,-3.0698,-3.0245,-2.9816,-2.9385,-2.901,-2.8568,-2.813,-2.7662,-2.7306,-2.6942,-2.6495,-2.607,-2.5669,-2.559,-2.5561,-2.558,-2.5595,-2.5576,-2.5577,-2.5547,-2.5516,-2.547,-2.5447,-2.5395,-2.5434,-2.5443,-2.5322,-2.5257,-2.5188,-2.5126,-2.503,-2.4943,-2.4961,-2.4962,-2.4883,-2.4789,-2.4726,-2.467,-2.4614,-2.4554,-2.4278,-2.3873,-2.3485,-2.313,-2.2791,-2.242,-2.2065,-2.1742,-2.1404,-2.11,-2.0745,-2.044,-2.0123,-1.9828,-1.9571,-1.9323,-1.9087,-1.8833,-1.8662,-1.8501,-1.8375,-1.8221,-1.8122,-1.8064,-1.8021,-1.8036,-1.7972,-1.7969,-1.8094,-1.8146,-1.8157,-1.8117,-3.869,-3.867,-3.8693,-3.8741,-3.8786,-3.8777,-3.8791,-3.89,-3.8868,-3.8877,-3.8856,-3.9008,-3.9173,-3.9418,-3.9677,-3.9937,-4.0209,-4.0497,-4.0758,-4.0977,-4.1266,-4.1511,-4.1774,-4.1993,-4.2256,-4.2129,-4.143,-4.0688,-3.9949,-3.92,-3.8466,-3.7735,-3.7006,-3.6252,-3.5514,-3.4765,-3.41,-3.3284,-3.2598,-3.2101,-3.1638,-3.1146,-3.0712,-3.0208,-2.9735,-2.9318,-2.8897,-2.8443,-2.8016,-2.7587,-2.7152,-2.6713,-2.6272,-2.6237,-2.6224,-2.626,-2.6261,-2.623,-2.619,-2.6201,-2.623,-2.6169,-2.6132,-2.6097,-2.6091,-2.6128,-2.6056,-2.5999,-2.5958,-2.5916,-2.5891,-2.5813,-2.5804,-2.579,-2.5718,-2.5692,-2.5679,-2.5613,-2.5543,-2.5548,-2.5279,-2.4883,-2.4517,-2.4184,-2.3851,-2.3552,-2.3219,-2.2867,-2.2581,-2.2301,-2.2002,-2.1715,-2.1428,-2.1178,-2.0918,-2.0667,-2.0477,-2.0333,-2.0121,-1.9975,-1.9835,-1.9761,-1.9683,-1.9599,-1.953,-1.9503,-1.9505,-1.9519,-1.9532,-1.951,-1.9437,-1.938,-3.9741,-3.9808,-3.9827,-3.9915,-3.9973,-3.9959,-4.0011,-4.0116,-4.0121,-4.0193,-4.0194,-4.0331,-4.0524,-4.0816,-4.1039,-4.1261,-4.1581,-4.1832,-4.2055,-4.232,-4.2543,-4.2822,-4.3089,-4.3312,-4.3535,-4.3451,-4.2695,-4.1914,-4.115,-4.0373,-3.9599,-3.8868,-3.8126,-3.736,-3.6568,-3.5807,-3.5076,-3.4284,-3.3621,-3.3022,-3.2519,-3.2075,-3.1594,-3.111,-3.0596,-3.0139,-2.9677,-2.9182,-2.8742,-2.8299,-2.785,-2.7371,-2.6944,-2.6897,-2.687,-2.6923,-2.6913,-2.6842,-2.6843,-2.6859,-2.6874,-2.6861,-2.6833,-2.6818,-2.6827,-2.6817,-2.6784,-2.6765,-2.671,-2.6709,-2.6692,-2.6638,-2.6646,-2.6633,-2.6599,-2.6578,-2.6601,-2.6522,-2.6487,-2.6511,-2.6281,-2.5926,-2.5551,-2.5258,-2.4931,-2.4624,-2.433,-2.4048,-2.3788,-2.3492,-2.3243,-2.2993,-2.2755,-2.2538,-2.2318,-2.208,-2.1922,-2.1773,-2.1612,-2.1439,-2.1306,-2.1246,-2.1171,-2.1094,-2.1029,-2.0961,-2.0946,-2.0892,-2.0869,-2.0726,-2.0634,-2.0555,-4.0796,-4.0904,-4.0947,-4.1048,-4.1145,-4.1168,-4.1258,-4.133,-4.14,-4.1467,-4.1559,-4.1734,-4.1872,-4.2168,-4.2396,-4.2652,-4.2936,-4.3122,-4.3349,-4.3577,-4.3804,-4.4059,-4.4358,-4.4628,-4.4885,-4.4784,-4.396,-4.3152,-4.2332,-4.16,-4.0814,-4.0013,-3.9232,-3.8453,-3.7658,-3.6846,-3.6039,-3.5335,-3.4604,-3.3937,-3.3421,-3.293,-3.2498,-3.2002,-3.1447,-3.0977,-3.0474,-2.9968,-2.9515,-2.9058,-2.8596,-2.8129,-2.7602,-2.7567,-2.7558,-2.7595,-2.7573,-2.7544,-2.7576,-2.7555,-2.7506,-2.7554,-2.7585,-2.7595,-2.7556,-2.7491,-2.7483,-2.7452,-2.7481,-2.7456,-2.7461,-2.746,-2.7472,-2.748,-2.7468,-2.7449,-2.7488,-2.7478,-2.7465,-2.7448,-2.7223,-2.6888,-2.6587,-2.6287,-2.602,-2.5731,-2.5464,-2.5209,-2.4941,-2.4731,-2.4507,-2.4305,-2.4116,-2.3943,-2.3717,-2.3516,-2.3343,-2.3176,-2.3052,-2.2904,-2.2813,-2.2713,-2.2597,-2.2529,-2.2462,-2.2339,-2.2259,-2.2172,-2.2077,-2.1925,-2.1744,-2.1615,-3.9818,-3.992,-3.9975,-4.0043,-4.0064,-4.011,-4.0208,-4.0287,-4.0323,-4.0396,-4.0493,-4.0679,-4.0882,-4.1178,-4.1435,-4.1789,-4.2103,-4.2388,-4.2673,-4.293,-4.3228,-4.3584,-4.387,-4.4227,-4.4513,-4.4485,-4.3727,-4.2943,-4.216,-4.1463,-4.074,-3.9979,-3.923,-3.8445,-3.77,-3.6984,-3.6234,-3.5493,-3.4782,-3.4162,-3.3608,-3.3107,-3.2577,-3.2103,-3.1595,-3.1115,-3.0573,-3.0027,-2.9536,-2.9068,-2.8568,-2.8065,-2.7555,-2.7509,-2.7484,-2.7504,-2.744,-2.74,-2.7358,-2.7346,-2.7253,-2.7277,-2.7312,-2.7292,-2.7238,-2.7176,-2.7157,-2.7162,-2.7228,-2.7257,-2.7329,-2.7363,-2.7425,-2.7482,-2.752,-2.7533,-2.7553,-2.7589,-2.7656,-2.7706,-2.7517,-2.7268,-2.7042,-2.6851,-2.6635,-2.6444,-2.6251,-2.6033,-2.5824,-2.5686,-2.5536,-2.536,-2.5219,-2.5032,-2.4823,-2.468,-2.4473,-2.4299,-2.4122,-2.3983,-2.3842,-2.3709,-2.3558,-2.3416,-2.3267,-2.3132,-2.3007,-2.2837,-2.2648,-2.2513,-2.2351,-2.2115,-3.8745,-3.8815,-3.8907,-3.89,-3.8958,-3.9039,-3.9129,-3.9186,-3.9188,-3.9253,-3.9324,-3.9534,-3.9828,-4.0086,-4.0438,-4.0792,-4.1203,-4.1547,-4.193,-4.2286,-4.2613,-4.2998,-4.3384,-4.3799,-4.4145,-4.4158,-4.3425,-4.2664,-4.1934,-4.1244,-4.0611,-3.9903,-3.9148,-3.8424,-3.7736,-3.7042,-3.6412,-3.5662,-3.4971,-3.4376,-3.3839,-3.3269,-3.27,-3.2216,-3.1757,-3.1179,-3.0626,-3.01,-2.9596,-2.9061,-2.8526,-2.7985,-2.7469,-2.7436,-2.737,-2.7341,-2.7289,-2.7228,-2.7171,-2.7114,-2.7017,-2.7045,-2.705,-2.696,-2.6908,-2.6848,-2.6795,-2.6851,-2.6986,-2.7065,-2.7137,-2.7265,-2.736,-2.7449,-2.7532,-2.7622,-2.7658,-2.7772,-2.7868,-2.7985,-2.7913,-2.7737,-2.7586,-2.748,-2.7337,-2.7211,-2.7085,-2.6867,-2.6766,-2.6664,-2.6535,-2.6467,-2.637,-2.6197,-2.5972,-2.5814,-2.5605,-2.5395,-2.5161,-2.499,-2.4853,-2.4679,-2.4491,-2.4242,-2.4054,-2.388,-2.3676,-2.3462,-2.3214,-2.306,-2.2839,-2.2525,-3.7634,-3.7699,-3.7759,-3.7829,-3.7894,-3.7968,-3.8051,-3.8128,-3.8096,-3.8136,-3.8208,-3.842,-3.8739,-3.9111,-3.9493,-3.9912,-4.0324,-4.0764,-4.1177,-4.1591,-4.2054,-4.2469,-4.2875,-4.332,-4.3748,-4.3777,-4.311,-4.2442,-4.1736,-4.1098,-4.0497,-3.9829,-3.9155,-3.8452,-3.7814,-3.7148,-3.6506,-3.584,-3.5203,-3.4601,-3.4054,-3.3506,-3.2895,-3.2342,-3.1815,-3.1226,-3.0637,-3.013,-2.9586,-2.9067,-2.8464,-2.7942,-2.7471,-2.7319,-2.7212,-2.717,-2.7149,-2.7086,-2.7065,-2.695,-2.6856,-2.6803,-2.6757,-2.6699,-2.663,-2.6583,-2.6544,-2.6633,-2.6783,-2.6941,-2.7058,-2.7167,-2.7292,-2.7458,-2.7618,-2.7807,-2.7954,-2.8095,-2.8265,-2.843,-2.8409,-2.8334,-2.8286,-2.8172,-2.8037,-2.8016,-2.7929,-2.7805,-2.7739,-2.7709,-2.7582,-2.7543,-2.7509,-2.7369,-2.7202,-2.6947,-2.6711,-2.6474,-2.6205,-2.5974,-2.5773,-2.5592,-2.5364,-2.5089,-2.4829,-2.4582,-2.4265,-2.401,-2.3797,-2.3539,-2.3225,-2.2824,-3.6583,-3.6657,-3.6698,-3.6761,-3.6818,-3.687,-3.6944,-3.7014,-3.6985,-3.6988,-3.7086,-3.7321,-3.7635,-3.8138,-3.8548,-3.9024,-3.9501,-4.0009,-4.0443,-4.0924,-4.1406,-4.1889,-4.2403,-4.2879,-4.3367,-4.3396,-4.282,-4.2138,-4.1524,-4.0918,-4.034,-3.976,-3.9115,-3.8465,-3.7849,-3.7268,-3.6623,-3.6039,-3.5423,-3.4869,-3.4283,-3.3695,-3.3075,-3.2482,-3.1915,-3.1317,-3.0716,-3.0143,-2.9618,-2.9034,-2.8476,-2.7945,-2.7463,-2.7292,-2.7186,-2.7129,-2.7031,-2.6954,-2.6904,-2.6824,-2.67,-2.6615,-2.6566,-2.6505,-2.6398,-2.6327,-2.6351,-2.6485,-2.6679,-2.6866,-2.7047,-2.7184,-2.7396,-2.7626,-2.7822,-2.8038,-2.8311,-2.8551,-2.8784,-2.9061,-2.9075,-2.906,-2.9087,-2.904,-2.8931,-2.8913,-2.8895,-2.8802,-2.8764,-2.8761,-2.8746,-2.8694,-2.8656,-2.8541,-2.8391,-2.8072,-2.7821,-2.7563,-2.7266,-2.6966,-2.6735,-2.6451,-2.6158,-2.5849,-2.5557,-2.5276,-2.4931,-2.4599,-2.433,-2.3999,-2.361,-2.3142,-3.5577,-3.5618,-3.5693,-3.5722,-3.5707,-3.5725,-3.5802,-3.588,-3.588,-3.5874,-3.5954,-3.6217,-3.6624,-3.7126,-3.7658,-3.8162,-3.8697,-3.9233,-3.98,-4.0274,-4.0815,-4.1336,-4.1879,-4.2425,-4.2942,-4.3098,-4.2508,-4.1889,-4.127,-4.0723,-4.0203,-3.9676,-3.9054,-3.8432,-3.7932,-3.7346,-3.6724,-3.6221,-3.5687,-3.5092,-3.4466,-3.3838,-3.321,-3.2605,-3.2027,-3.1419,-3.0778,-3.019,-2.9605,-2.9017,-2.842,-2.7925,-2.7464,-2.7344,-2.7222,-2.7088,-2.6975,-2.6838,-2.6771,-2.6692,-2.6583,-2.6513,-2.6427,-2.6342,-2.6194,-2.6113,-2.6227,-2.64,-2.667,-2.6873,-2.7081,-2.7363,-2.761,-2.792,-2.8159,-2.8437,-2.8773,-2.9111,-2.9478,-2.977,-2.9896,-2.9919,-2.9972,-2.9993,-2.9944,-2.9926,-2.9945,-2.9889,-2.9869,-2.9853,-2.987,-2.989,-2.9872,-2.9712,-2.9512,-2.9201,-2.8933,-2.8625,-2.834,-2.8011,-2.7715,-2.7294,-2.6936,-2.6595,-2.6273,-2.5929,-2.5525,-2.5161,-2.4822,-2.4413,-2.398,-2.3423,-3.4484,-3.4493,-3.4586,-3.462,-3.4646,-3.4656,-3.4697,-3.4765,-3.4798,-3.4816,-3.4795,-3.5113,-3.5513,-3.6043,-3.6602,-3.7193,-3.779,-3.839,-3.8986,-3.962,-4.0197,-4.0799,-4.1373,-4.1985,-4.2555,-4.2748,-4.2191,-4.1663,-4.1068,-4.0543,-4.0046,-3.9517,-3.9012,-3.8476,-3.8002,-3.7495,-3.6926,-3.6476,-3.5933,-3.5359,-3.4692,-3.4024,-3.3441,-3.2827,-3.2211,-3.1562,-3.0941,-3.0335,-2.9739,-2.9141,-2.8554,-2.7994,-2.746,-2.7335,-2.7187,-2.7039,-2.6949,-2.6827,-2.6729,-2.6616,-2.6505,-2.6413,-2.6321,-2.624,-2.6117,-2.606,-2.6176,-2.6422,-2.6764,-2.697,-2.7284,-2.7635,-2.7968,-2.8256,-2.8668,-2.9036,-2.9404,-2.9844,-3.0269,-3.0724,-3.087,-3.0886,-3.0936,-3.095,-3.0965,-3.0982,-3.0998,-3.0973,-3.0984,-3.0995,-3.1006,-3.1056,-3.107,-3.093,-3.0715,-3.039,-3.006,-2.965,-2.9309,-2.8961,-2.8568,-2.8163,-2.7743,-2.734,-2.6996,-2.6628,-2.6158,-2.571,-2.5275,-2.4837,-2.4323,-2.3703,-3.3397,-3.3437,-3.3497,-3.3559,-3.3613,-3.3588,-3.3626,-3.3712,-3.3706,-3.3719,-3.3725,-3.4005,-3.4395,-3.5013,-3.5663,-3.6253,-3.6941,-3.7536,-3.8191,-3.8887,-3.9587,-4.022,-4.0919,-4.1562,-4.2165,-4.2416,-4.189,-4.1421,-4.0886,-4.0414,-3.9909,-3.9403,-3.8957,-3.8536,-3.8085,-3.7569,-3.7112,-3.6653,-3.6191,-3.5638,-3.4962,-3.4251,-3.3624,-3.303,-3.2403,-3.1718,-3.108,-3.0493,-2.9856,-2.9216,-2.8648,-2.8045,-2.7489,-2.7349,-2.7198,-2.7072,-2.6951,-2.6847,-2.6729,-2.658,-2.6492,-2.6392,-2.629,-2.6197,-2.6108,-2.6073,-2.6222,-2.6501,-2.6867,-2.7178,-2.7559,-2.7968,-2.8359,-2.8734,-2.9244,-2.9671,-3.0128,-3.0626,-3.1143,-3.1717,-3.1887,-3.1899,-3.1943,-3.1987,-3.2033,-3.2042,-3.205,-3.2094,-3.2136,-3.2178,-3.2183,-3.2225,-3.2266,-3.2117,-3.1929,-3.1548,-3.1125,-3.0698,-3.0262,-2.9819,-2.9449,-2.8986,-2.8544,-2.8122,-2.7682,-2.7254,-2.6718,-2.6199,-2.5745,-2.5267,-2.4671,-2.3942,-3.2395,-3.2439,-3.2474,-3.2492,-3.2475,-3.2581,-3.2548,-3.254,-3.2611,-3.2643,-3.2611,-3.2914,-3.3389,-3.4064,-3.4713,-3.5425,-3.6079,-3.6798,-3.7485,-3.8177,-3.8901,-3.9692,-4.0393,-4.1096,-4.1767,-4.2078,-4.164,-4.1164,-4.0687,-4.0238,-3.9787,-3.9306,-3.8881,-3.8516,-3.8118,-3.7685,-3.725,-3.6876,-3.6436,-3.5931,-3.524,-3.4547,-3.3883,-3.3216,-3.2547,-3.1883,-3.121,-3.0611,-2.9955,-2.9326,-2.8746,-2.8162,-2.7625,-2.7389,-2.721,-2.7136,-2.703,-2.6906,-2.6735,-2.6579,-2.6529,-2.6432,-2.633,-2.6209,-2.6151,-2.6191,-2.6332,-2.663,-2.7008,-2.7465,-2.7946,-2.8359,-2.8843,-2.9349,-2.9837,-3.0357,-3.0903,-3.1484,-3.2049,-3.2675,-3.2871,-3.295,-3.299,-3.3067,-3.3106,-3.3106,-3.3106,-3.3181,-3.3294,-3.3369,-3.3366,-3.3363,-3.3437,-3.3318,-3.312,-3.2647,-3.2208,-3.173,-3.1243,-3.0749,-3.0313,-2.9832,-2.9344,-2.8875,-2.8374,-2.7809,-2.7223,-2.6674,-2.6171,-2.5627,-2.4992,-2.4174,-3.1398,-3.1409,-3.1445,-3.1429,-3.1412,-3.1506,-3.1501,-3.1455,-3.1515,-3.1568,-3.1495,-3.1846,-3.2313,-3.3045,-3.3811,-3.4551,-3.5295,-3.6041,-3.6792,-3.7514,-3.8269,-3.9091,-3.9852,-4.065,-4.1388,-4.1759,-4.1344,-4.0893,-4.0442,-4.0079,-3.9652,-3.9223,-3.8884,-3.848,-3.8134,-3.7755,-3.7371,-3.708,-3.669,-3.6147,-3.5472,-3.4799,-3.4093,-3.3415,-3.2727,-3.2053,-3.1392,-3.0704,-3.0068,-2.9481,-2.8858,-2.8294,-2.7746,-2.7549,-2.7371,-2.7212,-2.7117,-2.6986,-2.6823,-2.6705,-2.658,-2.653,-2.6411,-2.6319,-2.6287,-2.6361,-2.6567,-2.688,-2.7314,-2.7865,-2.8386,-2.8891,-2.9385,-2.994,-3.0481,-3.1087,-3.1683,-3.2344,-3.2953,-3.3591,-3.3851,-3.3923,-3.4033,-3.4105,-3.4138,-3.4171,-3.4204,-3.4274,-3.4382,-3.4451,-3.452,-3.4551,-3.4621,-3.4497,-3.425,-3.373,-3.3242,-3.275,-3.2177,-3.1666,-3.1139,-3.0607,-3.0101,-2.9581,-2.8987,-2.8323,-2.7727,-2.714,-2.6587,-2.5978,-2.5257,-2.4485,-3.0407,-3.0446,-3.0413,-3.037,-3.0377,-3.0401,0.0,-3.0368,-3.0418,-3.0428,-3.0399,-3.074,-3.1229,-3.2015,-3.2838,-3.3694,-3.4496,-3.5272,-3.6082,-3.6897,-3.7684,-3.8474,-3.933,-4.0222,-4.0989,-4.1394,-4.1033,-4.0639,-4.0241,-3.9903,-3.9499,-3.9186,-3.8808,-3.8458,-3.8164,-3.7868,-3.7538,-3.7294,-3.6925,-3.6368,-3.5687,-3.5003,-3.4317,-3.3597,-3.2898,-3.2227,-3.1585,-3.0886,-3.0259,-2.9659,-2.9036,-2.8447,-2.7918,-2.7739,-2.7576,-2.7379,-2.7226,-2.71,-2.7036,-2.6891,-2.6728,-2.6625,-2.6535,-2.644,-2.6483,-2.6617,-2.6837,-2.7246,-2.773,-2.8314,-2.8919,-2.9436,-3.0011,-3.0536,-3.1201,-3.1853,-3.2453,-3.3156,-3.3811,-3.4456,-3.4742,-3.4887,-3.5032,-3.5105,-3.5136,-3.5167,-3.5273,-3.5368,-3.547,-3.5496,-3.5643,-3.571,-3.5777,-3.5647,-3.5398,-3.4837,-3.4266,-3.3762,-3.3131,-3.2535,-3.1928,-3.1386,-3.0824,-3.0203,-2.9558,-2.8849,-2.8203,-2.7588,-2.7024,-2.6332,-2.5547,-2.4775,0.0,0.0,0.0,0.0,0.0,0.0,0.0,-2.9391,-2.9373,-2.9313,-2.9297,-2.9654,-3.0218,-3.1062,-3.1911,-3.2795,-3.3654,-3.446,-3.5388,-3.6264,-3.7082,-3.7935,-3.876,-3.9683,-4.0578,-4.1013,-4.0676,-4.0368,-4.0025,-3.9772,-3.9423,-3.9131,-3.8837,-3.8568,-3.824,-3.7996,-3.7747,-3.7521,-3.7111,-3.664,-3.594,-3.5213,-3.4484,-3.3786,-3.3052,-3.2457,-3.1803,-3.1127,-3.0475,-2.9868,-2.9233,-2.8664,-2.814,-2.7908,-2.7708,-2.7537,-2.7376,-2.7252,-2.7187,-2.7098,-2.6938,-2.6857,-2.6787,-2.67,-2.6724,-2.6829,-2.7125,-2.7572,-2.8142,-2.8732,-2.9343,-2.9979,-3.0599,-3.1205,-3.1874,-3.253,-3.3247,-3.3957,-3.462,-3.5313,-3.5628,-3.5802,-3.5872,-3.5974,-3.6082,-3.6195,-3.6345,-3.6442,-3.6538,-3.6602,-3.6709,-3.6815,-3.6928,-3.6792,-3.6498,-3.5854,-3.5234,-3.4605,-3.4049,-3.3408,-3.2766,-3.2163,-3.1509,-3.086,-3.0177,-2.9459,-2.8768,-2.8095,-2.741,-2.6665,-2.5815,-2.4985,0.0,0.0,0.0,0.0,0.0,0.0,0.0,0.0,0.0,0.0,0.0,-2.8614,-2.9198,0.0,-3.1001,-3.1883,-3.2798,-3.3719,-3.4648,-3.5555,-3.6496,-3.738,-3.8268,-3.9192,-4.0151,-4.0647,-4.0335,-4.0081,-3.9853,-3.9593,-3.933,-3.906,-3.8846,-3.8631,-3.8354,-3.8133,-3.7941,-3.773,-3.74,-3.6919,-3.6208,-3.547,-3.4697,-3.401,-3.3265,-3.2637,-3.1993,-3.1358,-3.0711,-3.0072,-2.9495,-2.8912,-2.8358,-2.8139,-2.7899,-2.7769,-2.7609,-2.747,-2.741,-2.7311,-2.7184,-2.7121,-2.7074,-2.6998,-2.7025,-2.7101,-2.7427,-2.791,-2.8522,-2.9151,-2.9765,-3.0516,-3.1175,-3.1821,-3.2491,-3.3185,-3.3952,-3.4664,-3.5373,-3.6077,-3.6424,-3.6634,-3.6702,-3.6844,-3.6986,-3.7187,-3.7344,-3.7442,-3.7547,-3.7651,-3.7756,-3.7905,-3.8025,-3.789,-3.759,-3.6901,-3.6195,-3.548,-3.4921,-3.4278,-3.3605,-3.2875,-3.2205,-3.1488,-3.0764,-3.0001,-2.9267,-2.8561,-2.7835,-2.6997,-2.6109,-2.5188,0.0,0.0,0.0,0.0,0.0,0.0,0.0,0.0,0.0,0.0,0.0,0.0,0.0,0.0,0.0,-3.1045,-3.2015,-3.2934,-3.3863,-3.4889,-3.589,-3.6838,-3.779,-3.8747,-3.9739,-4.0329,-4.007,-3.984,-3.9637,-3.9426,-3.9215,-3.8973,-3.8782,-3.8644,-3.8424,-3.8253,-3.8101,-3.7929,-3.7647,-3.7237,-3.6546,0.0,-3.5013,-3.4281,-3.3585,-3.2859,-3.2202,-3.1541,-3.0891,-3.024,-2.9685,-2.9106,-2.8571,-2.8363,-2.8211,-2.8025,-2.7883,-2.7761,-2.7651,-2.7536,-2.7501,-2.7422,-2.7352,-2.7359,-2.7386,-2.7412,0.0,-2.8282,-2.8889,-2.9556,-3.0206,-3.0914,-3.1607,-3.229,-3.308,-3.3786,-3.456,-3.5315,-3.6071,-3.6824,-3.7196,-3.7409,-3.7566,-3.7761,-3.79,-3.8104,-3.8261,-3.84,-3.8521,-3.8613,-3.8808,-3.8965,-3.9114,-3.9021,-3.8724,-3.7982,-3.7202,-3.6486,-3.5797,-3.5069,-3.4305,-3.3581,-3.2879,-3.2092,-3.1326,-3.0497,-2.9758,-2.8995,-2.8233,-2.741,-2.6443,-2.5413,0.0,0.0,0.0,0.0,0.0,0.0,0.0,0.0,0.0,0.0,0.0,0.0,0.0,0.0,0.0,0.0,-3.121,-3.222,-3.3175,-3.4264,-3.5329,-3.6306,-3.7292,-3.8314,-3.9341,-3.9991,-3.9786,-3.961,-3.9402,-3.9215,-3.9055,-3.8923,0.0,0.0,0.0,-3.8412,-3.8316,-3.8193,-3.7933,-3.7535,-3.6833,-3.6073,-3.5278,-3.4554,-3.3844,-3.3107,-3.2405,-3.1801,-3.1106,-3.0509,-2.994,-2.9378,-2.8844,-2.8675,-2.8523,-2.8308,-2.8205,-2.8035,-2.7906,0.0,0.0,-2.7721,-2.7687,-2.7733,-2.7672,-2.7712,-2.8013,-2.8554,-2.9229,-2.9893,-3.0577,-3.1318,-3.205,-3.2808,-3.3534,-3.4322,-3.5104,-3.591,-3.675,-3.7515,-3.7922,-3.8167,-3.8384,-3.8553,-3.8748,-3.8917,-3.916,-3.9318,-3.9451,-3.9631,-3.9837,-4.0006,-4.0164,0.0,-3.9778,-3.8991,-3.8167,-3.7381,-3.6608,-3.5847,-3.5074,-3.4277,-3.3467,-3.2702,-3.19,-3.1055,-3.0208,-2.9378,-2.8594,-2.7708,-2.6746,-2.5617,0.0,0.0,0.0,0.0,0.0,0.0,0.0,0.0,0.0,0.0,0.0,0.0,0.0,0.0,0.0,0.0,-3.0473,-3.1489,-3.253,-3.3622,-3.472,-3.5787,-3.6834,-3.786,-3.8985,-3.9666,-3.9421,-3.9301,-3.921,-3.9046,-3.891,-3.8852,-3.8732,-3.8616,-3.8562,-3.8585,-3.8547,-3.8461,-3.8246,-3.7836,-3.7122,-3.6351,-3.5558,-3.4788,-3.4066,-3.3371,-3.2708,-3.2039,-3.1433,-3.0789,-3.019,-2.9663,0.0,0.0,0.0,0.0,-2.8491,-2.8359,-2.8204,-2.8094,-2.8053,-2.804,-2.8036,-2.7996,-2.798,-2.7947,-2.8177,-2.8737,-2.9522,-3.0218,-3.094,-3.1658,-3.2426,-3.3186,-3.3992,-3.4749,-3.5575,-3.6485,-3.7348,-3.8164,-3.8594,0.0,-3.9119,-3.9317,-3.9489,-3.971,-3.9967,-4.0139,-4.0373,-4.0643,-4.0863,-4.1071,-4.1255,-4.1133,-4.0803,-4.0008,0.0,0.0,0.0,-3.6629,-3.5839,-3.496,0.0,0.0,0.0,-3.1609,-3.0659,-2.9764,0.0,0.0,-2.6987,-2.5866,0.0,0.0,0.0,0.0,0.0,0.0,0.0,0.0,0.0,0.0,0.0,0.0,0.0,0.0,0.0,0.0,-2.9633,-3.0641,-3.16,-3.2627,-3.3685,-3.4692,-3.5737,-3.6787,-3.7843,-3.8461,-3.8268,-3.8108,-3.801,-3.7928,-3.7816,-3.7691,-3.7628,-3.7561,-3.7499,-3.748,-3.74,-3.7371,-3.7203,-3.6838,-3.6151,-3.5427,-3.4735,-3.4057,-3.3411,-3.2741,-3.2083,-3.1538,-3.0972,-3.045,-2.9915,-2.942,-2.8941,-2.8768,-2.8587,-2.8447,-2.8274,-2.8144,-2.8026,-2.7913,-2.7797,-2.775,-2.7698,-2.76,-2.752,-2.7497,-2.775,-2.8228,-2.895,-2.9581,-3.0275,-3.1006,-3.1795,-3.2541,-3.3329,-3.4081,-3.482,-3.5706,-3.6543,-3.7348,-3.7834,-3.815,-3.8459,-3.8733,-3.9007,-3.9266,-3.9575,-3.9798,-4.0043,-4.0361,-4.067,-4.0966,-4.1189,-4.113,-4.0813,-3.9991,-3.9135,-3.8266,-3.7384,-3.654,-3.5711,-3.4862,-3.3979,-3.3147,-3.2321,-3.1466,0.0,0.0,0.0,0.0,0.0,0.0,0.0,0.0,0.0,0.0,0.0,0.0,0.0,0.0,0.0,0.0,0.0,0.0,0.0,0.0,0.0,0.0,0.0,0.0,-3.0686,-3.1649,-3.2617,-3.3583,-3.4593,-3.5578,-3.6541,-3.715,-3.6948,-3.6838,-3.6733,-3.6674,-3.6577,-3.642,-3.6381,-3.6338,-3.6325,-3.6241,-3.614,-3.6135,-3.599,-3.5651,-3.5063,-3.4419,-3.3805,-3.3222,-3.2633,-3.2004,-3.1419,-3.0897,-3.0418,-2.9982,-2.9576,-2.9088,-2.8636,-2.8479,-2.832,-2.8144,-2.801,-2.7845,-2.7693,-2.7574,-2.7454,-2.7361,-2.7219,-2.7059,-2.6956,-2.6909,-2.7111,-2.759,-2.8212,-2.8854,-2.9496,-3.0243,-3.0985,-3.1714,-3.2499,-3.3226,-3.3919,-3.4722,-3.555,-3.6384,-3.6843,-3.7208,-3.759,-3.7972,-3.8335,-3.8698,-3.9009,0.0,-3.9622,-3.9975,-4.0323,-4.0672,-4.1056,-4.0984,-4.0681,-3.9801,-3.8979,-3.8122,-3.7202,-3.6335,-3.549,-3.4666,-3.3794,-3.294,-3.2057,-3.1229,-3.0355,0.0,0.0,0.0,0.0,0.0,0.0,0.0,0.0,0.0,0.0,0.0,0.0,0.0,0.0,0.0,0.0,0.0,0.0,0.0,0.0,0.0,0.0,0.0,0.0,-3.0661,-3.1564,-3.2408,-3.3312,-3.4197,-3.5127,-3.5674,-3.5496,-3.5378,-3.529,-3.5221,-3.5115,-3.4961,-3.488,-3.485,-3.4794,-3.4722,-3.4644,-3.4648,-3.4527,-3.4246,-3.3719,-3.317,-3.2651,-3.2126,-3.1612,-3.1141,-3.0628,-3.0108,-2.9714,-2.9323,-2.8947,-2.8581,-2.8258,-2.8111,-2.7924,-2.7751,-2.7584,-2.7425,-2.7269,-2.7111,-2.6945,-2.68,-2.664,-2.6465,-2.6304,-2.6171,-2.6292,-2.6661,-2.7326,-2.7929,-2.8591,-2.9239,-2.993,-3.0621,-3.1388,-3.2072,-3.2815,-3.3542,-3.4296,-3.504,-3.5563,-3.5946,-3.6414,-3.6848,-3.7334,-3.7769,-3.8152,-3.8552,-3.8939,-3.9326,-3.9728,-4.0149,-4.0534,-4.0515,-4.0249,-3.9354,-3.8511,-3.7655,-3.6801,-3.5934,-3.5104,-3.426,-3.3453,-3.2615,-3.1748,-3.0867,-2.9989,0.0,0.0,0.0,0.0,0.0,0.0,0.0,0.0,0.0,0.0,0.0,0.0,0.0,0.0,0.0,0.0,0.0,0.0,0.0,0.0,0.0,0.0,0.0,0.0,0.0,0.0,-3.1216,-3.203,0.0,-3.371,-3.4189,-3.4025,-3.3899,-3.3803,-3.3757,-3.3621,-3.3481,-3.3392,-3.3385,-3.334,-3.3257,-3.3151,-3.3163,-3.3032,-3.2828,-3.2344,-3.1906,-3.1462,-3.1062,-3.0635,-3.0235,-2.9806,-2.9404,-2.9054,-2.8704,-2.8391,-2.8095,-2.7875,-2.7703,-2.7522,-2.7329,-2.713,-2.6968,-2.677,-2.6602,-2.6421,-2.6185,-2.6006,-2.5812,-2.559,-2.539,-2.5441,-2.5835,-2.6407,-2.6995,-2.7605,-2.8237,-2.8858,-2.9517,-3.0215,-3.0891,-3.1577,-3.2299,-3.2997,-3.3737,-3.4252,-3.4735,-3.5254,-3.5775,-3.6262,-3.6766,-3.7289,-3.7726,-3.8215,-3.8671,-3.9145,-3.9654,-4.0129,-4.0129,-3.99,-3.8986,-3.8144,-3.7306,-3.6434,-3.5584,-3.4736,-3.3892,-3.305,-3.2212,-3.1378,-3.0512,0.0,0.0,0.0,0.0,0.0,0.0,0.0,0.0,0.0,0.0,0.0,0.0,0.0,0.0,0.0,0.0,0.0,0.0,0.0,0.0,0.0,0.0,0.0,0.0,0.0,0.0,0.0,-3.0057,-3.0771,0.0,0.0,0.0,0.0,-3.2462,-3.2357,-3.2282,-3.2171,-3.201,-3.1945,-3.1928,-3.1925,-3.1814,-3.1734,-3.1684,-3.1594,-3.1362,-3.0985,-3.062,-3.0305,-2.9978,-2.9635,-2.9319,-2.9006,-2.8695,-2.842,-2.8144,-2.7901,-2.7663,-2.7455,-2.7264,-2.7094,-2.6872,-2.6672,-2.6469,-2.6262,-2.6041,-2.5849,-2.5594,-2.5357,-2.5107,-2.4818,-2.4583,0.0,0.0,-2.5544,-2.6036,-2.6621,-2.7205,-2.783,-2.8447,-2.9026,-2.9644,-3.0287,-3.0987,-3.1713,-3.2363,-3.2924,-3.3493,-3.4131,0.0,-3.5221,-3.5812,-3.6388,-3.6878,-3.7454,-3.8048,-3.8591,-3.9136,-3.9754,-3.9805,-3.9559,-3.8683,-3.7827,-3.6972,-3.6069,-3.5219,-3.439,-3.3512,-3.2671,-3.1817,-3.0999,0.0,0.0,0.0,0.0,0.0,0.0,0.0,0.0,0.0,0.0,0.0,0.0,0.0,0.0,0.0,0.0,0.0,0.0,0.0,0.0,0.0,0.0,0.0,0.0,0.0,0.0,-2.7542,-2.8202,-2.891,-2.9557,-3.0259,0.0,0.0,0.0,0.0,0.0,0.0,-3.0763,-3.0626,-3.057,-3.0509,-3.0479,-3.041,-3.0337,-3.0295,-3.0211,-3.0051,-2.9732,-2.942,-2.9157,-2.889,-2.8615,-2.8435,-2.8187,-2.7965,-2.7726,-2.752,-2.7345,-2.7135,-2.6951,-2.6764,-2.6562,-2.6374,-2.6128,-2.5918,-2.57,-2.5465,-2.5213,-2.4949,-2.466,-2.4353,-2.4039,0.0,0.0,0.0,0.0,-2.5081,-2.5629,-2.6166,-2.6735,-2.731,-2.7915,-2.851,-2.9111,-2.9706,-3.0361,-3.1009,-3.1615,-3.2215,-3.2903,-3.3594,0.0,-3.4876,-3.5467,-3.6045,-3.6687,-3.7351,-3.7963,-3.8631,-3.9265,-3.9388,-3.9196,-3.8309,-3.7456,-3.6639,-3.5738,-3.4874,-3.4029,-3.3206,-3.2402,-3.1531,0.0,0.0,0.0,0.0,0.0,0.0,0.0,0.0,0.0,0.0,0.0,0.0,0.0,0.0,0.0,0.0,0.0,0.0,0.0,0.0,0.0,0.0,0.0,0.0,0.0,0.0,0.0,-2.6553,-2.7126,-2.7772,-2.837,-2.8952,0.0,0.0,0.0,0.0,0.0,0.0,0.0,0.0,0.0,-2.9177,-2.912,-2.9008,-2.8941,-2.8923,-2.8861,-2.8752,-2.8539,-2.8284,-2.8058,-2.7858,-2.7671,-2.7554,-2.7425,-2.7221,-2.7051,-2.6912,-2.6765,-2.6645,0.0,0.0,0.0,0.0,-2.5579,-2.5321,-2.5124,-2.4871,-2.452,-2.4246,0.0,0.0,0.0,0.0,0.0,0.0,0.0,-2.4092,-2.4628,-2.5105,-2.5632,-2.6169,-2.6765,-2.7319,-2.785,-2.8424,-2.8991,-2.9605,-3.0287,-3.0989,-3.1706,-3.2414,0.0,0.0,0.0,-3.5259,-3.5919,-3.6649,-3.7368,-3.8102,-3.8805,-3.8983,-3.8832,-3.7965,-3.7135,-3.6307,-3.5442,-3.4548,-3.3671,-3.2889,-3.2125,0.0,0.0,0.0,0.0,0.0,0.0,0.0,0.0,0.0,0.0,0.0,0.0,0.0,0.0,0.0,0.0,0.0,0.0,0.0,0.0,0.0,0.0,0.0,0.0,0.0,0.0,0.0,0.0,0.0,-2.6047,-2.6656,0.0,0.0,0.0,0.0,0.0,0.0,0.0,0.0,0.0,0.0,0.0,0.0,0.0,-2.7737,-2.761,-2.7631,-2.7557,-2.7469,-2.7338,-2.7223,-2.7062,-2.6938,-2.6767,-2.6731,-2.6627,0.0,-2.6362,-2.6284,0.0,0.0,0.0,0.0,0.0,0.0,0.0,0.0,0.0,0.0,0.0,0.0,0.0,0.0,0.0,0.0,0.0,0.0,0.0,0.0,0.0,0.0,-2.4586,-2.5119,-2.5594,-2.606,-2.6555,-2.7107,-2.7621,-2.8139,-2.8873,-2.9633,0.0,0.0,0.0,0.0,0.0,0.0,-3.5286,-3.6046,-3.6797,-3.7552,-3.8364,-3.8597,-3.8517,-3.7676,-3.6816,-3.5904,-3.5118,-3.4246,-3.3378,-3.2581,0.0,0.0,0.0,0.0,0.0,0.0,0.0,0.0,0.0,0.0,0.0,0.0,0.0,0.0,0.0,0.0,0.0,0.0,0.0,0.0,0.0,0.0,0.0,0.0,0.0,0.0,0.0,0.0,0.0,0.0,0.0,0.0,0.0,0.0,0.0,0.0,0.0,0.0,0.0,0.0,0.0,0.0,0.0,0.0,0.0,0.0,0.0,0.0,0.0,0.0,-2.6231,-2.6144,-2.6104,-2.6015,-2.5923,-2.5936,-2.5854,-2.5768,-2.5729,-2.571,0.0,0.0,0.0,0.0,0.0,0.0,0.0,0.0,0.0,0.0,0.0,0.0,0.0,0.0,0.0,0.0,0.0,0.0,0.0,0.0,0.0,0.0,-2.35,-2.398,-2.4368,-2.483,-2.5303,0.0,0.0,0.0,0.0,0.0,0.0,0.0,0.0,0.0,0.0,0.0,-3.4534,-3.5378,-3.6249,-3.7091,-3.7936,-3.8259,-3.817,-3.7335,-3.6479,-3.5627,-3.4811,-3.4019,0.0,0.0,0.0,0.0,0.0,0.0,0.0,0.0,0.0,0.0,0.0,0.0,0.0,0.0,0.0,0.0,0.0,0.0,0.0,0.0,0.0,0.0,0.0,0.0,0.0,0.0,0.0,0.0,0.0,0.0,0.0,0.0,0.0,0.0,0.0,0.0,0.0,0.0,0.0,0.0,0.0,0.0,0.0,0.0,0.0,0.0,0.0,0.0,0.0,0.0,0.0,0.0,0.0,0.0,0.0,0.0,0.0,0.0,-2.5149,-2.5086,0.0,0.0,0.0,0.0,0.0,0.0,0.0,0.0,0.0,0.0,0.0,0.0,0.0,0.0,0.0,0.0,0.0,0.0,0.0,0.0,0.0,0.0,0.0,0.0,0.0,0.0,0.0,0.0,0.0,0.0,0.0,0.0,0.0,0.0,0.0,0.0,0.0,0.0,0.0,0.0,-3.3774,-3.4693,-3.5639,-3.661,-3.7496,-3.7845,-3.7872,-3.7032,-3.6204,-3.5357,-3.4545,0.0,0.0,0.0,0.0,0.0,0.0,0.0,0.0,0.0,0.0,0.0,0.0,0.0,0.0,0.0,0.0,0.0,0.0,0.0,0.0,0.0,0.0,0.0,0.0,0.0,0.0,0.0,0.0,0.0,0.0,0.0,0.0,0.0,0.0,0.0,0.0,0.0,0.0,0.0,0.0,0.0,0.0,0.0,0.0,0.0,0.0,0.0,0.0,0.0,0.0,0.0,0.0,0.0,0.0,0.0,0.0,0.0,0.0,0.0,-2.4451,-2.444,0.0,0.0,0.0,0.0,0.0,0.0,0.0,0.0,0.0,0.0,0.0,0.0,0.0,0.0,0.0,0.0,0.0,0.0,0.0,0.0,0.0,0.0,0.0,0.0,0.0,0.0,0.0,0.0,0.0,0.0,0.0,0.0,0.0,0.0,0.0,0.0,0.0,0.0,0.0,0.0,-3.3108,-3.411,-3.5143,-3.6167,-3.7172,-3.7612,-3.7643,-3.681,-3.5979,-3.516,-3.4343,0.0,0.0,0.0,0.0,0.0,0.0,0.0,0.0,0.0,0.0,0.0,0.0,0.0,0.0,0.0,0.0,0.0,0.0,0.0,0.0,0.0,0.0,0.0,0.0,0.0,0.0,0.0,0.0,0.0,0.0,0.0,0.0,0.0,0.0,0.0,0.0,0.0,0.0,0.0,0.0,0.0,0.0,0.0,0.0,0.0,0.0,0.0,0.0,0.0,0.0,0.0,0.0,0.0,0.0,0.0,0.0,0.0,0.0,0.0,0.0,0.0,0.0,0.0,0.0,0.0,0.0,0.0,0.0,0.0,0.0,0.0,0.0,0.0,0.0,0.0,0.0,0.0,0.0,0.0,0.0,0.0,0.0,0.0,0.0,0.0,0.0,0.0,0.0,0.0,0.0,0.0,0.0,0.0,0.0,0.0,0.0,0.0,0.0,0.0,0.0,0.0,-3.2399,-3.3534,-3.4628,-3.5762,-3.6854,-3.7353,-3.7421,-3.6595,-3.5739,-3.494,0.0,0.0,0.0,0.0,0.0,0.0,0.0,0.0,0.0,0.0,0.0,0.0,0.0,0.0,0.0,0.0,0.0,0.0,0.0,0.0,0.0,0.0,0.0,0.0,0.0,0.0,0.0,0.0,0.0,0.0,0.0,0.0,0.0,0.0,0.0,0.0,0.0,0.0,0.0,0.0,0.0,0.0,0.0,0.0,0.0,0.0,0.0,0.0,0.0,0.0,0.0,0.0,0.0,0.0,0.0,0.0,0.0,0.0,0.0,0.0,0.0,0.0,0.0,0.0,0.0,0.0,0.0,0.0,0.0,0.0,0.0,0.0,0.0,0.0,0.0,0.0,0.0,0.0,0.0,0.0,0.0,0.0,0.0,0.0,0.0,0.0,0.0,0.0,0.0,0.0,0.0,0.0,0.0,0.0,0.0,0.0,0.0,0.0,0.0,0.0,0.0,0.0,-3.1755,-3.2948,-3.4152,-3.5309,-3.6481,-3.7045,-3.7149,-3.6331,-3.5482,-3.4628,0.0,0.0,0.0,0.0,0.0,0.0,0.0,0.0,0.0,0.0,0.0,0.0,0.0,0.0,0.0,0.0,0.0,0.0,0.0,0.0,0.0,0.0,0.0,0.0,0.0,0.0,0.0,0.0,0.0,0.0,0.0,0.0,0.0,0.0,0.0,0.0,0.0,0.0,0.0,0.0,0.0,0.0,0.0,0.0,0.0,0.0,0.0,0.0,0.0,0.0,0.0,0.0,0.0,0.0,0.0,0.0,0.0,0.0,0.0,0.0,0.0,0.0,0.0,0.0,0.0,0.0,0.0,0.0,0.0,0.0,0.0,0.0,0.0,0.0,0.0,0.0,0.0,0.0,0.0,0.0,0.0,0.0,0.0,0.0,0.0,0.0,0.0,0.0,0.0,0.0,0.0,0.0,0.0,0.0,0.0,0.0,0.0,0.0,0.0,0.0,0.0,0.0,-3.11,-3.2345,-3.3629,-3.4902,-3.6134,-3.6758,-3.6924,-3.6081,-3.5235,-3.4453,0.0,0.0,0.0,0.0,0.0,0.0,0.0,0.0,0.0,0.0,0.0,0.0,0.0,0.0,0.0,0.0,0.0,0.0,0.0,0.0,0.0,0.0,0.0,0.0,0.0,0.0,0.0,0.0,0.0,0.0,0.0,0.0,0.0,0.0,0.0,0.0,0.0,0.0,0.0,0.0,0.0,0.0,0.0,0.0,0.0,0.0,0.0,0.0,0.0,0.0,0.0,0.0,0.0,0.0,0.0,0.0,0.0,0.0,0.0,0.0,0.0,0.0,0.0,0.0,0.0,0.0,0.0,0.0,0.0,0.0,0.0,0.0,0.0,0.0,0.0,0.0,0.0,0.0,0.0,0.0,0.0,0.0,0.0,0.0,0.0,0.0,0.0,0.0,0.0,0.0,0.0,0.0,0.0,0.0,0.0,0.0,0.0,0.0,0.0,0.0,0.0,0.0,-3.0398,-3.175,-3.3147,-3.4509,-3.5798,-3.6483,-3.6685,-3.5846,-3.5036,0.0,0.0,0.0,0.0,0.0,0.0,0.0,0.0,0.0,0.0,0.0,0.0,0.0,0.0,0.0,0.0,0.0,0.0,0.0,0.0,0.0,0.0,0.0,0.0,0.0,0.0,0.0,0.0,0.0,0.0,0.0,0.0,0.0,0.0,0.0,0.0,0.0,0.0,0.0,0.0,0.0,0.0,0.0,0.0,0.0,0.0,0.0,0.0,0.0,0.0,0.0,0.0,0.0,0.0,0.0,0.0,0.0,0.0,0.0,0.0,0.0,0.0,0.0,0.0,0.0,0.0,0.0,0.0,0.0,0.0,0.0,0.0,0.0,0.0,0.0,0.0,0.0,0.0,0.0,0.0,0.0,0.0,0.0,0.0,0.0,0.0,0.0,0.0,0.0,0.0,0.0,0.0,0.0,0.0,0.0,0.0,0.0,0.0,0.0,0.0,0.0,0.0,0.0,-2.9374,-3.0796,-3.2208,-3.3614,-3.4977,-3.5713,-3.5968,-3.5158,-3.438,-3.3629,0.0,0.0,0.0,0.0,0.0,0.0,0.0,0.0,0.0,0.0,0.0,0.0,0.0,0.0,0.0,0.0,0.0,0.0,0.0,0.0,0.0,0.0,0.0,0.0,0.0,0.0,0.0,0.0,0.0,0.0,0.0,0.0,0.0,0.0,0.0,0.0,0.0,0.0,0.0,0.0,0.0,0.0,0.0,0.0,0.0,0.0,0.0,0.0,0.0,0.0,0.0,0.0,0.0,0.0,0.0,0.0,0.0,0.0,0.0,0.0,0.0,0.0,0.0,0.0,0.0,0.0,0.0,0.0,0.0,0.0,0.0,0.0,0.0,0.0,0.0,0.0,0.0,0.0,0.0,0.0,0.0,0.0,0.0,0.0,0.0,0.0,0.0,0.0,0.0,0.0,0.0,0.0,0.0,0.0,0.0,0.0,0.0,0.0,0.0,0.0,0.0,0.0,0.0,-2.9684,-3.1104,-3.2547,-3.4005,-3.4756,-3.5034,-3.428,-3.3534,-3.2815,0.0,0.0,0.0,0.0,0.0,0.0,0.0,0.0,0.0,0.0,0.0,0.0,0.0,0.0,0.0,0.0,0.0,0.0,0.0,0.0,0.0,0.0,0.0,0.0,0.0,0.0,0.0,0.0,0.0,0.0,0.0,0.0,0.0,0.0,0.0,0.0,0.0,0.0,0.0,0.0,0.0,0.0,0.0,0.0,0.0,0.0,0.0,0.0,0.0,0.0,0.0,0.0,0.0,0.0,0.0,0.0,0.0,0.0,0.0,0.0,0.0,0.0,0.0,0.0,0.0,0.0,0.0,0.0,0.0,0.0,0.0,0.0,0.0,0.0,0.0,0.0,0.0,0.0,0.0,0.0,0.0,0.0,0.0,0.0,0.0,0.0,0.0,0.0,0.0,0.0,0.0,0.0,0.0,0.0,0.0,0.0,0.0,0.0,0.0,0.0,0.0,0.0,0.0,-2.8305,-2.9728,-3.1184,-3.2619,-3.3437,-3.3723,-3.2998,-3.2371,-3.1724,-3.1027,0.0,0.0,0.0,0.0,0.0,0.0,0.0,0.0,0.0,0.0,0.0,0.0,0.0,0.0,0.0,0.0,0.0,0.0,0.0,0.0,0.0,0.0,0.0,0.0,0.0,0.0,0.0,0.0,0.0,0.0,0.0,0.0,0.0,0.0,0.0,0.0,0.0,0.0,0.0,0.0,0.0,0.0,0.0,0.0,0.0,0.0,0.0,0.0,0.0,0.0,0.0,0.0,0.0,0.0,0.0,0.0,0.0,0.0,0.0,0.0,0.0,0.0,0.0,0.0,0.0,0.0,0.0,0.0,0.0,0.0,0.0,0.0,0.0,0.0,0.0,0.0,0.0,0.0,0.0,0.0,0.0,0.0,0.0,0.0,0.0,0.0,0.0,0.0,0.0,0.0,0.0,0.0,0.0,0.0,0.0,0.0,0.0,0.0,0.0,0.0,0.0,0.0,-2.6854,-2.8322,-2.9776,-3.1268,-3.2032,-3.2348,-3.1725,-3.1118,-3.0561,-2.9925,0.0,0.0,0.0,0.0,0.0,0.0,0.0,0.0,0.0,0.0,0.0,0.0,0.0,0.0,0.0,0.0,0.0,0.0,0.0,0.0,0.0,0.0,0.0,0.0,0.0,0.0,0.0,0.0,0.0,0.0,0.0,0.0,0.0,0.0,0.0,0.0,0.0,0.0,0.0,0.0,0.0,0.0,0.0,0.0,0.0,0.0,0.0,0.0,0.0,0.0,0.0,0.0,0.0,0.0,0.0,0.0,0.0,0.0,0.0,0.0,0.0,0.0,0.0,0.0,0.0,0.0,0.0,0.0,0.0,0.0,0.0,0.0,0.0,0.0,0.0,0.0,0.0,0.0,0.0,0.0,0.0,0.0,0.0,0.0,0.0,0.0,0.0,0.0,0.0,0.0,0.0,0.0,0.0,0.0,0.0,0.0,0.0,0.0,0.0,0.0,0.0,0.0,-2.5412,-2.689,-2.8376,-2.982,-3.063,-3.1036,-3.0409,-2.9853,-2.9348,-2.881,0.0,0.0,0.0,0.0,0.0,0.0,0.0,0.0,0.0,0.0,0.0,0.0,0.0,0.0,0.0,0.0,0.0,0.0,0.0,0.0,0.0,0.0,0.0,0.0,0.0,0.0,0.0,0.0,0.0,0.0,0.0,0.0,0.0,0.0,0.0,0.0,0.0,0.0,0.0,0.0,0.0,0.0,0.0,0.0,0.0,0.0,0.0,0.0,0.0,0.0,0.0,0.0,0.0,0.0,0.0,0.0,0.0,0.0,0.0,0.0,0.0,0.0,0.0,0.0,0.0,0.0,0.0,0.0,0.0,0.0,0.0,0.0,0.0,0.0,0.0,0.0,0.0,0.0,0.0,0.0,0.0,0.0,0.0,0.0,0.0,0.0,0.0,0.0,0.0,0.0,0.0,0.0,0.0,0.0,0.0,0.0,0.0,0.0,0.0,0.0,0.0,0.0,0.0,-2.5512,-2.698,-2.844,-2.9245,-2.9628,-2.9155,-2.8662,-2.817,0.0,0.0,0.0,0.0,0.0,0.0,0.0,0.0,0.0,0.0,0.0,0.0,0.0,0.0,0.0,0.0,0.0,0.0,0.0,0.0,0.0,0.0,0.0,0.0,0.0,0.0,0.0,0.0,0.0,0.0,0.0,0.0,0.0,0.0,0.0,0.0,0.0,0.0,0.0,0.0,0.0,0.0,0.0,0.0,0.0,0.0,0.0,0.0,0.0,0.0,0.0,0.0,0.0,0.0,0.0,0.0,0.0,0.0,0.0,0.0,0.0,0.0,0.0,0.0,0.0,0.0,0.0,0.0,0.0,0.0,0.0,0.0,0.0,0.0,0.0,0.0,0.0,0.0,0.0,0.0,0.0,0.0,0.0,0.0,0.0,0.0,0.0,0.0,0.0,0.0,0.0,0.0,0.0,0.0,0.0,0.0,0.0,0.0,0.0,0.0,0.0,0.0,0.0,0.0,-2.4163,-2.5569,-2.7024,-2.7807,-2.8219,-2.7814,-2.7371,-2.6974,0.0,0.0,0.0,0.0,0.0,0.0,0.0,0.0,0.0,0.0,0.0,0.0,0.0,0.0]}],[{"header":{"parameterUnit":"kt","parameterCategory":2,"dx":1,"dy":1,"la1":29.285339999999998,"la2":30.599998999999997,"lo1":-89.70041500000002,"lo2":-87.6738589999976,"nx":112,"ny":82,"refTime":"2022-10-26T18:00:00:Z","depth":0,"parameterNumber":2,"parameterNumberName":"V-component_of_WINDS"},"data":[7.9524,7.7991,7.6439,7.4924,7.3374,7.1879,7.0332,6.8769,6.7242,6.5716,6.4119,6.2691,6.1332,6.0017,5.8614,5.7228,5.5848,5.4504,0.0,5.1706,5.0335,4.8993,0.0,0.0,0.0,0.0,4.4872,4.5538,4.6203,4.6949,4.765,4.8345,4.9082,4.9786,5.0452,5.1187,5.192,5.2621,5.3089,5.3375,5.3209,5.2997,5.2702,5.2489,5.2239,5.2034,5.182,5.1569,5.1355,5.1093,5.0888,5.0672,5.0457,5.0221,4.9985,4.9822,4.962,4.9443,4.9276,4.9096,4.889,4.8682,4.851,4.8287,4.8076,4.7887,4.7673,4.7545,4.738,4.7228,4.7062,4.6932,4.6779,4.6611,4.6458,4.634,4.6171,4.598,4.5809,4.5586,4.5379,4.5114,4.485,4.4461,4.4108,4.3791,4.3494,4.3141,4.2824,4.2507,4.2154,4.1837,4.1556,4.1221,4.0887,4.0658,4.0411,4.0146,3.9828,3.9544,3.9314,3.9064,3.8744,3.8458,3.8156,3.7888,3.762,3.7351,3.7151,3.6842,3.6553,3.6317,7.7744,7.6318,7.4948,7.3596,7.2228,7.0841,6.9455,6.8032,6.663,6.5229,6.3829,6.2549,6.1281,6.0009,5.8726,5.743,5.6173,5.4876,0.0,5.2317,5.1033,4.9728,4.8458,4.7211,4.5952,4.5303,4.5857,4.6448,4.6966,4.7601,4.8189,4.8813,4.9446,5.0035,5.0629,5.1249,5.1873,5.2503,5.2899,5.315,5.2979,5.2701,5.2372,5.2124,5.1876,5.1636,5.1433,5.1184,5.0889,5.0602,5.0361,5.0148,4.9898,4.963,4.9399,4.9241,4.9045,4.8837,4.8676,4.8465,4.8264,4.8061,4.7846,4.7604,4.7386,4.7216,4.7032,4.6859,4.6698,4.6573,4.6423,4.6297,4.6097,4.5896,4.5768,4.5639,4.5473,4.5306,4.5153,4.4935,4.473,4.4473,4.4174,4.3824,4.3437,4.3123,4.2808,4.2478,4.2199,4.1884,4.1534,4.1219,4.0975,4.0628,4.0331,4.007,3.9826,3.9616,3.9249,3.8934,3.8723,3.8372,3.8109,3.7827,3.7544,3.7226,3.6926,3.6695,3.6483,3.6213,3.5908,3.5642,7.5932,7.4667,7.3477,7.2249,7.1006,6.9778,6.8551,6.7286,6.6044,6.4802,6.3575,6.2339,6.1142,5.9977,5.8804,5.7596,5.6388,0.0,0.0,5.2854,5.1685,5.0505,4.9323,4.8133,4.6926,4.6303,4.6823,4.7305,4.7789,4.8271,4.8792,4.9307,4.9867,5.0385,5.0822,5.1333,5.1843,5.24,5.2762,5.2902,5.2664,5.2388,5.203,5.1785,5.154,5.122,5.0936,5.0697,5.0413,5.0135,4.9851,4.9573,4.9326,4.9101,4.8904,4.8714,4.8439,4.8209,4.8006,4.7848,4.7652,4.7407,4.7161,4.6951,4.6749,4.6584,4.6406,4.6213,4.6093,4.5923,4.5728,4.5569,4.5396,4.5236,4.5025,4.4887,4.476,4.4597,4.4433,4.4268,4.4067,4.3778,4.3444,4.3118,4.2792,4.2494,4.2218,4.1876,4.1563,4.1251,4.0902,4.0625,4.0405,4.0076,3.9747,3.9473,3.9215,3.8972,3.8626,3.8279,3.8002,3.7741,3.7446,3.7132,3.6853,3.6609,3.6294,3.5997,3.5769,3.5487,3.5206,3.4976,7.4136,7.3015,7.1946,7.0862,6.9815,6.8707,6.7586,6.6477,6.5393,6.4309,6.3274,0.0,0.0,0.0,5.8839,5.7748,0.0,5.5566,5.4503,5.3425,5.2344,5.1218,5.0128,4.9028,4.7956,4.7361,4.7771,4.8183,4.8632,4.9003,4.941,4.9856,5.0265,5.0672,5.1037,5.1439,5.1882,5.232,5.2576,5.2638,5.2369,5.2019,5.1702,5.1427,5.1147,5.0829,5.0516,5.0235,4.9921,4.9608,4.9326,4.9012,4.8768,4.8504,4.832,4.8136,4.7867,4.7597,4.7408,4.721,4.7056,4.678,4.6503,4.6336,4.613,4.5969,4.577,4.5571,4.5428,4.5216,4.505,4.4894,4.4727,4.4558,4.4352,4.4218,4.4046,4.3886,4.375,4.3625,4.3376,4.3068,4.2722,4.2449,4.2163,4.1889,4.158,4.1241,4.0931,4.0657,4.0347,4.0057,3.984,3.9478,3.9152,3.8846,3.8627,3.8371,3.7992,3.7649,3.7392,3.7118,3.6809,3.6516,3.6241,3.5931,3.5602,3.5343,3.5065,3.4805,3.4528,3.4284,7.2284,7.1321,7.0406,6.948,6.859,6.7625,6.6611,6.5646,6.4728,6.3799,0.0,0.0,0.0,0.0,0.0,0.0,5.6926,5.5953,5.4984,5.3999,5.3011,5.1945,5.0944,4.9977,4.9005,4.8479,4.8741,4.9081,4.9419,4.968,4.9977,5.035,5.0645,5.0942,5.1235,5.1568,5.1863,5.2157,5.2336,5.2322,5.2015,5.1671,5.1398,5.1087,5.0738,5.0461,5.0112,4.98,4.9446,4.9097,4.8747,4.8468,4.8226,4.7936,4.7677,4.7497,4.7273,4.7009,4.6825,4.6596,4.6365,4.6132,4.5906,4.5699,4.5537,4.5335,4.5104,4.4918,4.4657,4.4525,4.4401,4.4249,4.4076,4.3864,4.371,4.3533,4.3317,4.3197,4.3065,4.2919,4.265,4.2393,4.2025,4.1754,4.1546,4.1263,4.0966,4.0631,4.0323,4.0029,3.9779,3.9493,3.9207,3.887,3.8547,3.8259,3.7992,3.776,3.7385,3.706,3.6771,3.6485,3.6215,3.5889,3.5567,3.5227,3.4936,3.4663,3.4406,3.4097,3.3823,3.36,7.0474,6.9618,6.8846,6.8036,6.7264,6.6452,6.564,0.0,6.4043,6.3267,0.0,6.1689,6.0848,0.0,0.0,5.8098,5.7222,5.6304,5.5389,5.4537,5.3646,5.2675,5.1775,5.0871,5.0039,4.9544,4.9735,4.9925,5.0152,5.034,5.0528,5.079,5.0977,5.12,5.1383,5.1606,5.1829,5.2049,5.2115,5.2107,5.1801,5.1419,5.1073,5.0725,5.0381,5.0031,4.9645,4.9298,4.895,4.8602,4.8254,4.7906,4.7595,4.7382,4.713,4.6918,4.6662,4.6409,4.6188,4.5971,4.5784,4.5521,4.5293,4.5064,4.4826,4.4593,4.4404,4.4214,4.4061,4.386,4.3704,4.3547,4.3417,4.3248,4.3051,4.2879,4.2716,4.2504,4.2376,4.2225,4.1958,4.1692,4.1376,4.1108,4.0841,4.0597,4.0353,3.9986,3.9717,3.9411,3.9165,3.8918,3.8585,3.8287,3.7953,3.7682,3.7433,3.7133,3.6797,3.6461,3.6174,3.5858,3.5541,3.5253,3.4935,3.4616,3.4312,3.4007,3.3737,3.3467,3.3196,3.2925,6.8651,6.7949,6.7284,6.6625,6.6003,6.5298,0.0,0.0,0.0,6.2748,6.2153,6.1454,6.072,5.9908,5.9097,5.8283,5.7469,5.6648,5.5865,5.504,5.4249,5.3416,5.2582,5.1821,5.1056,5.0634,5.0712,5.083,5.0909,5.0986,5.1101,5.1216,5.1329,5.1442,5.1516,5.1627,5.1777,5.1923,5.1957,5.184,5.1495,5.1152,5.0733,5.035,5.0006,4.9585,4.9163,4.8855,4.8474,4.809,4.7746,4.74,4.7016,4.6809,4.6601,4.6315,4.607,4.5823,4.557,4.5358,4.5141,4.4921,4.4662,4.4434,4.4171,4.3901,4.3718,4.3526,4.3408,4.3213,4.3024,4.2872,4.2711,4.2585,4.2383,4.2217,4.2058,4.1843,4.1672,4.1526,4.1289,4.1014,4.0761,4.0448,4.0172,3.9931,3.9691,3.9413,3.9097,3.8794,3.8539,3.8295,3.8002,3.7672,3.7378,3.7145,3.6862,3.653,3.6198,3.5851,3.5554,3.522,3.4907,3.4572,3.4273,3.3973,3.3693,3.3412,3.306,3.2809,3.2577,3.2274,6.6814,6.6333,6.5781,6.527,6.4753,0.0,0.0,6.3195,6.2754,6.2271,6.1752,6.1156,6.0521,5.9846,5.9132,5.8418,5.774,5.7022,5.6303,5.5619,5.4933,5.417,5.3443,5.2789,5.2097,5.1636,5.164,5.1647,5.1652,5.1656,5.1698,5.1701,5.1705,5.1669,5.1708,5.1709,5.1747,5.1747,5.1708,5.1517,5.1174,5.0794,5.0375,4.9995,4.9576,4.9158,4.8776,4.8433,4.7976,4.7596,4.7213,4.6831,4.6486,4.6252,4.5977,4.5698,4.5456,4.5249,4.4965,4.4756,4.4544,4.4255,4.3998,4.3743,4.3524,4.3299,4.3083,4.2891,4.2704,4.2552,4.2369,4.2177,4.2021,4.1863,4.1659,4.1498,4.1336,4.1201,4.1035,4.0859,4.0616,4.0392,4.0083,3.9764,3.9527,3.9301,3.9027,3.8741,3.8466,3.819,3.7938,3.765,3.736,3.713,3.6852,3.656,3.6232,3.5916,3.561,3.5268,3.4951,3.462,3.429,3.3967,3.3635,3.3303,3.3014,3.2737,3.2389,3.2126,3.1877,3.1559,6.4964,6.4632,6.4223,6.3893,6.3523,0.0,6.2775,6.2402,6.2064,6.1727,6.1388,6.0934,6.0403,5.9796,5.9225,5.8616,5.8006,5.7394,5.6707,5.613,5.5552,5.4898,5.4282,5.3738,5.312,5.2659,5.2554,5.2487,5.2419,5.2312,5.2243,5.2173,5.2065,5.1995,5.1847,5.1813,5.174,5.1629,5.1479,5.1252,5.0835,5.0456,5.0038,4.9621,4.9165,4.8786,4.8368,4.7989,4.7533,4.7077,4.6697,4.6317,4.5899,4.5631,4.5362,4.5128,4.4854,4.4617,4.4378,4.4134,4.3929,4.3646,4.3361,4.3113,4.2897,4.2683,4.2426,4.2208,4.206,4.1877,4.173,4.1506,4.1356,4.116,4.1,4.08,4.0635,4.0514,4.0345,4.0138,3.99,3.9707,3.9364,3.9132,3.8863,3.8593,3.8359,3.8115,3.7833,3.7549,3.7302,3.7054,3.6815,3.654,3.6265,3.5941,3.5616,3.5279,3.4953,3.4627,3.4288,3.4009,3.3682,3.3316,3.2987,3.2659,3.2325,3.2053,3.1758,3.1463,3.1217,3.0852,6.3089,6.2866,6.2641,6.2453,6.2264,0.0,6.1844,6.1613,6.1382,6.1187,6.103,6.0683,6.0261,5.9759,5.9299,5.8801,5.8262,5.7723,5.7148,5.6646,5.614,5.5644,5.5141,5.4633,5.4129,5.3746,5.3527,5.3311,5.3135,5.2991,5.2848,5.263,5.2449,5.2305,5.2046,5.1863,5.1718,5.1495,5.1233,5.0931,5.0553,5.0137,4.9721,4.9266,4.8812,4.8433,4.7977,4.7523,4.703,4.6576,4.6196,4.5741,4.5286,4.4987,4.4761,4.4572,4.4305,4.3998,4.3727,4.3491,4.3291,4.3016,4.274,4.2423,4.2253,4.2046,4.1716,4.1539,4.1436,4.1217,4.1038,4.089,4.0703,4.0475,4.0321,4.0165,3.9925,3.9802,3.964,3.9438,3.9204,3.8978,3.8759,3.8457,3.8191,3.7916,3.7686,3.7465,3.7223,3.6944,3.6674,3.6466,3.6221,3.5975,3.5655,3.5319,3.4988,3.4691,3.4344,3.4021,3.3663,3.3351,3.3027,3.2631,3.2257,3.1968,3.164,3.1323,3.1151,3.0838,3.0489,3.0184,6.1269,6.1187,6.1143,6.106,0.0,0.0,6.088,6.0792,6.0703,6.0617,6.0598,6.04,6.0122,5.9739,5.9318,5.8859,5.8438,5.8051,5.7629,5.7246,5.6782,5.6361,5.594,5.5514,5.5088,5.4748,5.4459,5.4204,5.391,5.362,5.3367,5.3076,5.2818,5.2526,5.2229,5.1936,5.1717,5.1384,5.1048,5.0709,5.0254,4.9839,4.9384,4.8891,4.8398,4.7943,4.7526,4.7035,4.6544,4.6051,4.5633,4.5178,4.4761,4.4469,4.4173,4.3954,4.3693,4.3393,4.3091,4.2863,4.2671,4.2363,4.2092,4.1819,4.1542,4.1341,4.1058,4.0853,4.0682,4.0543,4.0367,4.015,4.0008,3.9863,3.9673,3.9481,3.9291,3.9132,3.8932,3.8729,3.85,3.8278,3.8054,3.7785,3.756,3.7297,3.7063,3.681,3.6536,3.6298,3.6068,3.5818,3.5605,3.5326,3.5046,3.4712,3.4384,3.4045,3.3747,3.3381,3.2992,3.2682,3.2362,3.2006,3.1673,3.1351,3.1016,3.0705,3.0417,3.013,2.9842,2.9505,5.9417,0.0,0.0,0.0,0.0,0.0,5.9882,5.9974,5.999,6.0042,6.0169,6.0119,5.9999,5.969,5.9319,5.8985,5.8645,5.8343,5.8116,5.7776,5.7442,5.7096,5.6756,5.6416,5.6113,5.5779,5.5456,5.5084,5.4673,5.4273,5.391,5.3542,5.3173,5.2765,5.2362,5.203,5.1663,5.1292,5.0882,5.0469,4.9976,4.9522,4.9029,4.8499,4.8003,4.7507,4.7052,4.6563,4.6033,4.554,4.5044,4.4628,4.4211,4.3923,4.3636,4.3311,4.3056,4.2801,4.2466,4.2208,4.2024,4.1761,4.1496,4.1192,4.0885,4.0614,4.0379,4.018,3.9978,3.9845,3.9673,3.9464,3.9328,3.919,3.8966,3.8786,3.8636,3.8441,3.8243,3.801,3.7824,3.7605,3.7335,3.7108,3.6886,3.6657,3.6389,3.6105,3.5872,3.5683,3.5448,3.5204,3.4995,3.4748,3.4434,3.4093,3.3742,3.3408,3.3103,3.274,3.233,3.2013,3.1696,3.1382,3.1052,3.0733,3.0378,3.0048,2.9717,2.9421,2.9125,2.8828,0.0,0.0,0.0,5.8211,5.8418,5.8648,5.8883,5.9087,5.932,5.9552,5.9753,5.9774,5.9774,5.9594,5.9339,5.9046,5.8874,5.8664,5.8529,5.828,5.8032,5.7805,5.7594,5.7412,5.7162,5.6836,5.6359,5.5913,5.5435,5.4918,5.4433,5.3992,5.3512,5.3037,5.2556,5.207,5.1588,5.1111,5.0624,5.0136,4.9644,4.9148,4.8656,4.816,4.7626,4.713,4.6638,4.618,4.5612,4.5041,4.4545,4.4049,4.3595,4.3317,4.3038,4.2718,4.243,4.218,4.1854,4.1605,4.1389,4.1096,4.0838,4.0577,4.0279,3.9977,3.9712,3.9519,3.9362,3.9164,3.8961,3.8796,3.8627,3.842,3.8205,3.8062,3.7958,3.7733,3.7542,3.7391,3.7167,3.6904,3.6651,3.6385,3.6198,3.5936,3.5672,3.5475,3.5239,3.5054,3.4816,3.4584,3.4388,3.4146,3.3865,3.3481,3.3125,3.2777,3.2502,3.2143,3.1702,3.1388,3.1101,3.074,3.0415,3.0032,2.9716,2.9354,2.9063,2.8735,2.8432,2.8139,5.6011,5.632,5.6666,5.698,5.7247,5.7626,5.7937,5.8247,5.8584,5.893,5.9199,5.9349,5.9387,5.9247,5.908,5.8922,5.8801,5.8632,5.8548,5.8387,5.8217,5.8046,5.7912,5.7825,5.7653,5.7375,5.678,5.6268,5.5755,5.5196,5.4638,5.4086,5.3527,5.3012,5.2421,5.1899,5.1382,5.0828,5.0272,4.9744,4.9247,4.8718,4.8184,4.765,4.7154,4.6614,4.6124,4.5628,4.5094,4.4517,4.3983,4.345,4.2997,4.2684,4.2407,4.2095,4.1818,4.1535,4.1255,4.0972,4.0729,4.0442,4.0153,3.9898,3.9607,3.9353,3.9057,3.8836,3.8648,3.8497,3.8303,3.8145,3.7947,3.7745,3.7539,3.7369,3.7194,3.7016,3.6831,3.6649,3.639,3.617,3.5921,3.5661,3.5475,3.5217,3.4995,3.4767,3.4574,3.4343,3.4116,3.3882,3.369,3.3491,3.3215,3.279,3.2438,3.2064,3.1748,3.1431,3.1003,3.0684,3.0356,3.0009,2.9642,2.9256,2.8907,2.8585,2.8308,2.7975,2.7677,2.7388,5.4756,5.5104,5.5488,5.5861,5.6242,5.6698,5.7077,5.7429,5.7807,5.8183,5.8521,5.8745,5.8869,5.8706,5.8666,5.8648,5.8521,5.8403,5.8285,5.8204,5.816,5.8049,5.7966,5.7834,5.7778,5.7542,5.6883,5.6365,5.581,5.5179,5.4547,5.3932,5.3375,5.278,5.2147,5.1552,5.1039,5.0413,4.9854,4.9289,4.8792,4.8258,4.7649,4.7109,4.6575,4.6079,4.5545,4.505,4.4516,4.3983,4.3406,4.2873,4.2371,4.2064,4.1756,4.1483,4.1214,4.0905,4.0589,4.0314,4.0079,3.9761,3.9476,3.9155,3.8945,3.8701,3.8415,3.8164,3.7945,3.7805,3.7659,3.7472,3.7281,3.7049,3.6891,3.669,3.6488,3.6279,3.6068,3.5817,3.5606,3.5432,3.518,3.4926,3.4742,3.4531,3.4277,3.405,3.3858,3.3627,3.3368,3.3139,3.294,3.2751,3.2481,3.2053,3.1676,3.1343,3.0987,3.0601,3.0258,2.9863,2.9495,2.9151,2.8827,2.8411,2.8057,2.7702,2.7457,2.7138,2.6818,2.6525,5.3952,5.4305,5.4684,5.5062,5.5412,5.5849,5.6187,5.6573,5.6921,5.7306,5.7654,5.7827,5.7939,5.7852,5.7778,5.774,5.7665,5.7614,5.75,5.7448,5.7407,5.7291,5.72,5.7109,5.7066,5.6862,5.6208,5.5618,5.5103,5.4513,5.3894,5.3228,5.2683,5.2092,5.1462,5.087,5.0361,4.973,4.9175,4.8574,4.8048,4.7552,4.6973,4.644,4.5944,4.5441,4.4908,4.4376,4.3835,4.334,4.2771,4.2268,4.1736,4.1428,4.1164,4.0897,4.0591,4.029,3.9975,3.9707,3.9442,3.9165,3.8853,3.8572,3.8294,3.8017,3.7779,3.7538,3.7329,3.7159,3.695,3.6734,3.6513,3.6292,3.6105,3.5915,3.5759,3.5561,3.5322,3.5118,3.4874,3.4669,3.4424,3.4174,3.3963,3.3751,3.354,3.3287,3.3027,3.2841,3.2583,3.2393,3.2163,3.19,3.1598,3.1251,3.0878,3.0467,3.008,2.9736,2.9384,2.9001,2.861,2.8211,2.7819,2.7381,2.7097,2.6731,2.6417,2.6111,2.5805,2.5473,5.3173,5.3522,5.3908,5.4256,5.4615,5.4937,5.5321,5.5704,5.6062,5.642,5.6765,5.6913,5.7011,5.6964,5.6916,5.6831,5.6783,5.6747,5.6698,5.6636,5.6549,5.6499,5.6412,5.6336,5.631,5.611,5.5461,5.4912,5.4326,5.3787,5.3163,5.2528,5.1998,5.141,5.0784,5.0167,4.9625,4.9035,4.8473,4.7874,4.7342,4.6818,4.6314,4.5781,4.5287,4.4746,4.4214,4.3674,4.3171,4.2639,4.2145,4.1652,4.115,4.081,4.0551,4.0283,3.9984,3.9683,3.9373,3.9113,3.8856,3.8542,3.827,3.7963,3.765,3.7377,3.7149,3.6918,3.6717,3.6483,3.6245,3.6002,3.579,3.554,3.5327,3.5148,3.5001,3.4776,3.4585,3.4353,3.4118,3.3883,3.3643,3.3402,3.3198,3.2952,3.2745,3.2497,3.2287,3.2071,3.1815,3.1595,3.1406,3.1073,3.0734,3.0432,3.0026,2.9614,2.9201,2.8819,2.8467,2.8089,2.7666,2.723,2.6799,2.6375,2.6089,2.5759,2.5376,2.5074,2.4736,2.441,5.2435,5.2793,5.315,5.3508,5.3828,5.4147,5.4467,5.4846,5.5179,5.5549,5.5816,5.6001,5.6149,5.6052,5.6007,5.5998,5.5915,5.5854,5.5844,5.5784,5.5699,5.5713,5.5652,5.5641,5.558,5.5333,5.4764,5.4182,5.3636,5.3017,5.2408,5.1824,5.1289,5.0705,5.012,4.9498,4.8896,4.831,4.7751,4.7191,4.665,4.6155,4.5634,4.5103,4.4562,4.4059,4.3528,4.3035,4.2495,4.1993,4.1463,4.0961,4.0534,4.0163,3.9873,3.9694,3.9392,3.909,3.8786,3.8488,3.824,3.7932,3.7666,3.7324,3.7054,3.6752,3.649,3.6264,3.6034,3.5769,3.5542,3.5315,3.5076,3.4835,3.4636,3.4427,3.4214,3.3961,3.3781,3.3522,3.3334,3.3067,3.2836,3.2604,3.2368,3.2131,3.1929,3.1724,3.152,3.1311,3.106,3.0844,3.0628,3.0294,2.9958,2.9556,2.915,2.8739,2.8335,2.7922,2.7502,2.7091,2.6675,2.624,2.5778,2.5359,2.5075,2.4721,2.433,2.3981,2.3633,2.3297,5.1712,5.2043,5.2375,5.2692,5.301,5.3341,5.3658,5.3953,5.4321,5.4653,5.4895,5.5116,5.5242,5.5168,5.5161,5.5176,5.508,5.5036,5.5036,5.4977,5.4881,5.4881,5.4895,5.4887,5.4813,5.4568,5.4042,5.3464,5.2886,5.227,5.1692,5.1125,5.0545,5.0002,4.9422,4.8816,4.8246,4.759,4.7044,4.6525,4.6021,4.5491,4.4972,4.4468,4.3928,4.3388,4.2885,4.2404,4.1902,4.14,4.0825,4.0323,3.9859,3.9532,3.9239,3.9029,3.8734,3.8437,3.813,3.7876,3.7584,3.7327,3.7031,3.677,3.647,3.6169,3.5872,3.5617,3.5397,3.5136,3.4921,3.4673,3.4444,3.4212,3.3947,3.3711,3.3472,3.3229,3.3023,3.2776,3.2558,3.23,3.2077,3.1852,3.1625,3.1358,3.1126,3.0967,3.0728,3.0489,3.0246,3.0,2.9792,2.9463,2.9134,2.8665,2.826,2.7893,2.7418,2.701,2.656,2.6145,2.5734,2.5312,2.4894,2.4437,2.4049,2.3659,2.328,2.2931,2.2618,2.2287,5.1002,5.1347,5.1604,5.1882,5.2196,5.2541,5.285,5.3107,5.3436,5.3782,5.4039,5.4185,5.4295,5.4311,5.4275,5.4311,5.4269,5.4212,5.4212,5.4138,5.4117,5.4117,5.4117,5.4096,5.4059,5.3839,5.3282,5.2709,5.2113,5.1539,5.1001,5.044,4.9851,4.9276,4.87,4.8136,4.7559,4.6908,4.638,4.5863,4.5335,4.4843,4.4352,4.3812,4.3261,4.2759,4.2257,4.1804,4.1277,4.0776,4.0287,3.975,3.9202,3.8917,3.862,3.8358,3.807,3.7742,3.7451,3.7194,3.6927,3.6733,3.6481,3.6145,3.5845,3.558,3.53,3.5017,3.4805,3.4554,3.4306,3.4072,3.3853,3.3594,3.3293,3.3032,3.2808,3.2541,3.2308,3.2111,3.1827,3.1578,3.1365,3.111,3.0853,3.0594,3.0333,3.0145,2.9915,2.9645,2.9449,2.9211,2.8931,2.8612,2.8253,2.7826,2.7393,2.6991,2.6518,2.6078,2.5672,2.5223,2.481,2.4407,2.3991,2.3573,2.3079,2.2622,2.2248,2.1942,2.1599,2.1297,5.0292,5.0563,5.085,5.1142,5.1416,5.1705,5.2013,5.2284,5.2556,5.2865,5.3193,5.3319,5.3445,5.3482,5.3429,5.3429,5.3409,5.3409,5.3429,5.3356,5.3319,5.3356,5.3356,5.3339,5.3302,5.3083,5.2569,5.2001,5.1396,5.0827,5.0274,4.9704,4.9133,4.8548,4.7992,4.742,4.6848,4.6253,4.568,4.5167,4.464,4.4114,4.3661,4.3123,4.2621,4.212,4.1619,4.1168,4.0632,4.0132,3.9669,3.9134,3.8611,3.8283,3.8028,3.7734,3.7477,3.717,3.6849,3.6599,3.6337,3.6095,3.5804,3.5475,3.5218,3.4932,3.469,3.4409,3.4133,3.3891,3.3661,3.3434,3.3188,3.2939,3.2612,3.2329,3.2117,3.1858,3.1599,3.1369,3.1136,3.09,3.062,3.0374,3.0124,2.9878,2.9626,2.941,2.9151,2.889,2.8664,2.8435,2.8203,2.7854,2.7503,2.7,2.6571,2.6104,2.5672,2.5201,2.4728,2.4286,2.3878,2.3445,2.2999,2.2581,2.2049,2.1598,2.1266,2.0938,2.06,2.0225,4.9557,4.9809,5.0097,5.0404,5.0638,5.0873,5.1161,5.1433,5.1685,5.201,5.23,5.2481,5.2571,5.259,5.2572,5.2518,5.2555,5.2609,5.2628,5.2574,5.2538,5.2574,5.2592,5.2611,5.2557,5.2339,5.1831,5.1269,5.0706,5.0142,4.9578,4.903,4.8449,4.7848,4.7282,4.6731,4.6164,4.5561,4.4993,4.4483,4.3923,4.3436,4.2971,4.2507,4.1934,4.1499,4.0999,4.0486,3.9965,3.9467,3.9028,3.8545,3.7989,3.7726,3.744,3.7152,3.6887,3.6585,3.6258,3.6003,3.5758,3.5465,3.5181,3.4885,3.4562,3.4274,3.4078,3.3806,3.3495,3.3272,3.3009,3.2758,3.2524,3.2248,3.1939,3.1662,3.1425,3.1139,3.085,3.0631,3.0409,3.0188,2.9879,2.9643,2.9367,2.913,2.889,2.8645,2.8358,2.8106,2.789,2.767,2.741,2.7069,2.6689,2.6191,2.5731,2.5233,2.4806,2.4341,2.3798,2.3364,2.2928,2.2459,2.2058,2.1612,2.1085,2.0634,2.027,1.9908,1.9584,1.9214,4.8835,4.9088,4.9359,4.9611,4.9881,5.0134,5.0351,5.0568,5.0839,5.1128,5.1381,5.1544,5.1652,5.167,5.1669,5.1723,5.174,5.1776,5.1794,5.1792,5.1737,5.179,5.1826,5.1824,5.1877,5.1678,5.1086,5.053,4.9973,4.9397,4.8839,4.8316,4.7757,4.7161,4.6601,4.6004,4.5423,4.4861,4.4335,4.3829,4.3272,4.2787,4.2309,4.181,4.1311,4.0864,4.0331,3.9819,3.9358,3.8913,3.8381,3.7886,3.7406,3.7147,3.6853,3.6607,3.6274,3.5991,3.568,3.543,3.5144,3.4868,3.4567,3.4302,3.4011,3.3695,3.3461,3.3162,3.2908,3.266,3.2409,3.2116,3.1828,3.1564,3.1222,3.095,3.0719,3.0422,3.0144,2.9899,2.9608,2.9356,2.91,2.8845,2.8623,2.8352,2.8082,2.7814,2.7574,2.7293,2.7089,2.6843,2.659,2.6258,2.5886,2.5397,2.4905,2.4412,2.3993,2.3496,2.292,2.2457,2.203,2.1524,2.1054,2.062,2.0103,1.966,1.9261,1.8939,1.8581,1.822,4.8162,4.8399,4.86,4.8853,4.9126,4.9379,4.958,4.9798,4.9998,5.0271,5.0543,5.0651,5.0759,5.0811,5.0845,5.0878,5.093,5.0982,5.0962,5.0958,5.0954,5.0986,5.1037,5.1088,5.1119,5.0956,5.035,4.98,4.9249,4.8646,4.8094,4.7631,4.7024,4.647,4.588,4.5308,4.4716,4.4161,4.3676,4.3138,4.2604,4.2122,4.1644,4.1148,4.0667,4.0223,3.9727,3.9165,3.8722,3.8264,3.7771,3.7278,3.6786,3.6482,3.6192,3.5938,3.5661,3.537,3.5063,3.4806,3.4611,3.433,3.4034,3.3725,3.3429,3.3157,3.2847,3.2595,3.2316,3.207,3.1794,3.1451,3.1167,3.0905,3.0575,3.0315,3.006,2.9726,2.9431,2.9162,2.8925,2.8641,2.8365,2.8122,2.7874,2.7613,2.7315,2.706,2.6796,2.6525,2.6335,2.6061,2.5819,2.5458,2.5094,2.4613,2.409,2.3566,2.3078,2.2626,2.2096,2.1602,2.1106,2.057,2.0106,1.9641,1.9134,1.8664,1.8271,1.7915,1.7559,1.7205,4.7536,4.7739,4.7908,4.8167,4.837,4.8573,4.8812,4.905,4.9217,4.9419,4.9677,4.9839,4.9927,4.9978,5.0009,5.0096,5.0141,5.0136,5.013,5.0124,5.0153,5.0232,5.0274,5.0323,5.035,5.0223,4.9623,4.91,4.8556,4.7976,4.743,4.6849,4.6322,4.5774,4.5172,4.4589,4.4058,4.3544,4.2976,4.2409,4.1912,4.1505,4.101,4.0515,4.0038,3.958,3.9087,3.8542,3.8103,3.7647,3.7158,3.6652,3.6147,3.5845,3.556,3.5295,3.501,3.4724,3.4422,3.4205,3.4052,3.3749,3.3445,3.3155,3.2864,3.2608,3.2308,3.1983,3.168,3.1445,3.1171,3.0808,3.0536,3.0249,2.9933,2.9675,2.9396,2.9104,2.8779,2.8502,2.8278,2.8005,2.7735,2.7468,2.719,2.6908,2.6622,2.6342,2.6094,2.5842,2.5585,2.536,2.5094,2.4742,2.435,2.3836,2.3287,2.2696,2.2173,2.169,2.1244,2.0757,2.0192,1.9627,1.9135,1.8714,1.8179,1.7681,1.7255,1.6869,1.6519,1.6126,4.6829,4.7022,4.7179,4.7349,4.7576,4.7802,4.8028,4.8233,4.8387,4.8541,4.8765,4.8928,4.9034,4.9078,4.9142,4.9185,4.9248,4.929,4.9295,4.9322,4.9418,4.9492,4.9529,4.9554,4.9613,4.9486,4.8984,4.839,4.7852,4.7279,4.6741,4.6167,4.5627,4.5087,4.4511,4.3935,4.3412,4.2834,4.2307,4.1745,4.1321,4.0828,4.0336,3.9844,3.9352,3.8897,3.8442,3.7952,3.7463,3.6958,3.6523,3.6019,3.5568,3.5273,3.496,3.4716,3.4454,3.4158,3.3861,3.3614,3.3383,3.3103,3.2805,3.2541,3.2257,3.1972,3.175,3.147,3.1118,3.086,3.0527,3.0238,2.9944,2.9645,2.9331,2.9048,2.8773,2.8457,2.8136,2.783,2.7536,2.7284,2.6998,2.67,2.6441,2.6134,2.5866,2.5636,2.5363,2.5086,2.4808,2.4557,2.4294,2.396,2.3542,2.2993,2.2447,2.1904,2.1387,2.0873,2.0323,1.9846,1.9288,1.8806,1.8285,1.7762,1.7235,1.6743,1.6325,1.5944,1.5562,1.5216,4.6131,4.6316,4.6443,4.6638,4.6833,4.7015,4.7231,4.7402,4.7581,4.7724,4.7894,4.8007,4.8148,4.8224,4.8277,4.8351,4.839,4.8462,4.8476,4.8569,4.8662,4.8743,4.8799,4.8821,4.8922,4.877,4.8241,4.7688,4.71,4.6558,4.6027,4.5473,4.4962,4.4429,4.3805,4.3271,4.2757,4.2152,4.1616,4.1129,4.0638,4.0163,3.9674,3.9166,3.8731,3.8259,3.7807,3.7374,3.687,3.6367,3.5865,3.5416,3.5003,3.4695,3.4404,3.4166,3.3857,3.3582,3.3291,3.3016,3.2775,3.25,3.2206,3.1931,3.1638,3.1359,3.1181,3.0897,3.0571,3.0227,2.9943,2.9669,2.9319,2.9021,2.8684,2.8414,2.8152,2.7792,2.7449,2.7148,2.6869,2.6558,2.6287,2.6002,2.5721,2.5426,2.5172,2.4926,2.4667,2.4365,2.4101,2.3826,2.3541,2.3186,2.2779,2.2191,2.1651,2.1116,2.0568,2.0022,1.9482,1.8939,1.8428,1.7954,1.744,1.6887,1.6336,1.5852,1.5401,1.5026,1.4689,1.4312,4.5467,4.5599,4.5754,4.5942,4.6071,4.6281,4.6466,4.6593,4.6741,4.6923,4.7034,4.7218,4.7301,4.7408,4.7457,4.7539,4.7608,4.7688,4.7755,4.7797,4.7862,4.7926,4.8024,4.8086,4.8156,4.8028,4.7541,4.6994,4.6447,4.5856,4.5299,4.4775,4.4308,4.3748,4.3153,4.2604,4.2077,4.1549,4.1021,4.0437,3.9983,3.9476,3.9024,3.8538,3.8102,3.7652,3.7183,3.6735,3.6267,3.5821,3.5307,3.4862,3.4398,3.4094,3.3843,3.3572,3.332,3.3016,3.2727,3.2475,3.2222,3.1969,3.1681,3.1376,3.1105,3.0817,3.058,3.0272,2.9944,2.9679,2.9359,2.907,2.8737,2.8433,2.8097,2.7757,2.7439,2.7092,2.6788,2.6538,2.6248,2.5951,2.5686,2.5379,2.5113,2.4832,2.4547,2.4272,2.3992,2.3713,2.3414,2.3128,2.2879,2.2452,2.1972,2.1429,2.0894,2.0365,1.9793,1.9259,1.8719,1.818,1.7605,1.7106,1.6562,1.6015,1.5436,1.4926,1.4557,1.4189,1.382,1.3447,4.4855,4.4983,4.5135,4.5294,4.5452,4.5574,4.573,4.585,4.6002,4.612,4.6293,4.6443,4.6524,4.6603,4.6716,4.6793,4.6858,4.6931,4.7003,4.7074,4.7168,4.7236,4.7302,4.7392,4.7455,4.7368,4.6822,4.6316,4.5776,4.516,4.4612,4.4096,4.3604,4.3086,4.2535,4.1982,4.1406,4.0909,4.0366,3.9789,3.9305,3.8856,3.8407,3.7937,3.749,3.7022,3.6589,3.6132,3.5667,3.5203,3.4727,3.4286,3.3845,3.3525,3.3259,3.2992,3.2725,3.2425,3.214,3.1892,3.1607,3.1326,3.1078,3.0759,3.0493,3.0241,2.9962,2.9664,2.9382,2.9079,2.8757,2.8431,2.8117,2.7781,2.7459,2.7134,2.6783,2.645,2.6126,2.5844,2.5593,2.5278,2.4982,2.4702,2.4416,2.4114,2.3816,2.3549,2.3284,2.2977,2.2699,2.2394,2.2124,2.1711,2.1275,2.0666,2.0141,1.9581,1.9051,1.8487,1.7916,1.7384,1.682,1.629,1.5756,1.522,1.4614,1.4074,1.3714,1.3353,1.299,1.2583,4.4309,4.4409,4.4568,4.4666,4.4829,4.4949,4.5042,4.5133,4.5248,4.5428,4.5583,4.5641,4.5744,4.5876,4.5959,4.6063,4.6133,4.62,4.6266,4.6398,4.6501,4.6589,4.6681,4.6738,4.6827,4.671,4.6173,4.5668,4.5102,4.4529,4.3956,4.3449,4.2974,4.2465,4.1922,4.1345,4.0768,4.0223,3.971,3.9185,3.8728,3.827,3.7836,3.7369,3.6869,3.6438,3.5996,3.551,3.5069,3.4554,3.4127,3.3657,3.3241,3.2924,3.2641,3.2345,3.2062,3.18,3.1504,3.1222,3.0973,3.0678,3.0415,3.0134,2.9866,2.9586,2.9296,2.9061,2.8809,2.8468,2.8107,2.7793,2.7477,2.7091,2.6802,2.6491,2.6143,2.5791,2.5469,2.5143,2.4839,2.4564,2.425,2.3955,2.3674,2.3399,2.3107,2.2784,2.2526,2.2217,2.1911,2.1666,2.1362,2.0986,2.0563,1.9978,1.9385,1.8831,1.8338,1.7769,1.7137,1.6585,1.6067,1.5529,1.5009,1.4497,1.3863,1.3329,1.2975,1.262,1.2224,1.1791,4.4111,4.4157,4.4262,4.4339,4.4441,4.4483,4.4582,4.4681,4.4718,4.4839,4.4966,4.5059,4.5135,4.526,4.5392,4.5462,4.5584,4.5643,4.5728,4.5851,4.5972,4.6058,4.6142,4.6253,4.6334,4.621,4.5681,4.5152,4.4622,4.3997,4.3466,4.2967,4.2402,4.1861,4.1301,4.0758,4.0214,3.9644,3.9115,3.8619,3.8132,3.7712,3.7214,3.6739,3.6243,3.578,3.5309,3.4828,3.4336,3.3824,3.3389,3.2944,3.2479,3.2176,3.1863,3.1583,3.1303,3.1002,3.0764,3.0485,3.0206,2.9927,2.9649,2.9331,2.9054,2.8777,2.8475,2.8178,2.7936,2.7603,2.7286,2.6998,2.6626,2.6285,2.5975,2.5628,2.5329,2.4976,2.4668,2.4313,2.4012,2.3707,2.3424,2.3181,2.2887,2.2583,2.2307,2.2037,2.175,2.1433,2.1118,2.085,2.0538,2.0185,1.9775,1.9233,1.8652,1.807,1.755,1.7,1.6459,1.591,1.5321,1.4813,1.4311,1.3808,1.3252,1.2725,1.238,1.1989,1.1558,1.1171,4.3921,4.394,4.3933,4.4015,4.4063,4.4078,4.4124,4.4229,4.424,4.4282,4.4356,4.4449,4.4522,4.4674,4.4796,4.4917,4.5031,4.5143,4.5193,4.5303,4.5415,4.5587,4.5663,4.5767,4.587,4.5744,4.5192,4.464,4.4116,4.3532,4.2977,4.2487,4.1898,4.1308,4.0749,4.0217,3.965,3.9088,3.8501,3.8012,3.7563,3.7115,3.6611,3.614,3.5614,3.5202,3.4669,3.4115,3.3627,3.3172,3.2699,3.2237,3.1744,3.1444,3.1144,3.0845,3.0546,3.027,3.0047,2.9771,2.9422,2.9167,2.8872,2.8599,2.8294,2.7969,2.7653,2.7345,2.7012,2.6734,2.6441,2.6151,2.5804,2.5456,2.5141,2.4807,2.4454,2.4149,2.3824,2.3499,2.3201,2.2913,2.2649,2.2379,2.2081,2.1797,2.1519,2.1256,2.0964,2.0688,2.0383,2.0092,1.9801,1.9431,1.9011,1.8502,1.7937,1.7362,1.6863,1.6362,1.5879,1.5289,1.471,1.4199,1.3743,1.3246,1.27,1.2255,1.1915,1.1482,1.1085,1.0746,4.3707,4.3702,4.3728,4.3691,4.3715,4.3707,4.3727,4.3778,4.3799,4.3787,4.3774,4.3867,4.3965,4.4109,4.4222,4.4363,4.4472,4.4577,4.4619,4.4721,4.4854,4.5018,4.5117,4.5214,4.5341,4.5245,4.4672,4.4099,4.3587,4.301,4.2495,4.1949,4.1366,4.0786,4.0209,3.9654,3.9071,3.8545,3.8024,3.7502,3.6994,3.6525,3.6051,3.5495,3.4966,3.4501,3.4006,3.3488,3.3027,3.2535,3.2045,3.1555,3.1067,3.0724,3.0427,3.0184,2.9879,2.9562,2.9267,2.8951,2.8627,2.8303,2.8042,2.7813,2.7501,2.717,2.687,2.655,2.6188,2.5866,2.5564,2.5311,2.4955,2.4618,2.4311,2.3954,2.3676,2.3334,2.3008,2.2727,2.2398,2.213,2.1871,2.1592,2.129,2.1055,2.0766,2.0477,2.0194,1.9917,1.9621,1.9375,1.9142,1.8724,1.8314,1.781,1.7298,1.6791,1.6257,1.573,1.5231,1.4677,1.4137,1.3676,1.3227,1.2803,1.2282,1.1852,1.1506,1.1099,1.0698,1.038,4.3468,4.3436,4.3435,4.3371,4.3368,4.3334,4.3298,4.3325,4.3351,4.3312,4.3245,4.3278,4.3374,4.3509,4.3643,4.3776,4.3907,4.3973,4.4069,4.4196,4.4321,4.4477,4.46,4.4754,4.4841,4.4776,4.4183,4.3589,4.3056,4.2523,4.1956,4.1388,4.0818,4.0248,3.9709,3.9134,3.8588,3.8041,3.7497,3.6925,3.6423,3.5953,3.5458,3.4933,3.4352,3.386,3.3395,3.2906,3.2418,3.1931,3.139,3.0875,3.036,3.005,2.9756,2.9485,2.9169,2.8823,2.8479,2.8143,2.7884,2.7564,2.7253,2.7005,2.6696,2.6379,2.6063,2.573,2.5388,2.5055,2.4752,2.4489,2.4145,2.383,2.3496,2.3161,2.2827,2.2499,2.223,2.1895,2.1646,2.135,2.108,2.0821,2.0557,2.0255,1.9991,1.9691,1.9431,1.9164,1.8903,1.8667,1.8435,1.8075,1.7653,1.7155,1.6653,1.6182,1.5657,1.515,1.4691,1.4163,1.3701,1.3201,1.2792,1.234,1.188,1.144,1.1135,1.0749,1.0404,1.0074,4.3235,0.0,4.3113,4.3053,4.2961,4.2931,0.0,4.2806,4.2837,4.2836,4.2741,4.2742,4.2742,4.2932,4.3089,4.3276,4.3305,4.3396,4.3547,4.3697,4.3877,4.3995,4.411,4.4288,4.4369,4.4242,4.366,4.3109,4.2525,4.2006,4.1452,4.0864,4.0275,3.9716,3.9217,3.8683,3.8086,3.7549,3.6983,3.642,3.5923,3.5432,3.4933,3.4355,3.3785,3.3355,3.2839,3.2375,3.186,3.1292,3.0788,3.0247,2.9678,2.94,2.9108,2.8763,2.8427,2.8061,2.772,2.7409,2.7137,2.6822,2.6462,2.614,2.5834,2.5604,2.5227,2.491,2.4607,2.429,2.3945,2.3692,2.3368,2.3023,2.2688,2.2324,2.1972,2.1717,2.1422,2.1091,2.0841,2.0584,2.0269,2.0015,1.9772,1.9478,1.9211,1.8951,1.8714,1.8487,1.8179,1.7922,1.7685,1.7414,1.705,1.6504,1.6011,1.5583,1.5059,1.4597,1.4167,1.3702,1.3269,1.2776,1.2333,1.1929,1.1479,1.1079,1.0744,1.0375,1.0018,0.9685,0.0,4.2952,4.289,4.28,4.268,4.2559,4.2468,4.2377,0.0,4.2259,4.2167,4.2166,4.2163,4.2377,4.2559,4.2705,4.2792,4.2875,4.3052,4.3193,4.3367,4.3445,4.3617,4.3783,4.3923,4.3796,4.3196,4.2631,4.2059,4.152,4.0979,4.0435,3.9827,3.9249,3.8731,3.8149,3.7625,3.7008,3.6422,3.5868,3.5378,3.4889,3.437,3.3855,3.3258,3.2773,3.2289,3.1745,3.1211,3.0679,3.0144,2.9611,2.9109,2.8771,2.8404,2.8033,2.7728,2.7448,2.7062,2.6708,2.6384,2.6073,2.5745,2.5372,2.5047,2.4752,2.443,2.412,2.3782,2.3451,2.3143,2.2864,2.2557,2.22,2.1845,2.154,2.1236,2.0932,2.0608,2.0294,2.0015,1.979,1.9477,1.9216,1.8996,1.8736,1.846,1.8258,1.8002,1.7785,1.7516,1.7256,1.7005,1.6717,1.6397,1.5849,1.5407,1.4965,1.4536,1.4095,1.3625,1.3207,1.2767,1.2299,1.1864,1.1461,1.1045,1.0644,1.0238,0.9877,0.9502,0.9114,4.2853,4.2731,4.264,4.2523,4.2371,4.2219,4.2067,4.1946,4.1858,4.1736,4.1615,4.1581,4.1638,4.1812,4.1986,4.2158,4.2269,4.2374,4.2543,4.2717,4.2855,4.2955,4.3083,4.3276,4.3477,4.338,4.2726,4.2182,4.1658,4.1031,4.0503,4.0008,3.9385,3.879,3.8253,3.7683,3.7111,3.6476,3.5901,3.5355,3.4842,3.4329,3.3847,3.328,3.2743,3.2208,3.17,3.1107,0.0,3.0109,2.9496,2.9024,2.8499,2.8109,2.7774,2.7357,2.7054,2.6776,2.6369,2.6016,2.564,2.5338,2.5014,2.4647,2.4277,2.3904,2.3614,2.3315,2.2986,2.2616,2.2321,2.2054,2.1711,2.1369,2.1002,2.0707,2.0467,2.0136,1.9806,1.9473,1.9218,1.8948,1.8675,1.8446,1.8231,1.7974,1.7751,1.7522,1.7295,1.7061,1.6816,1.6582,1.6343,1.6054,1.5732,1.5223,1.4788,1.4354,1.3951,1.3536,1.307,1.2643,1.2235,1.1761,1.1348,1.094,1.0503,1.0073,0.9579,0.9203,0.8798,0.8316,4.2602,4.2453,4.2333,4.2183,4.2034,4.1849,4.1693,4.1579,4.1424,4.127,4.1085,4.102,4.1044,4.1234,4.1436,4.163,4.1705,4.1838,4.2029,4.216,4.2328,4.2487,4.2577,4.2772,4.2967,4.2899,4.2325,4.172,4.1152,4.0545,4.0001,3.9455,3.8877,3.8297,3.7777,3.7192,3.6603,3.6013,3.5479,3.4943,3.4377,3.3812,3.3249,3.2717,3.2186,3.1628,3.1098,3.0572,2.9991,2.9468,2.8892,2.8343,2.7855,2.7441,2.7083,2.6726,2.6371,2.6018,2.5637,2.5286,2.4937,2.4564,2.4218,2.3904,2.3484,2.3118,2.2727,2.2438,2.2121,2.1786,2.1477,2.1241,2.0882,2.0551,2.0169,1.9865,1.9611,1.9267,1.8948,1.865,1.839,1.81,1.7829,1.7622,1.7457,1.7177,1.6939,1.6762,1.658,1.634,1.6087,1.5865,1.5687,1.539,1.5048,1.4648,1.4191,1.3723,1.3324,1.2888,1.2456,1.2041,1.1631,1.1134,1.0683,1.0302,0.9825,0.9294,0.8791,0.8353,0.7881,0.7259,4.2428,4.2214,4.2029,4.1844,4.169,4.1468,4.1285,4.1138,4.0947,4.0764,4.0544,4.0478,4.05,4.0688,4.0874,4.1107,4.1167,4.1322,4.1543,4.1706,4.183,4.1952,4.2131,4.228,4.244,4.2412,4.1891,4.1271,4.0678,4.0093,3.9498,3.8974,3.8374,3.7808,3.7309,3.6737,3.6133,3.5556,3.5035,3.4451,3.3863,3.3305,3.275,3.2196,3.1701,3.1092,3.0513,2.9994,2.9448,2.8876,2.8307,2.7767,2.7257,2.6816,2.6434,2.6108,2.5728,2.5323,2.4947,2.4545,2.4173,2.3802,2.3461,2.3095,2.2704,2.2315,2.1928,2.1593,2.1335,2.098,2.0626,2.0372,2.0047,1.9673,1.9326,1.8982,1.8713,1.8373,1.806,1.7772,1.7506,1.7236,1.7012,1.6806,1.6643,1.6389,1.6154,1.5981,1.5804,1.5604,1.5357,1.5145,1.4963,1.4655,1.4329,1.3962,1.3497,1.3013,1.2616,1.2208,1.1759,1.1341,1.0899,1.0366,0.9941,0.9545,0.8967,0.8384,0.7789,0.7257,0.6706,0.5948,4.2229,4.1977,4.1736,4.1533,4.1341,4.1091,4.0908,4.0755,4.0439,4.0219,4.0038,3.9962,3.9971,4.016,4.0349,4.0537,4.0696,4.0816,4.1059,4.1176,4.1333,4.1449,4.162,4.1818,4.1973,4.1875,4.1411,4.0846,4.0238,3.9669,3.9068,3.8465,3.7878,3.7299,3.678,3.6251,3.5725,3.5105,3.4539,3.3996,3.3415,3.2805,3.2231,3.1684,3.1169,3.0596,2.9968,2.9429,2.8835,2.8271,2.7766,2.7179,2.6621,2.621,2.5801,2.545,2.5045,2.4615,2.4268,2.3843,2.3393,2.3051,2.2632,2.2241,2.1878,2.1516,2.1131,2.08,2.0549,2.0145,1.9794,1.952,1.915,1.8782,1.8439,1.8123,1.7858,1.7499,1.7119,1.6859,1.6607,1.6381,1.6154,1.5948,1.5786,1.5575,1.5364,1.5149,1.4954,1.4822,1.4602,1.4401,1.4221,1.3892,1.3569,1.317,1.2721,1.2243,1.1887,1.1444,1.0924,1.0522,1.0078,0.9526,0.9037,0.8626,0.7959,0.7272,0.6591,0.5993,0.5332,0.4457,4.2074,4.1783,4.1532,4.127,4.1009,4.0691,4.047,4.021,3.999,3.9731,3.9512,3.9433,3.9409,3.9592,3.9774,3.9956,4.0109,4.0318,4.0484,4.0664,4.0842,4.0993,4.1171,4.1361,4.1537,4.1482,4.0936,4.0387,3.9766,3.9252,3.8627,3.8012,3.7477,3.6884,3.6288,3.5717,3.5206,3.4601,3.4077,3.3513,3.2885,3.2318,3.1721,3.1182,3.0586,3.0051,2.9492,2.8905,2.8289,2.7733,2.7181,2.6575,2.5999,2.559,2.521,2.4778,2.4374,2.3972,2.3545,2.3121,2.2725,2.2305,2.1859,2.147,2.1055,2.0641,2.0258,1.9905,1.9605,1.923,1.8906,1.8661,1.8289,1.7919,1.7604,1.7287,1.695,1.6619,1.6287,1.5931,1.5668,1.5438,1.5253,1.5091,1.4924,1.4712,1.4498,1.4283,1.411,1.3958,1.374,1.3563,1.3406,1.3144,1.2822,1.2384,1.1951,1.1525,1.107,1.0606,1.0148,0.9681,0.9167,0.8554,0.8004,0.7512,0.6785,0.6022,0.5235,0.4479,0.3688,0.2819,4.1826,4.1562,4.127,4.0966,4.0675,4.0358,4.0027,3.9766,3.9505,3.9204,3.8944,3.8862,3.8834,3.901,3.9186,3.9361,3.9605,3.9779,3.9937,4.0153,4.0353,4.0525,4.0696,4.0868,4.111,4.1056,4.0498,3.9894,3.9331,3.8764,3.8195,3.7623,3.7075,3.6497,3.5797,3.5214,3.4719,3.4164,3.3592,3.3039,3.242,3.1802,3.1215,3.0629,3.0041,2.9518,2.8939,2.8334,2.7726,2.7178,2.6553,2.5957,2.5391,2.4983,2.4577,2.4116,2.3712,2.3283,2.2828,2.2404,2.2035,2.1562,2.1117,2.0702,2.0231,1.9789,1.9386,1.9033,1.8681,1.8381,1.8061,1.7792,1.7437,1.7036,1.6745,1.6407,1.6019,1.5754,1.5418,1.501,1.4732,1.4522,1.4356,1.4209,1.4035,1.384,1.3621,1.3422,1.3245,1.3089,1.2869,1.2711,1.2574,1.233,1.2023,1.1553,1.1131,1.0737,1.0185,0.9682,0.9262,0.8715,0.8116,0.7482,0.6872,0.6276,0.5495,0.4668,0.3805,0.2894,0.1948,0.1049,4.1581,4.1288,4.0953,4.0646,4.034,3.998,3.9647,3.9327,3.9038,3.8707,3.8351,3.825,3.8244,3.8483,3.8652,3.882,3.9085,3.9279,3.9446,3.9657,3.985,4.0087,4.0253,4.0463,4.0628,4.0595,4.0008,3.9464,3.8917,3.8271,3.7718,3.7163,3.6604,3.6016,3.5359,3.4765,3.4249,3.3722,3.3172,3.2595,3.1985,3.1351,3.0712,3.0142,2.9541,2.8936,2.8335,2.7768,2.7173,2.6524,2.5935,2.5405,2.4877,2.4359,2.3925,2.3489,2.303,2.2602,2.2122,2.1695,2.124,2.077,2.0325,1.9935,1.9439,1.894,1.8585,1.8205,1.7798,1.7522,1.7218,1.6924,1.6518,1.6115,1.5798,1.5475,1.5126,1.4788,1.4451,1.4052,1.3833,1.3686,1.3485,1.3302,1.3119,1.2955,1.2772,1.2545,1.2356,1.2235,1.2071,1.1883,1.1695,1.1439,1.1122,1.0701,1.0237,0.9753,0.9223,0.8711,0.8267,0.7635,0.697,0.6392,0.5716,0.4953,0.4102,0.3201,0.229,0.1279,0.0191,-0.0889,4.1423,4.1042,4.0705,4.0353,3.9973,3.9611,3.9233,3.8909,3.8576,3.8225,3.7893,3.7692,3.7707,3.7895,3.8102,3.8309,3.8522,3.8754,3.896,3.9121,3.9327,3.9584,3.9744,3.995,4.0155,4.0078,3.9554,3.9,3.8373,3.7814,3.7251,3.6643,3.6101,3.553,3.493,3.4353,3.3798,3.3252,3.2681,3.2099,3.1472,3.0839,3.0244,2.9651,2.9035,2.8414,2.7796,2.7213,2.6627,2.5988,2.5353,2.4808,2.4261,2.3744,2.3255,2.2843,2.2383,2.1931,2.1448,2.0937,2.0482,2.0058,1.9585,1.9085,1.8611,1.8088,1.7728,1.734,1.6934,1.6649,1.6317,1.5966,1.5579,1.5222,1.4896,1.4543,1.4181,1.3843,1.3496,1.311,1.2889,1.275,1.2566,1.2388,1.2193,1.2043,1.1866,1.1664,1.1506,1.1331,1.1149,1.0967,1.0762,1.0509,1.0171,0.9773,0.9277,0.8742,0.8215,0.7698,0.7155,0.647,0.5772,0.5162,0.4422,0.3555,0.2618,0.1644,0.0706,-0.0384,-0.1533,-0.2683,4.1243,4.0815,4.0502,4.0074,3.9647,3.9238,3.8812,3.8457,3.8103,3.7748,3.742,3.7168,3.7127,3.7308,3.7509,3.7735,3.7987,3.8235,3.8437,3.8638,3.884,3.9066,3.9245,3.9397,3.9623,3.9622,3.9064,3.843,3.7866,3.7375,3.6829,3.6186,3.5635,3.5081,3.4431,3.3912,3.3387,3.2806,3.2198,3.1578,3.0962,3.0374,2.9779,2.9196,2.8565,2.7953,2.7319,2.6689,2.6055,2.5483,2.4858,2.4237,2.3627,2.308,2.2616,2.2148,2.1688,2.1231,2.0686,2.0204,1.9756,1.9294,1.8782,1.8221,1.7725,1.7262,1.6842,1.6454,1.6107,1.5772,1.5379,1.4987,1.4645,1.4305,1.3996,1.3611,1.3185,1.285,1.2517,1.2185,1.1943,1.1761,1.1595,1.143,1.128,1.1088,1.094,1.0765,1.0619,1.0434,1.0182,0.9974,0.9835,0.9552,0.9193,0.8763,0.8237,0.767,0.7185,0.6622,0.5953,0.5244,0.4521,0.3846,0.3032,0.2102,0.1094,0.0073,-0.0916,-0.2039,-0.3225,-0.4398,4.0342,3.992,3.9541,3.9093,3.8689,3.8313,3.7823,3.7405,3.703,3.6612,3.6221,3.6069,3.6011,3.6192,3.6417,3.6648,3.6923,3.7173,3.7424,3.7649,3.7827,3.8054,3.8304,3.8531,3.878,3.8755,3.8179,3.7577,3.6973,3.6442,3.5885,3.537,3.4784,3.4239,3.3648,3.3082,3.2554,3.1958,3.1386,3.0827,3.0194,2.9614,2.9012,2.8402,2.783,2.7168,2.6518,2.593,2.5338,2.4717,2.4131,2.355,2.2917,2.2376,2.1862,2.1344,2.0866,2.0414,1.9831,1.9326,1.8862,1.8356,1.7822,1.722,1.6732,1.6249,1.5758,1.5367,1.5015,1.4645,1.4265,1.3867,1.3487,1.3108,1.276,1.2367,1.1945,1.1569,1.1209,1.0879,1.0632,1.0433,1.0279,1.014,0.9959,0.9821,0.9685,0.9507,0.9304,0.9127,0.898,0.8794,0.8622,0.8345,0.8006,0.7575,0.7075,0.6568,0.6042,0.5482,0.4878,0.4154,0.3416,0.2746,0.1959,0.1111,0.0151,-0.0922,-0.2056,-0.3214,-0.4395,-0.5617,3.9427,3.8984,3.8569,3.8144,3.7703,3.729,3.6809,3.6303,3.5909,3.5499,3.5021,3.49,3.4852,3.5077,3.5308,3.5538,3.5817,3.6116,3.6369,3.6597,3.6799,3.705,3.73,3.7574,3.787,3.7798,3.7252,3.6681,3.6133,3.5538,3.4993,3.4535,3.3956,3.3401,3.2803,3.2271,3.1722,3.1138,3.0602,3.0014,2.9416,2.8857,2.8238,2.7637,2.7063,2.6395,2.5755,2.5201,2.456,2.3956,2.3411,2.2814,2.2244,2.1677,2.1145,2.0556,2.0055,1.9556,1.8981,1.8461,1.7925,1.7396,1.6821,1.6239,1.5732,1.5228,1.47,1.4277,1.3936,1.3531,1.3126,1.2678,1.2289,1.1899,1.151,1.109,1.0686,1.028,0.9903,0.9568,0.9306,0.9113,0.8963,0.8797,0.8619,0.8514,0.841,0.8214,0.8024,0.7835,0.7734,0.7558,0.7344,0.7112,0.6777,0.6317,0.5882,0.5427,0.4862,0.4322,0.3742,0.3058,0.2331,0.1642,0.0893,0.0078,-0.0827,-0.1898,-0.3134,-0.4326,-0.5536,-0.6833,3.8548,3.8112,3.7677,3.7175,3.6674,3.6268,3.5794,3.5322,3.4909,3.4413,3.3878,3.3694,3.3675,3.3999,3.4255,3.4466,3.4745,3.5047,3.5324,3.56,3.5759,3.6033,3.6376,3.6673,3.6872,3.6897,3.6334,3.5771,3.5254,3.4715,3.4132,3.3569,3.3073,3.2552,3.2012,3.1448,3.0973,3.0408,2.9868,2.9227,2.8638,2.8052,2.748,2.6839,2.6226,2.5627,2.5087,2.4508,2.3852,2.3225,2.2642,2.2078,2.1511,2.0963,2.0413,1.9831,1.9276,1.8703,1.8127,1.7543,1.6986,1.6425,1.584,1.526,1.4685,1.4134,1.3634,1.3206,1.2811,1.2384,1.1941,1.1497,1.1096,1.0678,1.0257,0.9847,0.9421,0.8993,0.8574,0.8152,0.7945,0.7791,0.7678,0.7516,0.7284,0.7213,0.7093,0.6965,0.6756,0.6557,0.6431,0.6264,0.6067,0.5818,0.5503,0.5025,0.462,0.4193,0.3683,0.3103,0.2482,0.193,0.1329,0.0575,-0.019,-0.0993,-0.1856,-0.2895,-0.4089,-0.538,-0.6742,-0.811,3.7718,3.7221,3.6698,3.6204,3.5711,3.5219,3.4754,3.429,3.3817,3.3305,3.2739,3.2586,3.2572,3.2862,3.3142,3.3403,3.3663,3.3945,3.4313,3.4568,3.4821,3.5071,3.5345,3.5662,3.5908,3.5932,3.5377,3.4891,3.4382,3.3805,3.3253,3.2703,3.2172,3.1708,3.1201,3.0653,3.0122,2.9577,2.9071,2.8489,2.7886,2.7285,2.6724,2.6128,2.55,2.491,2.4323,2.3763,2.314,2.2531,2.1949,2.1394,2.0836,2.0241,1.9616,1.904,1.8448,1.7883,1.7264,1.668,1.6083,1.5482,1.4878,1.4279,1.3669,1.3054,1.2569,1.2105,1.167,1.1232,1.079,1.0333,0.987,0.9445,0.8973,0.8539,0.8152,0.7717,0.7277,0.6776,0.6546,0.6442,0.6315,0.6173,0.5952,0.585,0.5748,0.5631,0.5428,0.5233,0.5101,0.4963,0.4731,0.4489,0.4211,0.3758,0.3324,0.2897,0.2415,0.1886,0.1284,0.0779,0.02,-0.0536,-0.1283,-0.2073,-0.2868,-0.3896,-0.5144,-0.6515,-0.7928,-0.9409,3.6841,3.6325,3.5771,3.5257,3.4784,3.4274,3.3752,3.3167,3.2662,3.2159,3.1669,3.1483,3.1419,3.1709,3.2021,3.2307,3.2615,3.2921,3.3249,3.357,3.387,3.4074,3.4369,3.4662,3.4929,3.4978,3.4499,3.3997,3.3495,3.2903,3.2339,3.1843,3.1344,3.0845,3.0376,2.9773,2.9212,2.8747,2.826,2.7726,2.711,2.6496,2.6005,2.536,2.4742,2.4163,2.3564,2.2957,2.241,2.1866,2.127,2.0663,2.0137,1.946,1.8841,1.8228,1.7644,1.7015,1.6405,1.5801,1.5232,1.4583,1.3941,1.3278,1.2634,1.2004,1.1472,1.0969,1.0505,1.0081,0.9623,0.9155,0.8639,0.8138,0.771,0.7255,0.6841,0.6387,0.593,0.5417,0.5137,0.5007,0.4915,0.4784,0.4609,0.4473,0.4342,0.4201,0.4065,0.3897,0.3767,0.3604,0.3436,0.3156,0.2874,0.2523,0.2055,0.15,0.1083,0.0642,0.0121,-0.0417,-0.1029,-0.1743,-0.2443,-0.3155,-0.3872,-0.4862,-0.6218,-0.7668,-0.9145,-1.0674,3.5944,3.5408,3.489,3.4319,3.3751,3.3249,3.2711,3.2137,3.1539,3.1007,3.0515,3.0322,3.0264,3.058,3.0918,3.1277,3.1569,3.1858,3.2209,3.2515,3.2769,3.3112,3.3428,3.3697,3.4078,3.408,3.3561,3.3066,3.2594,3.2034,3.1499,3.0944,3.048,2.9994,2.9491,2.8967,2.8462,2.7926,2.7448,2.6949,2.6321,2.5756,2.5142,2.4569,2.3998,2.3408,2.2843,2.2192,2.1656,2.1123,2.0509,1.9922,1.9362,1.8743,1.808,1.7476,1.6839,1.6239,1.5588,1.4944,1.4279,1.364,1.298,1.2271,1.1628,1.0995,1.041,0.9879,0.9379,0.8893,0.8407,0.7892,0.7396,0.6881,0.6454,0.6007,0.5516,0.4994,0.449,0.3977,0.3722,0.3587,0.349,0.3355,0.322,0.3051,0.2882,0.2744,0.2609,0.2473,0.2338,0.2172,0.1968,0.1756,0.1509,0.1128,0.0722,0.0259,-0.0192,-0.0632,-0.106,-0.1599,-0.2183,-0.2843,-0.3494,-0.4188,-0.4907,-0.5936,-0.7307,-0.8795,-1.0325,-1.185,3.504,3.4475,3.3938,3.334,3.2744,3.2224,3.1632,3.1095,3.0482,2.9898,2.9316,2.9107,2.9118,2.9445,2.9793,3.0152,3.0452,3.0805,3.1203,3.149,3.1772,3.2136,3.2476,3.2765,3.3166,3.3214,3.2655,3.2144,3.1657,3.1151,3.0623,3.0098,2.9556,2.9105,2.8569,2.8118,2.765,2.7122,2.6597,2.6131,2.5577,2.4942,2.4318,2.3778,2.322,2.2677,2.2067,2.1451,2.0905,2.0362,1.9782,1.9185,1.8585,1.7973,1.7369,1.6712,1.6034,1.5383,1.474,1.4058,1.3317,1.2659,1.1981,1.1255,1.0581,0.9943,0.9318,0.8739,0.8214,0.7697,0.7159,0.6618,0.6093,0.5585,0.5124,0.4633,0.4134,0.3523,0.2964,0.2496,0.2265,0.2091,0.1989,0.1886,0.1749,0.1574,0.1399,0.1261,0.1157,0.1053,0.0878,0.0703,0.0528,0.035,0.0139,-0.0275,-0.0645,-0.1005,-0.1454,-0.1889,-0.2285,-0.2791,-0.3347,-0.3952,-0.457,-0.5236,-0.5954,-0.6959,-0.8365,-0.9921,-1.1504,-1.3033,3.4212,3.3592,3.2974,3.2421,3.1844,3.1189,3.0618,3.0014,2.9428,2.888,2.8224,2.7988,2.7955,2.8331,2.8679,2.9008,2.9347,2.9666,3.0085,3.0435,3.0805,3.1151,3.1487,3.182,3.2194,3.2287,3.1735,3.1231,3.073,3.0253,2.9778,2.9218,2.8771,2.8241,2.7758,2.7255,2.6755,2.6364,2.587,2.5335,2.4733,2.4134,2.356,2.2989,2.2421,2.1913,2.135,2.0745,2.0157,1.9595,1.9027,1.8464,1.7897,1.7281,1.6633,1.5944,1.5215,1.4495,1.3843,1.3143,1.2371,1.1665,1.094,1.0225,0.9518,0.8827,0.8145,0.7542,0.7016,0.6435,0.5844,0.532,0.4762,0.4223,0.373,0.3191,0.267,0.2029,0.1434,0.0927,0.0681,0.0539,0.0396,0.0289,0.0181,0.0,-0.0144,-0.0217,-0.0327,-0.0437,-0.0619,-0.0764,-0.0839,-0.1018,-0.1265,-0.164,-0.2005,-0.2323,-0.2699,-0.3096,-0.3588,-0.406,-0.4516,-0.5027,-0.5644,-0.6293,-0.6945,-0.7933,-0.9461,-1.1043,-1.2666,-1.424,3.3377,3.2739,3.2069,3.1498,3.0868,3.0226,2.9569,2.895,2.8376,2.7745,2.7078,2.6841,2.6815,2.718,2.7563,2.7917,2.8264,2.8668,2.9004,2.9375,2.9765,3.0131,3.0511,3.0841,3.1188,3.1325,3.0803,3.0328,2.9789,2.932,2.8875,2.8367,2.7864,2.7384,2.6888,2.6436,2.5925,2.5544,2.504,2.4554,2.3926,2.3362,2.278,2.2222,2.161,2.1115,2.0532,1.9987,1.9433,1.8872,1.8296,1.7766,1.7211,1.6512,1.5843,1.5123,1.4342,1.3602,1.2902,1.217,1.142,1.0651,0.9908,0.9159,0.8415,0.7652,0.6902,0.6268,0.5712,0.507,0.4496,0.3932,0.3348,0.2784,0.2232,0.1663,0.1072,0.0423,-0.0216,-0.077,-0.0997,-0.1111,-0.1226,-0.134,-0.1453,-0.1567,-0.168,-0.1796,-0.1915,-0.2032,-0.2149,-0.2265,-0.2345,-0.2488,-0.2733,-0.3025,-0.3347,-0.3659,-0.3986,-0.438,-0.4828,-0.5259,-0.5715,-0.6186,-0.6759,-0.7391,-0.7983,-0.8982,-1.0507,-1.2114,-1.3714,-1.5337,3.2537,3.1874,3.122,3.0569,2.9917,2.9294,0.0,2.7888,2.7268,2.6626,2.5906,2.5737,2.5743,2.6041,2.6473,2.6862,2.7256,2.7682,2.8001,2.8312,2.8721,2.9124,2.9503,2.9831,3.0261,3.0352,2.9881,2.939,2.8903,2.8397,2.7915,2.7438,2.6985,2.6555,2.6046,2.5602,2.5141,2.4685,2.4209,2.3674,2.312,2.2569,2.2021,2.1456,2.0858,2.0285,1.9736,1.9206,1.8633,1.8086,1.7576,1.7008,1.6486,1.5734,1.5012,1.4252,1.3463,1.2673,1.1896,1.1173,1.0461,0.9658,0.8878,0.8052,0.722,0.639,0.5582,0.4866,0.4268,0.3665,0.3071,0.2446,0.1868,0.1266,0.0647,0.0,-0.0708,-0.1303,-0.192,-0.2523,-0.2772,-0.2861,-0.2949,-0.2994,-0.3074,-0.3154,-0.3241,-0.3445,-0.3572,-0.3692,-0.3746,-0.3832,-0.3918,-0.4061,-0.4229,-0.4432,-0.4701,-0.5008,-0.5359,-0.57,-0.6062,-0.6457,-0.6904,-0.7391,-0.792,-0.8477,-0.9028,-1.0007,-1.1541,-1.3129,-1.475,-1.636,0.0,0.0,0.0,0.0,0.0,0.0,0.0,2.6932,2.6216,2.5537,2.4857,2.4609,2.458,2.4986,2.5383,2.5795,2.6176,2.6562,2.691,2.7327,2.7754,2.8134,2.8551,2.8897,2.9279,2.939,2.8947,2.8463,2.8026,2.7526,2.7095,2.6581,2.6134,2.5649,2.5251,2.4793,2.4338,2.3846,2.3359,2.2895,2.2295,2.1738,2.1184,2.0653,2.0106,1.955,1.9015,1.8519,1.7906,1.7288,1.6793,1.6259,1.5719,1.4956,1.4194,1.3431,1.262,1.1779,1.095,1.0131,0.9341,0.85,0.7681,0.6843,0.5925,0.5033,0.4205,0.3477,0.2834,0.2198,0.157,0.0916,0.0267,-0.0374,-0.1043,-0.1705,-0.2398,-0.3046,-0.3677,-0.4297,-0.4532,-0.4674,-0.4723,-0.4816,-0.487,-0.4886,-0.4906,-0.5041,-0.5176,-0.5266,-0.5322,-0.5379,-0.5395,-0.554,-0.5699,-0.5879,-0.6133,-0.6414,-0.6695,-0.6987,-0.7264,-0.7685,-0.8112,-0.8486,-0.8939,-0.9465,-0.9976,-1.0926,-1.2455,-1.4141,-1.5858,-1.7535,0.0,0.0,0.0,0.0,0.0,0.0,0.0,0.0,0.0,0.0,0.0,2.3483,2.3487,0.0,2.433,2.4742,2.511,2.5467,2.5873,2.6309,2.676,2.7158,2.7549,2.7955,2.8376,2.8461,2.8047,2.7547,2.7072,2.6643,2.6217,2.5731,2.5227,2.4789,2.4376,2.3944,2.3536,2.3008,2.2528,2.2074,2.1488,2.0946,2.0387,1.9834,1.9302,1.8795,1.8239,1.7742,1.7111,1.6541,1.6014,1.5494,1.492,1.4183,1.3382,1.2582,1.1719,1.0855,0.9943,0.9072,0.8214,0.7331,0.6437,0.5554,0.4583,0.3568,0.2732,0.1982,0.1276,0.0636,-0.0032,-0.0732,-0.1429,-0.212,-0.2807,-0.3525,-0.4169,-0.4872,-0.5523,-0.6159,-0.6382,-0.6501,-0.6554,-0.6621,-0.6688,-0.6641,-0.6627,-0.6728,-0.679,-0.6851,-0.6912,-0.694,-0.6919,-0.7022,-0.7179,-0.734,-0.757,-0.7825,-0.8062,-0.8308,-0.8496,-0.8886,-0.9311,-0.9589,-0.9996,-1.0477,-1.0942,-1.1903,-1.3426,-1.5196,-1.6956,-1.8681,0.0,0.0,0.0,0.0,0.0,0.0,0.0,0.0,0.0,0.0,0.0,0.0,0.0,0.0,0.0,2.3715,2.407,2.4425,2.4829,2.529,2.5719,2.6155,2.6584,2.7005,2.744,2.7588,2.7091,2.6683,2.6235,2.5726,2.5285,2.4888,2.441,2.3914,2.3547,2.3098,2.2612,2.2231,2.1735,2.1229,2.0677,0.0,1.9608,1.9051,1.8425,1.7934,1.7393,1.6859,1.6382,1.5826,1.5248,1.4711,1.4167,1.3377,1.2524,1.1609,1.0738,0.9865,0.8885,0.7961,0.708,0.6111,0.5131,0.418,0.312,0.2037,0.0,0.037,-0.0378,-0.1064,-0.1781,-0.2535,-0.3287,-0.4,-0.4686,-0.5351,-0.6016,-0.6745,-0.7421,-0.8079,-0.8331,-0.8422,-0.8414,-0.8415,-0.8489,-0.8447,-0.8438,-0.8513,-0.8496,-0.8428,-0.8426,-0.8416,-0.8448,-0.8517,-0.8629,-0.8812,-0.8974,-0.9182,-0.9424,-0.9643,-0.9837,-1.0147,-1.0485,-1.0816,-1.117,-1.1554,-1.1985,-1.291,-1.4502,-1.6227,-1.7962,-1.9766,0.0,0.0,0.0,0.0,0.0,0.0,0.0,0.0,0.0,0.0,0.0,0.0,0.0,0.0,0.0,0.0,2.2989,2.3409,2.3773,2.4272,2.4738,2.5128,2.5571,2.6026,2.6474,2.6595,2.6147,2.5723,2.5344,2.4862,2.4404,2.3969,0.0,0.0,0.0,2.2233,2.1789,2.1389,2.0919,2.038,1.9843,1.9332,1.8807,1.8228,1.7618,1.7143,1.66,1.6029,1.5551,1.5045,1.4481,1.3895,1.3335,1.2506,1.1596,1.0689,0.9746,0.8806,0.7772,0.0,0.0,0.4794,0.3768,0.2731,0.1541,0.0393,-0.0581,-0.1403,-0.2172,-0.2878,-0.3619,-0.4401,-0.5148,-0.5896,-0.6556,-0.7256,-0.7943,-0.8663,-0.9376,-1.0052,-1.0294,-1.0406,-1.033,-1.0285,-1.0292,-1.0246,-1.0219,-1.0214,-1.0157,-1.0065,-1.0025,-0.9975,-0.9968,0.0,-1.0102,-1.0265,-1.0406,-1.0542,-1.0757,-1.0917,-1.1101,-1.1344,-1.1605,-1.1943,-1.2245,-1.2626,-1.2978,-1.3895,-1.5525,-1.7272,-1.899,-2.0791,0.0,0.0,0.0,0.0,0.0,0.0,0.0,0.0,0.0,0.0,0.0,0.0,0.0,0.0,0.0,0.0,2.1937,2.2409,2.2778,2.327,2.3751,2.4139,2.4554,2.5,2.5499,2.5636,2.5174,2.4797,2.4442,2.3986,2.3553,2.3057,2.2588,2.2183,2.1817,2.1388,2.0984,2.0504,2.0016,1.9487,1.8966,1.8472,1.802,1.744,1.6846,1.6366,1.582,1.5196,1.4699,1.4194,1.3679,1.309,0.0,0.0,0.0,0.0,0.8745,0.7698,0.6609,0.5493,0.4412,0.3412,0.233,0.1131,-0.0122,-0.1373,-0.2465,-0.3338,-0.4083,-0.482,-0.556,-0.6261,-0.704,-0.7814,-0.8515,-0.923,-0.995,-1.0635,-1.1329,-1.2033,-1.2308,0.0,-1.2287,-1.2161,-1.212,-1.2046,-1.1981,-1.1937,-1.1815,-1.1702,-1.1621,-1.1583,-1.149,-1.1504,-1.1556,-1.1709,0.0,0.0,0.0,-1.2212,-1.2297,-1.2509,0.0,0.0,0.0,-1.3662,-1.3932,-1.484,0.0,0.0,-2.0015,-2.18,0.0,0.0,0.0,0.0,0.0,0.0,0.0,0.0,0.0,0.0,0.0,0.0,0.0,0.0,0.0,0.0,2.1088,2.1505,2.1922,2.2372,2.2774,2.3181,2.3598,2.4004,2.44,2.4561,2.4087,2.3697,2.335,2.2902,2.2498,2.2036,2.1615,2.1197,2.084,2.0403,1.9991,1.9558,1.9058,1.8518,1.8024,1.7519,1.7035,1.6519,1.5936,1.5398,1.4833,1.429,1.379,1.328,1.2698,1.2111,1.1473,1.0542,0.9565,0.8629,0.7576,0.653,0.5448,0.4327,0.3198,0.2093,0.0967,-0.0271,-0.1533,-0.2799,-0.3869,-0.4755,-0.5464,-0.6186,-0.692,-0.7623,-0.8371,-0.9101,-0.9794,-1.046,-1.1146,-1.186,-1.2583,-1.3272,-1.3491,-1.351,-1.3431,-1.3337,-1.3241,-1.3186,-1.3098,-1.3027,-1.3011,-1.3017,-1.2921,-1.2867,-1.279,-1.2722,-1.2721,-1.2801,-1.2857,-1.2943,-1.3055,-1.3164,-1.3219,-1.3426,-1.3599,-1.373,-1.3928,-1.4174,0.0,0.0,0.0,0.0,0.0,0.0,0.0,0.0,0.0,0.0,0.0,0.0,0.0,0.0,0.0,0.0,0.0,0.0,0.0,0.0,0.0,0.0,0.0,0.0,2.104,2.1448,2.1845,2.2175,2.2573,2.2939,2.3335,2.344,2.2975,2.2574,2.2236,2.1819,2.1385,2.0974,2.0583,2.0194,1.9825,1.9422,1.8964,1.8561,1.8091,1.7581,1.7054,1.6555,1.6079,1.5536,1.5001,1.4459,1.3907,1.3394,1.2873,1.2342,1.1725,1.1093,1.0458,0.9529,0.8523,0.7475,0.6435,0.5381,0.4262,0.3142,0.198,0.0806,-0.0386,-0.1625,-0.2863,-0.4112,-0.5178,-0.6053,-0.674,-0.7462,-0.8145,-0.8851,-0.9547,-1.0266,-1.0914,-1.1603,-1.2262,-1.2939,-1.3646,-1.4332,-1.4513,-1.4516,-1.4477,-1.4434,-1.4333,-1.4228,-1.415,0.0,-1.4128,-1.4156,-1.4082,-1.4004,-1.3937,-1.3912,-1.3859,-1.385,-1.3899,-1.3923,-1.4002,-1.4039,-1.4114,-1.4227,-1.4345,-1.4408,-1.4525,-1.4687,-1.4928,0.0,0.0,0.0,0.0,0.0,0.0,0.0,0.0,0.0,0.0,0.0,0.0,0.0,0.0,0.0,0.0,0.0,0.0,0.0,0.0,0.0,0.0,0.0,0.0,2.0535,2.0892,2.1197,2.1478,2.1786,2.2163,2.2292,2.1859,2.1468,2.11,2.0695,2.0274,1.9931,1.9534,1.9119,1.8745,1.8316,1.7891,1.7464,1.7027,1.6564,1.6083,1.5556,1.5052,1.4556,1.4033,1.35,1.2961,1.2433,1.1892,1.1329,1.0715,1.0051,0.9352,0.8427,0.7417,0.6375,0.5331,0.4252,0.3137,0.1985,0.0764,-0.0439,-0.1629,-0.2811,-0.4049,-0.5235,-0.6282,-0.7144,-0.7868,-0.8505,-0.9187,-0.989,-1.0562,-1.1221,-1.1774,-1.2432,-1.3134,-1.3765,-1.4426,-1.51,-1.5325,-1.5397,-1.5363,-1.531,-1.5226,-1.5164,-1.5125,-1.5041,-1.5094,-1.5145,-1.5052,-1.5011,-1.4954,-1.4897,-1.4849,-1.4861,-1.4831,-1.4833,-1.4822,-1.4838,-1.4855,-1.4897,-1.4938,-1.4949,-1.51,-1.5264,-1.5404,0.0,0.0,0.0,0.0,0.0,0.0,0.0,0.0,0.0,0.0,0.0,0.0,0.0,0.0,0.0,0.0,0.0,0.0,0.0,0.0,0.0,0.0,0.0,0.0,0.0,0.0,2.0175,2.0454,0.0,2.1064,2.1157,2.0698,2.0318,1.9961,1.9588,1.9216,1.8847,1.8462,1.8079,1.768,1.7266,1.6891,1.6444,1.6022,1.557,1.5082,1.4582,1.409,1.3587,1.3043,1.2524,1.1967,1.1435,1.0863,1.0271,0.9672,0.8993,0.829,0.7358,0.6354,0.525,0.4176,0.3102,0.196,0.0784,-0.0404,-0.1602,-0.2819,-0.4002,-0.5235,-0.6448,-0.7415,-0.8208,-0.89,-0.9526,-1.0184,-1.0875,-1.1477,-1.2076,-1.267,-1.3312,-1.4018,-1.4635,-1.5299,-1.5956,-1.62,-1.6243,-1.6206,-1.6162,-1.6097,-1.6082,-1.6021,-1.5965,-1.5976,-1.6067,-1.6014,-1.5971,-1.5908,-1.5908,-1.5868,-1.5801,-1.5751,-1.5691,-1.5606,-1.5565,-1.5511,-1.5535,-1.5543,-1.5537,-1.5602,-1.5715,0.0,0.0,0.0,0.0,0.0,0.0,0.0,0.0,0.0,0.0,0.0,0.0,0.0,0.0,0.0,0.0,0.0,0.0,0.0,0.0,0.0,0.0,0.0,0.0,0.0,0.0,0.0,1.9241,1.9462,0.0,0.0,0.0,0.0,1.917,1.8823,1.8498,1.8155,1.7743,1.739,1.7021,1.6619,1.6254,1.5908,1.5496,1.507,1.4583,1.4039,1.3553,1.3138,1.2648,1.2086,1.1549,1.0989,1.0409,0.982,0.9212,0.8597,0.7932,0.726,0.6294,0.5267,0.4106,0.3009,0.1909,0.0716,-0.0426,-0.1496,-0.2746,-0.396,-0.5137,-0.6389,-0.7633,0.0,0.0,-0.9838,-1.0453,-1.1129,-1.1794,-1.2354,-1.2926,-1.3574,-1.4219,-1.4895,-1.5534,-1.6202,-1.6847,-1.7002,-1.6973,-1.6971,0.0,-1.6989,-1.6986,-1.692,-1.6855,-1.6872,-1.694,-1.693,-1.6915,-1.6823,-1.6896,-1.6894,-1.672,-1.6595,-1.6461,-1.6342,-1.6283,-1.6174,-1.6164,-1.6156,-1.6081,-1.6094,0.0,0.0,0.0,0.0,0.0,0.0,0.0,0.0,0.0,0.0,0.0,0.0,0.0,0.0,0.0,0.0,0.0,0.0,0.0,0.0,0.0,0.0,0.0,0.0,0.0,0.0,1.7886,1.8053,1.8285,1.8469,1.8633,0.0,0.0,0.0,0.0,0.0,0.0,1.7096,1.6715,1.634,1.5967,1.5613,1.5245,1.4879,1.4531,1.4087,1.3616,1.3121,1.2602,1.2152,1.1599,1.1056,1.0455,0.9912,0.9391,0.8775,0.8152,0.7519,0.6828,0.6129,0.5172,0.4118,0.2947,0.1884,0.0792,-0.0393,-0.1558,-0.2733,-0.3868,-0.5045,-0.6213,-0.7464,0.0,0.0,0.0,0.0,-1.143,-1.2053,-1.2692,-1.3257,-1.3803,-1.4454,-1.5119,-1.5765,-1.634,-1.6959,-1.7589,-1.7751,-1.7765,-1.7772,-1.7768,0.0,-1.777,-1.778,-1.7726,-1.7795,-1.7816,-1.7854,-1.786,-1.7842,-1.7847,-1.7811,-1.756,-1.7416,-1.728,-1.7142,-1.7009,-1.692,-1.6783,-1.6688,-1.6633,0.0,0.0,0.0,0.0,0.0,0.0,0.0,0.0,0.0,0.0,0.0,0.0,0.0,0.0,0.0,0.0,0.0,0.0,0.0,0.0,0.0,0.0,0.0,0.0,0.0,0.0,0.0,1.7038,1.7198,1.7312,1.7428,1.7568,0.0,0.0,0.0,0.0,0.0,0.0,0.0,0.0,0.0,1.4907,1.4598,1.4227,1.3843,1.3525,1.3115,1.2614,1.2151,1.1679,1.1123,1.0589,1.0003,0.942,0.8845,0.8355,0.7725,0.7085,0.6426,0.5755,0.0,0.0,0.0,0.0,0.0698,-0.0359,-0.1537,-0.2724,-0.3911,-0.4988,0.0,0.0,0.0,0.0,0.0,0.0,0.0,-1.2342,-1.2957,-1.3596,-1.4135,-1.4655,-1.5297,-1.5932,-1.6528,-1.7121,-1.7722,-1.832,-1.8515,-1.8528,-1.8583,-1.8573,0.0,0.0,0.0,-1.86,-1.8648,-1.8724,-1.8733,-1.879,-1.8822,-1.8803,-1.8678,-1.8466,-1.8263,-1.8053,-1.7913,-1.7746,-1.7622,-1.7396,-1.7216,0.0,0.0,0.0,0.0,0.0,0.0,0.0,0.0,0.0,0.0,0.0,0.0,0.0,0.0,0.0,0.0,0.0,0.0,0.0,0.0,0.0,0.0,0.0,0.0,0.0,0.0,0.0,0.0,0.0,1.6276,1.6375,0.0,0.0,0.0,0.0,0.0,0.0,0.0,0.0,0.0,0.0,0.0,0.0,0.0,1.3193,1.2838,1.2519,1.2125,1.166,1.1184,1.0655,1.0118,0.9572,0.9021,0.8396,0.7824,0.0,0.6634,0.5978,0.0,0.0,0.0,0.0,0.0,0.0,0.0,0.0,0.0,0.0,0.0,0.0,0.0,0.0,0.0,0.0,0.0,0.0,0.0,0.0,0.0,0.0,-1.4956,-1.5468,-1.607,-1.6682,-1.7245,-1.7857,-1.8456,-1.898,-1.9247,-1.9336,0.0,0.0,0.0,0.0,0.0,0.0,-1.9509,-1.9622,-1.9669,-1.9705,-1.9706,-1.9666,-1.9573,-1.93,-1.9063,-1.884,-1.8623,-1.8401,-1.817,-1.7967,0.0,0.0,0.0,0.0,0.0,0.0,0.0,0.0,0.0,0.0,0.0,0.0,0.0,0.0,0.0,0.0,0.0,0.0,0.0,0.0,0.0,0.0,0.0,0.0,0.0,0.0,0.0,0.0,0.0,0.0,0.0,0.0,0.0,0.0,0.0,0.0,0.0,0.0,0.0,0.0,0.0,0.0,0.0,0.0,0.0,0.0,0.0,0.0,0.0,0.0,1.0168,0.9645,0.9084,0.8516,0.7925,0.7345,0.6777,0.6186,0.5498,0.4823,0.0,0.0,0.0,0.0,0.0,0.0,0.0,0.0,0.0,0.0,0.0,0.0,0.0,0.0,0.0,0.0,0.0,0.0,0.0,0.0,0.0,0.0,-1.574,-1.6251,-1.6826,-1.7426,-1.8007,0.0,0.0,0.0,0.0,0.0,0.0,0.0,0.0,0.0,0.0,0.0,-2.0291,-2.0426,-2.0509,-2.056,-2.0597,-2.0558,-2.0402,-2.0113,-1.9858,-1.9596,-1.9346,-1.9052,0.0,0.0,0.0,0.0,0.0,0.0,0.0,0.0,0.0,0.0,0.0,0.0,0.0,0.0,0.0,0.0,0.0,0.0,0.0,0.0,0.0,0.0,0.0,0.0,0.0,0.0,0.0,0.0,0.0,0.0,0.0,0.0,0.0,0.0,0.0,0.0,0.0,0.0,0.0,0.0,0.0,0.0,0.0,0.0,0.0,0.0,0.0,0.0,0.0,0.0,0.0,0.0,0.0,0.0,0.0,0.0,0.0,0.0,0.5662,0.5047,0.0,0.0,0.0,0.0,0.0,0.0,0.0,0.0,0.0,0.0,0.0,0.0,0.0,0.0,0.0,0.0,0.0,0.0,0.0,0.0,0.0,0.0,0.0,0.0,0.0,0.0,0.0,0.0,0.0,0.0,0.0,0.0,0.0,0.0,0.0,0.0,0.0,0.0,0.0,0.0,-2.1105,-2.1208,-2.1256,-2.1404,-2.154,-2.1466,-2.1263,-2.0898,-2.0588,-2.031,-2.0045,0.0,0.0,0.0,0.0,0.0,0.0,0.0,0.0,0.0,0.0,0.0,0.0,0.0,0.0,0.0,0.0,0.0,0.0,0.0,0.0,0.0,0.0,0.0,0.0,0.0,0.0,0.0,0.0,0.0,0.0,0.0,0.0,0.0,0.0,0.0,0.0,0.0,0.0,0.0,0.0,0.0,0.0,0.0,0.0,0.0,0.0,0.0,0.0,0.0,0.0,0.0,0.0,0.0,0.0,0.0,0.0,0.0,0.0,0.0,0.4532,0.3926,0.0,0.0,0.0,0.0,0.0,0.0,0.0,0.0,0.0,0.0,0.0,0.0,0.0,0.0,0.0,0.0,0.0,0.0,0.0,0.0,0.0,0.0,0.0,0.0,0.0,0.0,0.0,0.0,0.0,0.0,0.0,0.0,0.0,0.0,0.0,0.0,0.0,0.0,0.0,0.0,-2.1861,-2.1993,-2.2066,-2.2217,-2.239,-2.2321,-2.2118,-2.1737,-2.1352,-2.1022,-2.0686,0.0,0.0,0.0,0.0,0.0,0.0,0.0,0.0,0.0,0.0,0.0,0.0,0.0,0.0,0.0,0.0,0.0,0.0,0.0,0.0,0.0,0.0,0.0,0.0,0.0,0.0,0.0,0.0,0.0,0.0,0.0,0.0,0.0,0.0,0.0,0.0,0.0,0.0,0.0,0.0,0.0,0.0,0.0,0.0,0.0,0.0,0.0,0.0,0.0,0.0,0.0,0.0,0.0,0.0,0.0,0.0,0.0,0.0,0.0,0.0,0.0,0.0,0.0,0.0,0.0,0.0,0.0,0.0,0.0,0.0,0.0,0.0,0.0,0.0,0.0,0.0,0.0,0.0,0.0,0.0,0.0,0.0,0.0,0.0,0.0,0.0,0.0,0.0,0.0,0.0,0.0,0.0,0.0,0.0,0.0,0.0,0.0,0.0,0.0,0.0,0.0,-2.2634,-2.2726,-2.2866,-2.3003,-2.3197,-2.3115,-2.2932,-2.2535,-2.2116,-2.1674,0.0,0.0,0.0,0.0,0.0,0.0,0.0,0.0,0.0,0.0,0.0,0.0,0.0,0.0,0.0,0.0,0.0,0.0,0.0,0.0,0.0,0.0,0.0,0.0,0.0,0.0,0.0,0.0,0.0,0.0,0.0,0.0,0.0,0.0,0.0,0.0,0.0,0.0,0.0,0.0,0.0,0.0,0.0,0.0,0.0,0.0,0.0,0.0,0.0,0.0,0.0,0.0,0.0,0.0,0.0,0.0,0.0,0.0,0.0,0.0,0.0,0.0,0.0,0.0,0.0,0.0,0.0,0.0,0.0,0.0,0.0,0.0,0.0,0.0,0.0,0.0,0.0,0.0,0.0,0.0,0.0,0.0,0.0,0.0,0.0,0.0,0.0,0.0,0.0,0.0,0.0,0.0,0.0,0.0,0.0,0.0,0.0,0.0,0.0,0.0,0.0,0.0,-2.3337,-2.3502,-2.3637,-2.376,-2.3918,-2.3886,-2.3724,-2.3313,-2.2877,-2.238,0.0,0.0,0.0,0.0,0.0,0.0,0.0,0.0,0.0,0.0,0.0,0.0,0.0,0.0,0.0,0.0,0.0,0.0,0.0,0.0,0.0,0.0,0.0,0.0,0.0,0.0,0.0,0.0,0.0,0.0,0.0,0.0,0.0,0.0,0.0,0.0,0.0,0.0,0.0,0.0,0.0,0.0,0.0,0.0,0.0,0.0,0.0,0.0,0.0,0.0,0.0,0.0,0.0,0.0,0.0,0.0,0.0,0.0,0.0,0.0,0.0,0.0,0.0,0.0,0.0,0.0,0.0,0.0,0.0,0.0,0.0,0.0,0.0,0.0,0.0,0.0,0.0,0.0,0.0,0.0,0.0,0.0,0.0,0.0,0.0,0.0,0.0,0.0,0.0,0.0,0.0,0.0,0.0,0.0,0.0,0.0,0.0,0.0,0.0,0.0,0.0,0.0,-2.408,-2.4263,-2.4377,-2.4553,-2.4776,-2.4735,-2.4556,-2.4109,-2.3599,-2.3129,0.0,0.0,0.0,0.0,0.0,0.0,0.0,0.0,0.0,0.0,0.0,0.0,0.0,0.0,0.0,0.0,0.0,0.0,0.0,0.0,0.0,0.0,0.0,0.0,0.0,0.0,0.0,0.0,0.0,0.0,0.0,0.0,0.0,0.0,0.0,0.0,0.0,0.0,0.0,0.0,0.0,0.0,0.0,0.0,0.0,0.0,0.0,0.0,0.0,0.0,0.0,0.0,0.0,0.0,0.0,0.0,0.0,0.0,0.0,0.0,0.0,0.0,0.0,0.0,0.0,0.0,0.0,0.0,0.0,0.0,0.0,0.0,0.0,0.0,0.0,0.0,0.0,0.0,0.0,0.0,0.0,0.0,0.0,0.0,0.0,0.0,0.0,0.0,0.0,0.0,0.0,0.0,0.0,0.0,0.0,0.0,0.0,0.0,0.0,0.0,0.0,0.0,-2.4781,-2.4974,-2.5091,-2.5361,-2.5652,-2.5605,-2.5449,-2.4925,-2.4362,0.0,0.0,0.0,0.0,0.0,0.0,0.0,0.0,0.0,0.0,0.0,0.0,0.0,0.0,0.0,0.0,0.0,0.0,0.0,0.0,0.0,0.0,0.0,0.0,0.0,0.0,0.0,0.0,0.0,0.0,0.0,0.0,0.0,0.0,0.0,0.0,0.0,0.0,0.0,0.0,0.0,0.0,0.0,0.0,0.0,0.0,0.0,0.0,0.0,0.0,0.0,0.0,0.0,0.0,0.0,0.0,0.0,0.0,0.0,0.0,0.0,0.0,0.0,0.0,0.0,0.0,0.0,0.0,0.0,0.0,0.0,0.0,0.0,0.0,0.0,0.0,0.0,0.0,0.0,0.0,0.0,0.0,0.0,0.0,0.0,0.0,0.0,0.0,0.0,0.0,0.0,0.0,0.0,0.0,0.0,0.0,0.0,0.0,0.0,0.0,0.0,0.0,0.0,-2.4053,-2.4223,-2.4381,-2.459,-2.4776,-2.4718,-2.4547,-2.4051,-2.3574,-2.3059,0.0,0.0,0.0,0.0,0.0,0.0,0.0,0.0,0.0,0.0,0.0,0.0,0.0,0.0,0.0,0.0,0.0,0.0,0.0,0.0,0.0,0.0,0.0,0.0,0.0,0.0,0.0,0.0,0.0,0.0,0.0,0.0,0.0,0.0,0.0,0.0,0.0,0.0,0.0,0.0,0.0,0.0,0.0,0.0,0.0,0.0,0.0,0.0,0.0,0.0,0.0,0.0,0.0,0.0,0.0,0.0,0.0,0.0,0.0,0.0,0.0,0.0,0.0,0.0,0.0,0.0,0.0,0.0,0.0,0.0,0.0,0.0,0.0,0.0,0.0,0.0,0.0,0.0,0.0,0.0,0.0,0.0,0.0,0.0,0.0,0.0,0.0,0.0,0.0,0.0,0.0,0.0,0.0,0.0,0.0,0.0,0.0,0.0,0.0,0.0,0.0,0.0,0.0,-2.2932,-2.3068,-2.3215,-2.3316,-2.3223,-2.3078,-2.2636,-2.2249,-2.1823,0.0,0.0,0.0,0.0,0.0,0.0,0.0,0.0,0.0,0.0,0.0,0.0,0.0,0.0,0.0,0.0,0.0,0.0,0.0,0.0,0.0,0.0,0.0,0.0,0.0,0.0,0.0,0.0,0.0,0.0,0.0,0.0,0.0,0.0,0.0,0.0,0.0,0.0,0.0,0.0,0.0,0.0,0.0,0.0,0.0,0.0,0.0,0.0,0.0,0.0,0.0,0.0,0.0,0.0,0.0,0.0,0.0,0.0,0.0,0.0,0.0,0.0,0.0,0.0,0.0,0.0,0.0,0.0,0.0,0.0,0.0,0.0,0.0,0.0,0.0,0.0,0.0,0.0,0.0,0.0,0.0,0.0,0.0,0.0,0.0,0.0,0.0,0.0,0.0,0.0,0.0,0.0,0.0,0.0,0.0,0.0,0.0,0.0,0.0,0.0,0.0,0.0,0.0,-2.0659,-2.0623,-2.064,-2.0731,-2.0641,-2.0464,-2.0122,-1.9837,-1.9584,-1.934,0.0,0.0,0.0,0.0,0.0,0.0,0.0,0.0,0.0,0.0,0.0,0.0,0.0,0.0,0.0,0.0,0.0,0.0,0.0,0.0,0.0,0.0,0.0,0.0,0.0,0.0,0.0,0.0,0.0,0.0,0.0,0.0,0.0,0.0,0.0,0.0,0.0,0.0,0.0,0.0,0.0,0.0,0.0,0.0,0.0,0.0,0.0,0.0,0.0,0.0,0.0,0.0,0.0,0.0,0.0,0.0,0.0,0.0,0.0,0.0,0.0,0.0,0.0,0.0,0.0,0.0,0.0,0.0,0.0,0.0,0.0,0.0,0.0,0.0,0.0,0.0,0.0,0.0,0.0,0.0,0.0,0.0,0.0,0.0,0.0,0.0,0.0,0.0,0.0,0.0,0.0,0.0,0.0,0.0,0.0,0.0,0.0,0.0,0.0,0.0,0.0,0.0,-1.837,-1.8218,-1.8113,-1.8053,-1.7939,-1.7839,-1.7631,-1.7472,-1.7378,-1.719,0.0,0.0,0.0,0.0,0.0,0.0,0.0,0.0,0.0,0.0,0.0,0.0,0.0,0.0,0.0,0.0,0.0,0.0,0.0,0.0,0.0,0.0,0.0,0.0,0.0,0.0,0.0,0.0,0.0,0.0,0.0,0.0,0.0,0.0,0.0,0.0,0.0,0.0,0.0,0.0,0.0,0.0,0.0,0.0,0.0,0.0,0.0,0.0,0.0,0.0,0.0,0.0,0.0,0.0,0.0,0.0,0.0,0.0,0.0,0.0,0.0,0.0,0.0,0.0,0.0,0.0,0.0,0.0,0.0,0.0,0.0,0.0,0.0,0.0,0.0,0.0,0.0,0.0,0.0,0.0,0.0,0.0,0.0,0.0,0.0,0.0,0.0,0.0,0.0,0.0,0.0,0.0,0.0,0.0,0.0,0.0,0.0,0.0,0.0,0.0,0.0,0.0,-1.6073,-1.5839,-1.5608,-1.5317,-1.523,-1.5179,-1.5161,-1.517,-1.5156,-1.5038,0.0,0.0,0.0,0.0,0.0,0.0,0.0,0.0,0.0,0.0,0.0,0.0,0.0,0.0,0.0,0.0,0.0,0.0,0.0,0.0,0.0,0.0,0.0,0.0,0.0,0.0,0.0,0.0,0.0,0.0,0.0,0.0,0.0,0.0,0.0,0.0,0.0,0.0,0.0,0.0,0.0,0.0,0.0,0.0,0.0,0.0,0.0,0.0,0.0,0.0,0.0,0.0,0.0,0.0,0.0,0.0,0.0,0.0,0.0,0.0,0.0,0.0,0.0,0.0,0.0,0.0,0.0,0.0,0.0,0.0,0.0,0.0,0.0,0.0,0.0,0.0,0.0,0.0,0.0,0.0,0.0,0.0,0.0,0.0,0.0,0.0,0.0,0.0,0.0,0.0,0.0,0.0,0.0,0.0,0.0,0.0,0.0,0.0,0.0,0.0,0.0,0.0,0.0,-1.3316,-1.3014,-1.2662,-1.2527,-1.25,-1.2639,-1.2724,-1.2801,0.0,0.0,0.0,0.0,0.0,0.0,0.0,0.0,0.0,0.0,0.0,0.0,0.0,0.0,0.0,0.0,0.0,0.0,0.0,0.0,0.0,0.0,0.0,0.0,0.0,0.0,0.0,0.0,0.0,0.0,0.0,0.0,0.0,0.0,0.0,0.0,0.0,0.0,0.0,0.0,0.0,0.0,0.0,0.0,0.0,0.0,0.0,0.0,0.0,0.0,0.0,0.0,0.0,0.0,0.0,0.0,0.0,0.0,0.0,0.0,0.0,0.0,0.0,0.0,0.0,0.0,0.0,0.0,0.0,0.0,0.0,0.0,0.0,0.0,0.0,0.0,0.0,0.0,0.0,0.0,0.0,0.0,0.0,0.0,0.0,0.0,0.0,0.0,0.0,0.0,0.0,0.0,0.0,0.0,0.0,0.0,0.0,0.0,0.0,0.0,0.0,0.0,0.0,0.0,-1.0789,-1.0395,-1.0003,-0.9847,-0.982,-1.0055,-1.0268,-1.0456,0.0,0.0,0.0,0.0,0.0,0.0,0.0,0.0,0.0,0.0,0.0,0.0,0.0,0.0]}]]]